[[{"header":{"parameterUnit":"m.s-1","parameterCategory":1,"la1":30.6,"la2":28.766,"lo1":-90.7593,"lo2":-88.6598,"dy":0.0162,"dx":0.0183,"nx":116,"ny":114,"refTime":"2023-10-08T12:00:00:Z","depth":0,"parameterNumber":2,"parameterNumberName":"U-component_of_WINDS"},"data":[0.0,0.0,0.0,0.0,0.0,0.0,0.0,0.0,0.0,0.0,0.0,0.0,0.0,0.0,0.0,0.0,0.0,0.0,0.0,0.0,0.0,0.0,0.0,0.0,0.0,0.0,0.0,0.0,0.0,0.0,0.0,0.0,0.0,0.0,0.0,0.0,0.0,0.0,0.0,0.0,0.0,0.0,0.0,0.0,0.0,0.0,0.0,0.0,0.0,0.0,0.0,0.0,0.0,0.0,0.0,0.0,0.0,0.0,0.0,0.0,0.0,0.0,0.0,0.0,0.0,0.0,0.0,0.0,0.0,0.0,0.0,0.0,0.0,0.0,0.0,0.0,0.0,0.0,0.0,0.0,0.0,0.0,0.0,0.0,0.0,0.0,0.0,0.0,0.0,0.0,0.0,0.0,0.0,0.0,0.0,0.0,0.0,0.0,0.0,0.0,0.0,0.0,0.0,0.0,0.0,0.0,0.0,0.0,0.0,0.0,0.0,0.0,0.0,0.0,0.0,0.0,0.0,0.0,0.0,0.0,0.0,0.0,0.0,0.0,0.0,0.0,0.0,0.0,0.0,0.0,0.0,0.0,0.0,0.0,0.0,0.0,0.0,0.0,0.0,0.0,0.0,0.0,0.0,0.0,0.0,0.0,0.0,0.0,0.0,0.0,0.0,0.0,0.0,0.0,0.0,0.0,0.0,0.0,0.0,0.0,0.0,0.0,0.0,0.0,0.0,0.0,0.0,0.0,0.0,0.0,0.0,0.0,0.0,0.0,0.0,0.0,0.0,0.0,0.0,0.0,0.0,0.0,0.0,0.0,0.0,0.0,0.0,0.0,0.0,0.0,0.0,0.0,0.0,0.0,0.0,0.0,0.0,0.0,0.0,0.0,0.0,0.0,0.0,0.0,0.0,0.0,0.0,0.0,0.0,0.0,0.0,0.0,0.0,0.0,0.0,0.0,0.0,0.0,0.0,0.0,0.0,0.0,0.0,0.0,0.0,0.0,0.0,0.0,0.0,0.0,0.0,0.0,0.0,0.0,0.0,0.0,0.0,0.0,0.0,0.0,0.0,0.0,0.0,0.0,0.0,0.0,0.0,0.0,0.0,0.0,0.0,0.0,0.0,0.0,0.0,0.0,0.0,0.0,0.0,0.0,0.0,0.0,0.0,0.0,0.0,0.0,0.0,0.0,0.0,0.0,0.0,0.0,0.0,0.0,0.0,0.0,0.0,0.0,0.0,0.0,0.0,0.0,0.0,0.0,0.0,0.0,0.0,0.0,0.0,0.0,0.0,0.0,0.0,0.0,0.0,0.0,0.0,0.0,0.0,0.0,0.0,0.0,0.0,0.0,0.0,0.0,0.0,0.0,0.0,0.0,0.0,0.0,0.0,0.0,0.0,0.0,0.0,0.0,0.0,0.0,0.0,0.0,0.0,0.0,0.0,0.0,0.0,0.0,0.0,0.0,0.0,0.0,0.0,0.0,0.0,0.0,0.0,0.0,0.0,0.0,0.0,0.0,0.0,0.0,0.0,0.0,0.0,0.0,0.0,0.0,0.0,0.0,0.0,0.0,0.0,0.0,0.0,0.0,0.0,0.0,0.0,0.0,0.0,0.0,0.0,0.0,0.0,0.0,0.0,0.0,0.0,0.0,0.0,0.0,0.0,0.0,0.0,0.0,0.0,0.0,0.0,0.0,0.0,0.0,0.0,0.0,0.0,0.0,0.0,0.0,0.0,0.0,0.0,0.0,0.0,0.0,0.0,0.0,0.0,0.0,0.0,0.0,0.0,0.0,0.0,0.0,0.0,0.0,0.0,0.0,0.0,0.0,0.0,0.0,0.0,0.0,0.0,0.0,0.0,0.0,0.0,0.0,0.0,0.0,0.0,0.0,0.0,0.0,0.0,0.0,0.0,0.0,0.0,0.0,0.0,0.0,0.0,0.0,0.0,0.0,0.0,0.0,0.0,0.0,0.0,0.0,0.0,0.0,0.0,0.0,0.0,0.0,0.0,0.0,0.0,0.0,0.0,0.0,0.0,0.0,0.0,0.0,0.0,0.0,0.0,0.0,0.0,0.0,0.0,0.0,0.0,0.0,0.0,0.0,0.0,0.0,0.0,0.0,0.0,0.0,0.0,0.0,0.0,0.0,0.0,0.0,0.0,0.0,0.0,0.0,0.0,0.0,0.0,0.0,0.0,0.0,0.0,0.0,0.0,0.0,0.0,0.0,0.0,0.0,0.0,0.0,0.0,0.0,0.0,0.0,0.0,0.0,0.0,0.0,0.0,0.0,0.0,0.0,0.0,0.0,0.0,0.0,0.0,0.0,0.0,0.0,0.0,0.0,0.0,0.0,0.0,0.0,0.0,0.0,0.0,0.0,0.0,0.0,0.0,0.0,0.0,0.0,0.0,0.0,0.0,0.0,0.0,0.0,0.0,0.0,0.0,0.0,0.0,0.0,0.0,0.0,0.0,0.0,0.0,0.0,0.0,0.0,0.0,0.0,0.0,0.0,0.0,0.0,0.0,0.0,0.0,0.0,0.0,0.0,0.0,0.0,0.0,0.0,0.0,0.0,0.0,0.0,0.0,0.0,0.0,0.0,0.0,0.0,0.0,0.0,0.0,0.0,0.0,0.0,0.0,0.0,0.0,0.0,0.0,0.0,0.0,0.0,0.0,0.0,0.0,0.0,0.0,0.0,0.0,0.0,0.0,0.0,0.0,0.0,0.0,0.0,0.0,0.0,0.0,0.0,0.0,0.0,0.0,0.0,0.0,0.0,0.0,0.0,0.0,0.0,0.0,0.0,0.0,0.0,0.0,0.0,0.0,0.0,0.0,0.0,0.0,0.0,0.0,0.0,0.0,0.0,0.0,0.0,0.0,0.0,0.0,0.0,0.0,0.0,0.0,0.0,0.0,0.0,0.0,0.0,0.0,0.0,0.0,0.0,0.0,0.0,0.0,0.0,0.0,0.0,0.0,0.0,0.0,0.0,0.0,0.0,0.0,0.0,0.0,0.0,0.0,0.0,0.0,0.0,0.0,0.0,0.0,0.0,0.0,0.0,0.0,0.0,0.0,0.0,0.0,0.0,0.0,0.0,0.0,0.0,0.0,0.0,0.0,0.0,0.0,0.0,0.0,0.0,0.0,0.0,0.0,0.0,0.0,0.0,0.0,0.0,0.0,0.0,0.0,0.0,0.0,0.0,0.0,0.0,0.0,0.0,0.0,0.0,0.0,0.0,0.0,0.0,0.0,0.0,0.0,0.0,0.0,0.0,0.0,0.0,0.0,0.0,0.0,0.0,0.0,0.0,0.0,0.0,0.0,0.0,0.0,0.0,0.0,0.0,0.0,0.0,0.0,0.0,0.0,0.0,0.0,0.0,0.0,0.0,0.0,0.0,0.0,0.0,0.0,0.0,0.0,0.0,0.0,0.0,0.0,0.0,0.0,0.0,0.0,0.0,0.0,0.0,0.0,0.0,0.0,0.0,0.0,0.0,0.0,0.0,0.0,0.0,0.0,0.0,0.0,0.0,0.0,0.0,0.0,0.0,0.0,0.0,0.0,0.0,0.0,0.0,0.0,0.0,0.0,0.0,0.0,0.0,0.0,0.0,0.0,0.0,0.0,0.0,0.0,0.0,0.0,0.0,0.0,0.0,0.0,0.0,0.0,0.0,0.0,0.0,0.0,0.0,0.0,0.0,0.0,0.0,0.0,0.0,0.0,0.0,0.0,0.0,0.0,0.0,0.0,0.0,0.0,0.0,0.0,0.0,0.0,0.0,0.0,0.0,0.0,0.0,0.0,0.0,0.0,0.0,0.0,0.0,0.0,0.0,0.0,0.0,0.0,0.0,0.0,0.0,0.0,0.0,0.0,0.0,0.0,0.0,0.0,0.0,0.0,0.0,0.0,0.0,0.0,0.0,0.0,0.0,0.0,0.0,0.0,0.0,0.0,0.0,0.0,0.0,0.0,0.0,0.0,0.0,0.0,0.0,0.0,0.0,0.0,0.0,0.0,0.0,0.0,0.0,0.0,0.0,0.0,0.0,0.0,0.0,0.0,0.0,0.0,0.0,0.0,0.0,0.0,0.0,0.0,0.0,0.0,0.0,0.0,0.0,0.0,0.0,0.0,0.0,0.0,0.0,0.0,0.0,0.0,0.0,0.0,0.0,0.0,0.0,0.0,0.0,0.0,0.0,0.0,0.0,0.0,0.0,0.0,0.0,0.0,0.0,0.0,0.0,0.0,0.0,0.0,0.0,0.0,0.0,0.0,0.0,0.0,0.0,0.0,0.0,0.0,0.0,0.0,0.0,0.0,0.0,0.0,0.0,0.0,0.0,0.0,0.0,0.0,0.0,0.0,0.0,0.0,0.0,0.0,0.0,0.0,0.0,0.0,0.0,0.0,0.0,0.0,0.0,0.0,0.0,0.0,0.0,0.0,0.0,0.0,0.0,0.0,0.0,0.0,0.0,0.0,0.0,0.0,0.0,0.0,0.0,0.0,0.0,0.0,0.0,0.0,0.0,0.0,0.0,0.0,0.0,0.0,0.0,0.0,0.0,0.0,0.0,0.0,0.0,0.0,0.0,0.0,0.0,0.0,0.0,0.0,0.0,0.0,0.0,0.0,0.0,0.0,0.0,0.0,0.0,0.0,0.0,0.0,0.0,0.0,0.0,0.0,0.0,0.0,0.0,0.0,0.0,0.0,0.0,0.0,0.0,0.0,0.0,0.0,0.0,0.0,0.0,0.0,0.0,0.0,0.0,0.0,0.0,0.0,0.0,0.0,0.0,0.0,0.0,0.0,0.0,0.0,0.0,0.0,0.0,0.0,0.0,0.0,0.0,0.0,0.0,0.0,0.0,0.0,0.0,0.0,0.0,0.0,0.0,0.0,0.0,0.0,0.0,0.0,0.0,0.0,0.0,0.0,0.0,0.0,0.0,0.0,0.0,0.0,0.0,0.0,0.0,0.0,0.0,0.0,0.0,0.0,0.0,0.0,0.0,0.0,0.0,0.0,0.0,0.0,0.0,0.0,0.0,0.0,0.0,0.0,0.0,0.0,0.0,0.0,0.0,0.0,0.0,0.0,0.0,0.0,0.0,0.0,0.0,0.0,0.0,0.0,0.0,0.0,0.0,0.0,0.0,0.0,0.0,0.0,0.0,0.0,0.0,0.0,0.0,0.0,0.0,0.0,0.0,0.0,0.0,0.0,0.0,0.0,0.0,0.0,0.0,0.0,0.0,0.0,0.0,0.0,0.0,0.0,0.0,0.0,0.0,0.0,0.0,0.0,0.0,0.0,0.0,0.0,0.0,0.0,0.0,0.0,0.0,0.0,0.0,0.0,0.0,0.0,0.0,0.0,0.0,0.0,0.0,0.0,0.0,0.0,0.0,0.0,0.0,0.0,0.0,0.0,0.0,0.0,0.0,0.0,0.0,0.0,0.0,0.0,0.0,0.0,0.0,0.0,0.0,0.0,0.0,0.0,0.0,0.0,0.0,0.0,0.0,0.0,0.0,0.0,0.0,0.0,0.0,0.0,0.0,0.0,0.0,0.0,0.0,0.0,0.0,0.0,0.0,0.0,0.0,0.0,0.0,0.0,0.0,0.0,0.0,0.0,0.0,0.0,0.0,0.0,0.0,0.0,0.0,0.0,0.0,0.0,0.0,0.0,0.0,0.0,0.0,0.0,0.0,0.0,0.0,0.0,0.0,0.0,0.0,0.0,0.0,0.0,0.0,0.0,0.0,0.0,0.0,0.0,0.0,0.0,0.0,0.0,0.0,0.0,0.0,0.0,0.0,0.0,0.0,0.0,0.0,0.0,0.0,0.0,0.0,0.0,0.0,0.0,0.0,0.0,0.0,0.0,0.0,0.0,0.0,0.0,0.0,0.0,0.0,0.0,0.0,0.0,0.0,0.0,0.0,0.0,0.0,0.0,0.0,0.0,0.0,0.0,0.0,0.0,0.0,0.0,0.0,0.0,0.0,0.0,0.0,0.0,0.0,0.0,0.0,0.0,0.0,0.0,0.0,0.0,0.0,0.0,0.0,0.0,0.0,0.0,0.0,0.0,0.0,0.0,0.0,0.0,0.0,0.0,0.0,0.0,0.0,0.0,0.0,-2.1234,-2.0646,0.0,0.0,0.0,0.0,0.0,0.0,0.0,0.0,0.0,0.0,0.0,0.0,0.0,0.0,0.0,0.0,0.0,0.0,0.0,0.0,0.0,0.0,0.0,0.0,0.0,0.0,0.0,0.0,0.0,0.0,0.0,0.0,0.0,0.0,0.0,0.0,0.0,0.0,-2.0568,-2.1116,-2.1779,-2.1566,-2.1058,-2.032,0.0,0.0,0.0,0.0,0.0,0.0,0.0,0.0,0.0,0.0,0.0,0.0,0.0,0.0,0.0,0.0,0.0,0.0,0.0,0.0,0.0,0.0,0.0,0.0,0.0,0.0,0.0,0.0,0.0,0.0,0.0,0.0,0.0,0.0,0.0,0.0,0.0,0.0,0.0,0.0,0.0,0.0,0.0,0.0,0.0,0.0,0.0,0.0,0.0,0.0,0.0,0.0,0.0,0.0,0.0,0.0,0.0,0.0,0.0,0.0,0.0,0.0,0.0,0.0,0.0,0.0,0.0,0.0,0.0,0.0,-2.3259,-2.2213,0.0,0.0,0.0,0.0,0.0,0.0,0.0,0.0,0.0,0.0,0.0,0.0,0.0,0.0,0.0,0.0,0.0,0.0,0.0,0.0,0.0,0.0,0.0,0.0,-1.6294,-1.6336,-1.6457,0.0,0.0,0.0,0.0,0.0,0.0,0.0,0.0,0.0,0.0,-2.0376,-2.11,-2.1859,-2.2572,-2.2683,-2.2241,-2.1329,-2.0777,0.0,0.0,0.0,0.0,0.0,0.0,0.0,0.0,0.0,0.0,0.0,0.0,0.0,0.0,0.0,0.0,0.0,0.0,0.0,0.0,0.0,0.0,0.0,0.0,0.0,0.0,0.0,0.0,0.0,0.0,0.0,0.0,0.0,0.0,0.0,0.0,0.0,0.0,0.0,0.0,0.0,0.0,0.0,0.0,0.0,0.0,0.0,0.0,0.0,0.0,0.0,0.0,0.0,0.0,0.0,0.0,0.0,0.0,0.0,0.0,0.0,0.0,0.0,-2.7505,-2.7996,-2.8784,-2.8938,-2.8959,-2.8746,-2.6092,-2.4522,-2.3772,-2.2849,0.0,0.0,0.0,0.0,0.0,0.0,0.0,0.0,0.0,0.0,0.0,0.0,0.0,0.0,0.0,0.0,0.0,0.0,0.0,0.0,0.0,-1.6485,-1.6879,-1.6893,-1.7486,-1.7899,0.0,0.0,0.0,0.0,0.0,0.0,0.0,-2.0847,-2.0991,-2.1086,-2.1876,-2.2637,-2.3366,-2.4052,-2.4209,-2.3865,-2.2776,-2.1713,-2.0825,0.0,0.0,0.0,0.0,0.0,0.0,0.0,0.0,0.0,0.0,0.0,0.0,0.0,0.0,0.0,0.0,0.0,0.0,0.0,0.0,0.0,0.0,0.0,0.0,0.0,0.0,0.0,0.0,0.0,0.0,0.0,0.0,0.0,0.0,0.0,0.0,0.0,0.0,0.0,0.0,0.0,-2.1811,-2.1813,0.0,0.0,0.0,0.0,0.0,0.0,0.0,0.0,0.0,0.0,0.0,0.0,0.0,-2.7251,-2.8527,-2.851,-2.9165,-3.0532,-3.0554,-3.0912,-3.1587,-3.171,-3.171,-3.1499,-3.0443,0.0,-2.5778,-2.4465,0.0,0.0,0.0,0.0,0.0,0.0,0.0,0.0,0.0,0.0,0.0,0.0,0.0,0.0,0.0,0.0,0.0,0.0,0.0,0.0,0.0,-1.6907,-1.7405,-1.7546,-1.7788,-1.8154,-1.8632,0.0,0.0,0.0,0.0,0.0,-2.099,-2.1054,-2.1568,-2.249,-2.3655,-2.4774,-2.5875,-2.6646,-2.7138,-2.7331,-2.6378,-2.4634,-2.2347,-2.1318,0.0,0.0,0.0,0.0,0.0,0.0,0.0,0.0,0.0,0.0,0.0,0.0,0.0,0.0,0.0,0.0,0.0,0.0,0.0,0.0,0.0,0.0,0.0,0.0,0.0,0.0,0.0,0.0,0.0,0.0,0.0,0.0,0.0,0.0,0.0,0.0,0.0,0.0,0.0,-2.1699,-2.2379,-2.3195,-2.2978,-2.2934,0.0,0.0,0.0,0.0,0.0,0.0,0.0,0.0,0.0,-2.8496,-2.974,-3.0683,-3.1356,-3.1575,-3.2239,-3.3299,-3.3299,-3.368,-3.4403,-3.4536,-3.4561,-3.4478,-3.3672,-3.2466,-3.0806,-2.7327,-2.5803,-2.5566,0.0,0.0,0.0,0.0,-2.3169,-2.3025,0.0,0.0,0.0,0.0,0.0,0.0,0.0,0.0,0.0,0.0,0.0,0.0,-1.6448,-1.7377,-1.8009,-1.8096,-1.835,-1.8748,-1.9301,-1.9532,0.0,0.0,0.0,-2.0892,-2.1103,-2.1503,-2.2584,-2.4306,-2.5551,-2.6879,-2.8271,-2.9026,-2.961,-2.9984,-2.9436,-2.7423,-2.4291,-2.2651,-2.1504,-2.0771,0.0,0.0,0.0,0.0,0.0,0.0,0.0,0.0,0.0,0.0,0.0,0.0,0.0,0.0,0.0,0.0,0.0,0.0,0.0,0.0,0.0,0.0,0.0,0.0,0.0,0.0,0.0,0.0,0.0,0.0,0.0,0.0,0.0,0.0,0.0,0.0,0.0,-2.2794,-2.3701,-2.4989,-2.4885,-2.4908,0.0,0.0,0.0,0.0,0.0,0.0,-2.853,-3.0107,-3.1241,-3.1792,-3.3323,-3.4262,-3.4457,-3.4839,-3.533,-3.5878,-3.5878,-3.619,-3.6756,-3.6869,-3.6923,-3.6864,-3.6017,-3.5567,-3.4995,-3.0241,-2.8237,-2.8,-2.6409,-2.5633,-2.5404,-2.5404,-2.5257,-2.5118,0.0,0.0,0.0,0.0,0.0,0.0,0.0,0.0,0.0,0.0,0.0,-1.6063,-1.6128,-1.7794,-1.879,-1.8396,-1.9652,-2.0314,-1.9957,-2.0189,-2.0378,-2.051,-2.0643,-2.0826,-2.1103,-2.2585,-2.4436,-2.6523,-2.7267,-2.8336,-2.9815,-3.0607,-3.092,-3.0839,-3.0784,-2.9357,-2.6809,-2.5194,-2.3544,-2.1926,-2.0936,0.0,0.0,0.0,0.0,0.0,0.0,0.0,0.0,0.0,0.0,0.0,0.0,0.0,0.0,0.0,0.0,0.0,0.0,0.0,0.0,0.0,0.0,0.0,0.0,0.0,0.0,0.0,0.0,0.0,0.0,0.0,0.0,0.0,0.0,0.0,0.0,0.0,0.0,-2.7352,-2.81,0.0,0.0,0.0,0.0,-2.9524,-2.9686,-3.0917,-3.3582,-3.3841,-3.4813,-3.6858,-3.702,-3.7436,-3.8116,-3.8181,-3.8213,-3.8246,-3.8246,-3.8246,-3.8278,-3.8278,-3.8278,-3.8246,-3.7395,-3.6989,-3.6672,-3.2787,-3.1124,-3.0788,-2.8726,-2.7781,-2.7524,-2.7524,-2.7418,-2.7334,0.0,0.0,0.0,0.0,0.0,0.0,0.0,0.0,0.0,-1.5358,-1.6066,-1.6832,-1.7748,-1.8798,-1.9671,-2.0225,-2.0361,-2.0474,-2.0625,-2.0461,-2.0371,-2.044,-2.0609,-2.1237,-2.2431,-2.4402,-2.6302,-2.8045,-2.9664,-3.0992,-3.1987,-3.3178,-3.347,-3.2943,-3.287,-3.2048,-3.052,-2.7322,-2.5299,-2.4019,-2.2465,-2.1346,0.0,0.0,0.0,0.0,0.0,0.0,0.0,0.0,0.0,0.0,0.0,0.0,0.0,0.0,0.0,0.0,0.0,0.0,0.0,0.0,0.0,0.0,0.0,0.0,0.0,0.0,0.0,0.0,0.0,0.0,0.0,0.0,0.0,0.0,0.0,0.0,0.0,-3.0235,-3.0678,0.0,-3.2125,-3.1963,-3.2222,-3.3251,-3.4133,-3.5104,-3.6108,-3.7048,-3.7922,-3.8667,-3.912,-3.9476,-3.9735,-3.9735,-3.9735,-3.9735,-3.9735,-3.9735,-3.9735,-3.9735,-3.9509,-3.9088,-3.8653,-3.8209,-3.7665,-3.5737,-3.433,-3.3276,-3.2069,-3.1419,-3.1099,-3.0691,-3.0435,-3.0254,0.0,0.0,0.0,0.0,0.0,0.0,0.0,0.0,-1.4954,-1.5618,-1.649,-1.7493,-1.8569,-1.962,-2.0497,-2.1091,-2.0772,-2.0646,-2.082,-2.0406,-2.015,-2.0185,-2.0943,-2.2118,-2.3802,-2.6049,-2.7973,-2.9502,-3.1445,-3.274,-3.3453,-3.4644,-3.4936,-3.4489,-3.451,-3.422,-3.3457,-3.0333,-2.7853,-2.5852,-2.4242,-2.2833,-2.1609,0.0,0.0,0.0,0.0,0.0,0.0,0.0,0.0,0.0,0.0,0.0,0.0,0.0,0.0,0.0,0.0,0.0,0.0,0.0,0.0,0.0,0.0,0.0,0.0,0.0,0.0,0.0,0.0,0.0,0.0,0.0,0.0,0.0,0.0,-2.9685,-3.1737,-3.3906,-3.4586,-3.5234,-3.6173,-3.627,-3.6562,-3.7302,-3.8213,-3.8958,-3.9415,-4.0383,-4.0901,-4.0901,-4.1355,-4.1452,-4.1225,-4.1225,-4.1096,-4.0869,-4.0869,-4.0739,-4.048,-4.048,-4.0254,-3.98,-3.9454,-3.904,-3.8556,-3.7762,-3.6786,-3.5715,-3.4622,-3.4026,-3.3751,-3.3311,-3.3043,-3.2779,0.0,0.0,0.0,0.0,0.0,0.0,0.0,-1.4608,-1.4954,-1.5618,-1.6831,-1.7843,-1.8498,-2.0196,-2.1173,-2.0867,-2.0996,-2.0909,-2.0527,-2.006,-1.9815,-1.9851,-2.1633,-2.3425,-2.5123,-2.7464,-2.9414,-3.0969,-3.2449,-3.3485,-3.4108,-3.491,-3.5234,-3.5234,-3.5626,-3.5728,-3.5498,-3.4188,-3.131,-2.7488,-2.6287,-2.4447,-2.2443,0.0,0.0,0.0,0.0,0.0,0.0,0.0,0.0,0.0,0.0,0.0,0.0,0.0,0.0,0.0,0.0,0.0,0.0,0.0,0.0,0.0,0.0,0.0,0.0,0.0,0.0,0.0,0.0,0.0,0.0,0.0,0.0,0.0,-3.1011,-3.3518,-3.6135,-3.8246,-3.9703,-4.0577,-4.0577,-4.0577,-4.0931,-4.1644,-4.1709,-4.2325,-4.3654,-4.3751,-4.3751,-4.3751,-4.3751,-4.3395,-4.2683,-4.2651,-4.2359,-4.1677,-4.1677,-4.1288,-4.0577,-4.0577,-4.0545,-4.048,-3.9862,-3.9538,-3.9441,-3.8732,-3.8323,-3.8051,-3.633,-3.5514,-3.526,-3.526,-3.5083,-3.475,0.0,0.0,0.0,0.0,0.0,0.0,0.0,-1.4481,-1.4969,-1.6121,-1.7048,-1.818,-1.9726,-2.0731,-2.132,-2.1384,-2.1081,-2.0706,-2.0333,-1.9845,-1.9924,-2.0697,-2.2229,-2.4189,-2.6627,-2.8806,-3.0678,-3.2281,-3.3756,-3.4432,-3.4415,-3.5791,-3.6053,-3.5463,-3.6083,-3.6003,-3.5331,-3.4691,-3.3242,-3.1201,-2.9139,-2.7352,-2.578,0.0,0.0,0.0,0.0,0.0,0.0,0.0,0.0,0.0,0.0,0.0,0.0,0.0,0.0,0.0,0.0,0.0,0.0,0.0,0.0,0.0,0.0,0.0,0.0,0.0,0.0,0.0,0.0,0.0,0.0,0.0,-3.1669,-3.3827,-3.4003,-3.6465,-3.8861,-4.0542,-4.1484,-4.223,-4.278,-4.2812,-4.3136,-4.3848,-4.3913,-4.4075,-4.4464,-4.4496,-4.4496,-4.4496,-4.4496,-4.4399,-4.4204,-4.4204,-4.3848,-4.3136,-4.3136,-4.2747,-4.2004,-4.2004,-4.1776,-4.1288,-4.1093,-4.0445,-3.9505,-3.9279,-3.8775,-3.8148,-3.7502,-3.7141,-3.6936,-3.6314,-3.572,-3.5124,0.0,0.0,0.0,0.0,0.0,0.0,0.0,-1.4337,-1.4922,-1.6284,-1.7088,-1.817,-1.9768,-2.054,-2.0965,-2.114,-2.0647,-2.0255,-2.0049,-1.974,-2.0213,-2.1592,-2.3241,-2.5342,-2.7873,-3.0299,-3.2088,-3.3187,-3.4631,-3.5171,-3.4954,-3.621,-3.6441,-3.5918,-3.6558,-3.6508,-3.5869,-3.5795,-3.5064,-3.3818,-3.2318,-3.0333,-2.8216,-2.6983,-2.63,-2.5952,-2.4882,-2.4534,-2.4442,-2.3804,0.0,0.0,0.0,0.0,0.0,0.0,0.0,0.0,0.0,0.0,0.0,0.0,0.0,0.0,0.0,0.0,0.0,0.0,0.0,0.0,0.0,0.0,0.0,0.0,-3.5102,-3.7685,-3.9023,-4.0351,-4.1743,-4.3168,-4.3978,-4.4593,-4.5014,-4.5046,-4.5208,-4.5629,-4.5662,-4.5662,-4.5662,-4.5662,-4.5532,-4.5241,-4.5208,-4.5079,-4.4787,-4.4787,-4.4561,-4.4172,-4.4172,-4.3783,-4.3039,-4.3039,-4.2682,-4.2002,-4.1742,-4.1158,-4.0348,-3.9732,-3.9159,-3.8566,0.0,0.0,0.0,0.0,-3.6437,-3.5774,0.0,0.0,0.0,0.0,0.0,0.0,0.0,-1.4219,-1.4784,-1.6188,-1.7042,-1.7953,-1.9182,-1.9964,-2.0387,-2.0387,-1.9932,-1.9701,-1.9769,-1.9778,-2.0633,-2.2507,-2.4505,-2.668,-2.902,-3.1674,-3.3319,-3.3898,-3.5181,-3.5709,-3.5542,-3.627,-3.6532,-3.6389,-3.696,-3.7062,-3.6786,-3.7116,-3.6604,-3.5571,-3.5274,-3.3189,-3.0134,-2.9319,-2.8652,-2.8043,-2.7432,-2.7198,-2.6997,-2.6329,0.0,0.0,0.0,0.0,0.0,0.0,0.0,0.0,0.0,0.0,0.0,0.0,0.0,0.0,0.0,0.0,0.0,0.0,0.0,0.0,0.0,0.0,0.0,0.0,-3.8683,-4.1814,-4.4658,-4.4625,-4.4755,-4.6018,-4.673,-4.7087,-4.7022,-4.7022,-4.6989,-4.6927,-4.6892,-4.6892,-4.6892,-4.6892,0.0,0.0,0.0,-4.5629,-4.5046,-4.5046,-4.4982,-4.4917,-4.4917,-4.4528,-4.3816,-4.3751,-4.3331,-4.2683,-4.2002,-4.1677,-4.1515,-4.0154,-3.9389,-3.8988,-3.8203,-3.7804,-3.7658,-3.7539,-3.704,-3.6474,0.0,0.0,0.0,0.0,0.0,0.0,0.0,-1.3974,-1.4701,-1.6,-1.6941,-1.7953,-1.9182,-1.9964,-2.0175,-1.9669,-1.9521,-1.9498,-1.9628,-2.0082,-2.137,-2.3684,-2.5236,-2.757,-3.0829,-3.2071,-3.3463,-3.4976,-3.5717,-3.5925,-3.5692,-3.6348,-3.6507,-3.6261,-3.7001,-3.7246,-3.7116,-3.7395,-3.7207,-3.6743,-3.6428,-3.4936,-3.2825,-3.1471,-3.0887,-3.0713,-3.0074,-2.9523,-2.8971,-2.8332,-2.7694,-2.6825,-2.4998,-2.3925,0.0,0.0,0.0,0.0,0.0,0.0,0.0,0.0,0.0,0.0,0.0,0.0,0.0,0.0,0.0,0.0,0.0,0.0,0.0,-3.8269,-4.1692,-4.4528,-4.6245,-4.7346,-4.8055,-4.8382,-4.8512,-4.8382,-4.7831,-4.7799,-4.754,-4.6925,-4.6892,-4.6892,-4.6892,-4.6892,-4.6828,-4.6666,-4.6666,-4.6601,-4.6471,-4.6471,-4.618,-4.5597,-4.5597,0.0,-4.4561,-4.3978,-4.3622,-4.346,-4.2716,-4.2099,-4.1547,-4.0642,-3.946,-3.811,-3.7836,-3.7658,-3.751,-3.7329,-3.7175,-3.6957,0.0,0.0,0.0,0.0,0.0,0.0,0.0,-1.3564,-1.4337,-1.5702,-1.6427,-1.731,-1.8615,-1.9105,-1.9243,-1.8955,-1.8947,-1.9248,-1.9929,-2.0853,-2.2392,-2.464,-2.6704,-2.8944,-3.142,-3.29,-3.4258,-3.5495,-3.6094,-3.6287,-3.6106,-3.6446,-3.6567,-3.6489,-3.6858,-3.7028,-3.7057,-3.751,-3.7429,-3.7002,-3.6852,-3.6157,-3.5045,-3.3554,-3.2977,-3.2771,-3.1496,-3.0918,-3.0571,-2.9638,-2.9112,-2.8612,-2.7029,-2.5779,-2.4708,0.0,0.0,0.0,0.0,0.0,0.0,0.0,0.0,0.0,0.0,0.0,0.0,0.0,0.0,-3.0703,-3.3366,0.0,-3.8306,-4.1784,-4.4293,-4.6471,-4.8252,-4.9127,-4.9418,-4.9026,-4.8994,-4.8864,-4.8544,-4.822,-4.7864,-4.7475,-4.7087,-4.7054,-4.7443,-4.7087,-4.7054,-4.7443,-4.7087,-4.6892,-4.6892,-4.6892,-4.6698,-4.6342,-4.6342,-4.5986,-4.5273,-4.4561,-4.4043,-4.3654,-4.291,-4.2361,-4.1878,-4.0661,-3.942,-3.825,-3.7664,-3.7449,-3.748,-3.727,-3.7178,-3.7117,0.0,0.0,0.0,0.0,0.0,0.0,0.0,0.0,-1.3908,-1.5278,-1.5801,-1.6545,-1.784,-1.8151,-1.8333,-1.8439,-1.8571,-1.9179,-2.0441,-2.1805,-2.3558,-2.5802,-2.8225,-3.0308,-3.1901,-3.3665,-3.4909,-3.5706,-3.6199,-3.6475,-3.6503,-3.6441,-3.652,-3.666,-3.681,-3.6866,-3.691,-3.7556,-3.7528,-3.7086,-3.7115,-3.6946,-3.6548,-3.5027,-3.4414,-3.4066,-3.2272,-3.1555,-3.136,-3.0222,-2.9985,-2.9892,-2.8739,-2.7509,-2.6226,-2.4905,-2.3524,0.0,0.0,0.0,0.0,0.0,0.0,0.0,0.0,-2.9561,-3.0538,-3.1664,-3.2946,-3.4665,-3.726,-3.9211,-4.1495,-4.4779,-4.6547,-4.8123,-4.9872,-5.0098,-4.9872,-4.9252,-4.9317,-4.935,-4.9256,-4.8609,-4.8155,-4.8026,-4.7313,-4.7216,-4.7961,-4.7443,-4.7378,-4.7993,-4.741,-4.7022,-4.6892,-4.6892,-4.6892,-4.6892,-4.6892,-4.6568,-4.5986,-4.5176,-4.4464,-4.3881,-4.2943,-4.2427,-4.2075,-4.0608,-3.9497,-3.8609,-3.7769,-3.7426,-3.7389,-3.721,-3.7088,-3.7058,0.0,0.0,0.0,0.0,0.0,0.0,0.0,0.0,0.0,-1.4433,-1.5415,-1.629,-1.7063,-1.7793,-1.8222,-1.8242,-1.8842,-1.974,-2.0941,-2.2821,-2.5029,-2.7598,-2.9194,-3.1106,-3.3387,-3.3814,-3.4552,-3.5695,-3.5595,-3.5859,-3.6427,-3.6231,-3.6285,-3.6553,-3.7145,-3.7324,-3.7186,-3.7676,-3.7861,-3.7785,-3.7625,-3.7196,-3.6539,-3.5268,-3.4409,-3.3779,-3.2434,-3.1298,-3.0387,-2.9842,-2.9841,-2.9981,-2.9215,-2.8589,-2.7839,-2.641,-2.4745,-2.3369,-2.3336,-2.4304,-2.5681,-2.7122,-2.8274,-2.9374,0.0,-3.2467,-3.4016,-3.4701,-3.6743,-3.8689,-3.9845,-4.231,-4.4573,-4.5798,-4.8087,-4.9839,-5.0066,-5.0098,-5.0066,-5.0001,-5.0552,-5.0681,-5.0034,-4.9321,-4.8638,-4.8058,-4.7313,-4.7216,-4.7961,-4.7929,-4.7929,-4.8026,-4.7929,-4.7572,-4.6927,-4.6892,-4.6892,-4.6892,-4.6892,-4.6862,-4.673,-4.5403,-4.4755,-4.4593,-4.3073,-4.2042,-4.1368,-4.0864,-3.9911,-3.8672,-3.8337,-3.7805,-3.7178,-3.6877,-3.6754,-3.6754,0.0,0.0,0.0,0.0,0.0,0.0,0.0,0.0,0.0,0.0,-1.4924,-1.5891,-1.6829,-1.7707,-1.8202,-1.8202,-1.8464,-1.9308,-2.0889,-2.2769,-2.4822,-2.7088,-2.9574,-3.1504,-3.2667,-3.3583,-3.4347,-3.5073,-3.5359,-3.568,-3.5946,-3.6227,-3.6512,-3.6729,-3.7026,-3.7189,-3.7263,-3.7444,-3.7481,-3.7337,-3.6892,-3.6344,-3.5674,-3.4023,-3.258,-3.131,-3.0623,-2.9891,0.0,0.0,-2.8171,-2.8471,-2.875,-2.8412,-2.7722,-2.6723,-2.5932,-2.5438,-2.5667,-2.6755,-2.829,-3.0108,-3.1713,-3.3273,-3.5032,-3.6572,-3.7865,-3.8637,-4.0039,-4.1494,-4.2598,-4.4323,-4.602,-4.7425,-4.8965,-4.995,-4.995,-4.9839,-4.9641,-4.9365,-4.9628,-4.9729,-4.9479,-4.8835,-4.8479,-4.8541,-4.7929,-4.8026,-4.9159,-4.8835,-4.8573,-4.8573,-4.822,-4.7637,-4.6892,-4.6892,-4.6892,-4.6892,-4.6892,-4.6892,-4.6828,-4.5435,-4.4334,-4.346,-4.2591,-4.2045,-4.1693,-4.0992,-4.0293,-3.9566,-3.8968,-3.8216,-3.7437,-3.6909,-3.6693,-3.6693,0.0,0.0,0.0,0.0,0.0,0.0,0.0,0.0,0.0,0.0,-1.4412,-1.5608,-1.6896,-1.7658,-1.8063,-1.8063,-1.828,-1.9121,-2.0753,-2.2622,-2.4553,-2.6718,-2.9376,-3.1228,-3.2094,-3.3111,-3.3892,-3.4438,-3.4903,-3.5223,-3.5398,-3.5828,-3.6281,-3.6765,-3.6765,-3.6921,-3.7211,-3.7042,-3.688,-3.6669,-3.5883,-3.5096,-3.4233,-3.2342,-3.0375,-2.8551,-2.8365,-2.7883,0.0,0.0,-2.5954,-2.6519,-2.7454,-2.746,-2.706,-2.6579,-2.6572,-2.6859,-2.7616,-2.92,-3.1155,-3.3225,-3.5179,-3.7029,-3.8808,-3.999,-4.096,-4.1776,-4.2705,-4.3682,-4.4616,-4.571,-4.6865,-4.8139,-4.9148,-4.97,-4.94,-4.9288,-4.9032,-4.84,-4.8252,-4.8232,-4.834,-4.8152,-4.8285,-4.8929,-4.8382,-4.8609,-5.0034,-4.9613,-4.9321,-4.9321,-4.8641,-4.7929,-4.7216,-4.6989,-4.6892,-4.6892,-4.6892,-4.6763,-4.6536,-4.5144,-4.3784,-4.2523,-4.2238,-4.2077,-4.1981,-4.1148,-4.0606,-4.0256,-3.9527,-3.8711,-3.7931,-3.7188,-3.6786,-3.6631,0.0,0.0,0.0,0.0,0.0,0.0,0.0,0.0,0.0,0.0,0.0,0.0,0.0,-1.7577,-1.772,-1.772,-1.8481,-1.9504,-2.0717,-2.2625,-2.4775,-2.7183,-2.8509,-3.0165,-3.232,-3.2438,-3.2919,-3.3917,-3.3945,-3.426,-3.4803,-3.4832,-3.541,-3.642,-3.642,-3.6646,-3.6989,-3.6399,-3.6145,-3.6033,-3.4787,-3.3543,-3.2286,-3.0403,-2.8155,-2.602,-2.6019,0.0,-2.4248,-2.3112,-2.3432,-2.444,-2.5301,-2.5775,0.0,-2.6,-2.623,-2.6856,-2.8879,-3.1691,-3.4502,-3.6402,-3.834,-4.0073,-4.126,-4.2022,-4.273,-4.3408,-4.4532,-4.5431,-4.5468,-4.6512,-4.7317,-4.7166,-4.861,-4.9432,-4.8387,-4.8435,-4.8184,-4.7262,-4.6885,-4.6647,-4.6682,-4.7499,-4.8285,-4.8929,-4.8382,-4.8609,-5.0034,-5.0098,-5.0066,-5.0066,-4.9354,-4.8673,-4.7993,-4.7249,-4.6892,-4.6892,-4.6892,-4.6504,-4.5791,-4.4399,-4.3234,-4.2365,-4.2174,-4.2045,-4.185,-4.1456,-4.0884,-4.0254,-3.9926,-3.9358,-3.8674,-3.7802,-3.7061,-3.6538,0.0,0.0,0.0,0.0,0.0,0.0,0.0,0.0,0.0,0.0,0.0,0.0,0.0,0.0,0.0,0.0,-1.7799,-1.8359,-1.914,-2.0626,-2.2267,-2.3983,-2.6042,-2.7732,-2.8972,-3.0225,-3.1043,-3.1366,-3.2178,-3.2681,-3.2877,-3.3269,-3.3653,-3.4036,-3.4036,-3.4111,-3.4205,-3.401,-3.3676,-3.3239,-3.2424,-3.1116,-2.9477,-2.7581,-2.5633,-2.3685,0.0,0.0,-2.2225,-2.1554,-2.1672,-2.2344,-2.3829,-2.4453,-2.5036,-2.7111,-2.8059,-2.9168,-3.2382,-3.4732,-3.6985,-4.0007,-4.1823,-4.3091,-4.3811,-4.4378,-4.4613,-4.3963,-4.4142,-4.42,-4.3549,-4.4583,-4.5358,-4.4953,-4.637,-4.717,-4.6328,-4.6529,-4.6598,-4.6092,-4.6063,-4.6191,-4.6547,-4.7015,-4.7767,-4.8897,-4.8767,-4.9321,-5.0746,-5.0811,-5.0617,-5.0131,-4.9386,-4.8706,-4.8026,-4.7249,-4.6892,-4.6892,-4.6407,-4.5565,-4.4399,-4.3913,-4.3202,-4.2365,-4.2174,-4.1948,-4.1686,-4.129,-4.0798,-4.0208,-4.0136,-3.9531,-3.8716,-3.8537,-3.7778,-3.6804,0.0,0.0,0.0,0.0,0.0,0.0,0.0,0.0,0.0,0.0,0.0,0.0,0.0,0.0,0.0,0.0,0.0,-1.7665,-1.8312,0.0,-2.0594,-2.1876,-2.396,-2.5545,-2.6485,-2.7947,-2.8837,-2.9121,-2.9924,-3.0284,-3.0284,-3.0699,-3.1086,-3.1502,-3.1502,-3.1751,-3.2138,-3.1695,-3.128,-3.0843,-2.9785,-2.8401,-2.6797,-2.5162,-2.3419,0.0,0.0,0.0,-2.0167,-1.9984,-2.0231,-2.0913,-2.2744,-2.4178,-2.5702,-2.8175,-2.9886,-3.1699,-3.4932,-3.768,-4.0197,-4.2755,-4.4327,-4.5316,-4.5491,-4.5403,-4.4949,-4.3685,-4.3102,-4.2528,-4.1485,-4.2188,-4.2789,-4.2501,-4.4148,-4.5186,-4.4527,-4.5487,-4.5973,-4.5266,-4.5756,-4.6285,-4.6649,-4.693,-4.7626,-4.8897,-4.8994,-4.9645,-5.1102,-5.1199,-5.0973,-5.0519,-4.9548,-4.8767,-4.8382,-4.7378,-4.6892,-4.6894,-4.5821,-4.485,-4.3977,-4.3331,-4.2719,-4.2109,-4.1851,-4.1555,-4.1158,-4.0718,-4.0305,-3.9884,-3.9743,-3.9288,-3.8721,-3.8617,-3.8022,-3.7248,0.0,0.0,0.0,0.0,0.0,0.0,0.0,0.0,0.0,0.0,0.0,0.0,0.0,0.0,0.0,0.0,0.0,0.0,-1.8183,0.0,0.0,-2.0908,-2.221,-2.3527,-2.4831,-2.5598,-2.6374,-2.7128,-2.7156,-2.7183,-2.7183,-2.7183,-2.7792,-2.8899,-2.8927,-2.9536,-3.0533,-2.9398,-2.8899,-2.8678,-2.6905,-2.5439,-2.425,-2.3064,0.0,0.0,0.0,0.0,-1.8278,-1.8495,-1.9262,-2.0465,-2.2257,-2.5023,-2.7888,-2.9273,-3.1685,-3.4395,-3.6687,-4.0445,-4.3927,-4.465,-4.5818,-4.6685,-4.6184,-4.5079,-4.3816,-4.2618,-4.1453,-4.0313,-3.933,-3.9378,-3.966,-3.9856,-4.1981,-4.3445,-4.294,-4.5133,-4.6206,-4.4787,-4.5903,-4.6829,-4.6829,-4.7198,-4.785,-4.8921,-4.9022,-4.9673,-5.1102,-5.1162,-5.1129,-5.1199,-4.9738,-4.8994,-4.8994,-4.757,-4.6825,-4.6793,-4.52,-4.4456,-4.4327,-4.265,-4.1752,-4.1555,-4.1189,-4.0851,-4.0409,-3.9814,-3.9427,-3.9211,-3.8877,-3.876,-3.8672,-3.8053,-3.7817,-3.7683,0.0,0.0,0.0,0.0,0.0,0.0,0.0,0.0,0.0,0.0,0.0,0.0,0.0,0.0,0.0,0.0,0.0,0.0,-1.7243,0.0,0.0,0.0,0.0,0.0,0.0,0.0,0.0,-2.3392,-2.3825,-2.4041,-2.4041,-2.415,-2.4368,-2.4667,-2.5073,-2.521,-2.5129,-2.5151,-2.4663,-2.3798,0.0,-2.242,-2.1261,0.0,0.0,0.0,0.0,0.0,-1.87,-1.9171,-2.117,-2.3762,-2.5372,-2.7954,-3.0777,-3.2736,-3.4928,-3.7406,-4.0676,-4.2743,-4.4413,-4.6128,-4.6854,-4.6622,-4.4868,-4.3764,-4.2345,-3.9715,-3.7986,-3.6698,-3.5774,-3.5591,-3.5857,-3.682,-3.8633,-4.0271,-4.1177,-4.326,-4.476,-4.4895,-4.5926,-4.6835,-4.7258,-4.741,-4.777,-4.8579,-4.8948,-4.9629,-5.0679,-5.0563,-5.0634,-5.0972,-4.9437,-4.8698,-4.8844,-4.7177,-4.5971,-4.5253,-4.4328,-4.3627,-4.3022,-4.1966,-4.129,-4.0987,-4.0783,-4.027,-3.9606,-3.9313,-3.8943,-3.8472,-3.8389,-3.8277,-3.8136,-3.8111,-3.7761,-3.7332,0.0,0.0,0.0,0.0,0.0,0.0,0.0,0.0,0.0,0.0,0.0,0.0,0.0,0.0,0.0,0.0,0.0,0.0,0.0,0.0,0.0,0.0,0.0,0.0,0.0,0.0,0.0,0.0,0.0,0.0,-2.1336,-2.141,-2.1569,-2.1835,-2.2159,-2.2266,-2.2211,-2.2215,0.0,0.0,0.0,0.0,0.0,0.0,0.0,0.0,0.0,0.0,0.0,-2.1518,-2.3763,-2.6291,-2.849,-3.1056,-3.355,-3.5396,-3.7805,-4.0402,-4.2807,-4.462,-4.6057,-4.6975,-4.6764,-4.5821,-4.382,-4.182,-3.9637,-3.6968,-3.4928,-3.345,-3.2724,-3.2809,-3.3451,-3.4797,-3.696,-3.8981,-4.0637,-4.2917,-4.4571,-4.4929,-4.5991,-4.6833,-4.7084,-4.7163,-4.7521,-4.8161,-4.8624,-4.9212,-4.9947,-4.9829,-4.9939,-5.0324,-4.9158,-4.8269,-4.7776,-4.648,-4.543,-4.4731,-4.397,-4.3212,-4.2389,-4.1322,-4.0581,-4.013,-3.9778,-3.9313,-3.8804,-3.8831,-3.8571,-3.8217,-3.8427,-3.8253,-3.7919,-3.8035,-3.7634,-3.71,0.0,0.0,0.0,0.0,0.0,0.0,0.0,0.0,0.0,0.0,0.0,0.0,0.0,0.0,0.0,0.0,0.0,0.0,0.0,0.0,0.0,0.0,0.0,0.0,0.0,0.0,0.0,0.0,0.0,0.0,0.0,0.0,0.0,0.0,0.0,0.0,0.0,0.0,0.0,0.0,0.0,0.0,0.0,0.0,0.0,0.0,0.0,0.0,0.0,0.0,-2.639,-2.8427,-3.152,-3.4147,-3.6322,-3.7861,-4.0478,-4.31,-4.4081,-4.6137,-4.7787,-4.7231,-4.6057,-4.4557,-4.2561,-3.9395,-3.6252,-3.4113,-3.1961,-3.0338,-3.0042,-3.0505,-3.1544,-3.3311,-3.587,-3.837,-4.0434,-4.3025,-4.4726,-4.4773,-4.6005,-4.6792,-4.6593,-4.6761,-4.7057,-4.7661,-4.7978,-4.8444,-4.8922,-4.8953,-4.9004,-4.9256,-4.8661,-4.7653,-4.624,-4.5547,-4.4986,-4.4479,-4.3646,-4.2853,-4.2095,-4.0868,-3.9913,-3.9252,-3.8855,-3.8481,-3.8225,-3.8474,-3.8484,-3.8342,-3.8718,-3.8524,-3.8018,-3.7934,-3.7569,-3.7074,0.0,0.0,0.0,0.0,0.0,0.0,0.0,0.0,0.0,0.0,-1.1324,-1.1795,0.0,0.0,0.0,0.0,0.0,0.0,0.0,0.0,0.0,0.0,0.0,0.0,0.0,-1.7248,-1.7321,-1.7321,-1.7321,0.0,0.0,0.0,0.0,0.0,0.0,0.0,0.0,0.0,0.0,0.0,0.0,0.0,0.0,0.0,0.0,0.0,0.0,0.0,0.0,0.0,-2.7639,-3.0582,-3.403,-3.6833,-3.9308,-4.1801,-4.3377,-4.4671,-4.6458,-4.729,-4.7515,-4.6877,-4.5588,-4.3499,-3.9772,-3.6425,-3.3305,-3.0511,-2.8092,-2.6728,-2.754,-2.7627,-2.8587,-3.1429,-3.3579,-3.5806,-3.841,-4.1299,-4.3383,-4.4078,-4.5652,-4.6622,-4.6519,-4.6533,-4.6578,-4.6506,-4.6564,-4.697,-4.7758,-4.7661,-4.7504,-4.7374,-4.7416,-4.6509,-4.4619,-4.4459,-4.3928,-4.2961,-4.2297,-4.1833,-4.1675,-4.0753,-3.9876,-3.9168,-3.945,-3.905,-3.8268,-3.8842,-3.8936,-3.8802,-3.8874,-3.8846,-3.8677,-3.8102,-3.7821,-3.7653,0.0,0.0,0.0,0.0,0.0,0.0,0.0,-1.0627,-1.0785,-1.0845,-1.1126,-1.1389,-1.1531,-1.1881,-1.2236,0.0,0.0,0.0,0.0,0.0,0.0,0.0,0.0,0.0,0.0,-1.674,-1.6803,-1.6803,0.0,-1.691,-1.691,-1.6931,-1.6952,-1.6973,-1.7231,-1.7205,0.0,0.0,0.0,0.0,0.0,0.0,0.0,0.0,0.0,0.0,0.0,0.0,0.0,0.0,-2.6853,-2.9918,-3.4686,-3.7646,-3.9883,-4.2319,-4.4048,-4.5403,-4.6726,-4.7342,-4.7373,-4.6326,-4.4427,-4.1693,-3.7731,0.0,0.0,-2.8212,-2.6182,-2.5208,-2.6269,-2.6919,-2.8127,-3.0572,-3.3073,-3.5536,-3.794,-4.0739,-4.2912,-4.3977,-4.5241,-4.5956,-4.5808,-4.5763,-4.5718,-4.5611,-4.5549,-4.5792,-4.6579,-4.6653,-4.6666,-4.6513,-4.6369,-4.5627,-4.4258,-4.3933,-4.3184,-4.2129,-4.1808,-4.1407,-4.0966,-4.0406,-3.9825,-3.9132,-3.9287,-3.9057,-3.8601,-3.925,-3.9463,-3.9408,-3.9704,-3.962,-3.9352,-3.9002,-3.8468,-3.785,0.0,0.0,0.0,0.0,0.0,0.0,0.0,-1.0645,-1.0939,-1.1041,-1.1141,-1.1202,-1.1225,-1.1267,-1.143,0.0,0.0,0.0,0.0,0.0,0.0,0.0,0.0,0.0,0.0,0.0,0.0,-1.6547,-1.6675,0.0,0.0,0.0,0.0,0.0,-1.6825,-1.6799,-1.6799,-1.6799,0.0,0.0,0.0,-1.6867,0.0,0.0,0.0,0.0,0.0,0.0,0.0,0.0,-2.5122,-2.8042,-3.3146,-3.6625,-3.9219,-4.1526,-4.356,-4.5256,-4.6208,-4.6883,-4.6975,-4.5778,-4.3172,-3.9925,-3.6165,-3.2377,-2.893,-2.6445,-2.4839,-2.4204,-2.5288,-2.6441,-2.7818,-2.9813,-3.2511,-3.5122,-3.7137,-3.9902,-4.2153,-4.3291,-4.444,0.0,-4.4972,-4.4954,-4.4954,-4.4954,-4.4769,-4.4954,-4.5566,-4.5821,-4.5911,-4.5927,-4.561,-4.4967,-4.4007,-4.3499,-4.2649,-4.1493,-4.1493,-4.1152,-4.0459,-4.0321,-3.9898,-3.9332,-3.9281,-3.9211,-3.9155,-3.9732,-3.9985,-4.0013,-4.0491,-4.0407,-3.9957,-3.9845,-3.9058,-3.8074,0.0,0.0,0.0,0.0,0.0,0.0,0.0,-1.0645,-1.0918,-1.0939,-1.1292,-1.139,-1.0978,-1.0785,-1.0702,0.0,0.0,0.0,0.0,0.0,0.0,0.0,0.0,0.0,0.0,0.0,0.0,-1.6066,-1.6088,0.0,0.0,0.0,0.0,0.0,0.0,-1.6543,-1.6543,-1.6543,0.0,0.0,0.0,0.0,0.0,0.0,0.0,0.0,0.0,0.0,-1.9216,0.0,0.0,-2.5538,-2.8367,-3.2821,-3.7543,-4.0177,0.0,0.0,-4.5525,-4.6103,-4.5981,-4.5251,-4.2349,-3.8707,-3.5145,0.0,-2.7209,-2.4949,-2.3384,-2.278,-2.4022,-2.481,-2.6047,-2.8464,-3.0516,-3.2483,-3.4309,-3.7409,-3.9867,-4.0886,0.0,0.0,-4.4434,-4.4443,-4.4443,-4.4443,-4.4472,-4.4537,-4.489,-4.4936,-4.5,-4.523,-4.5144,-4.4452,-4.3032,-4.2975,-4.2219,-4.0773,-4.0773,-4.0745,-4.0646,-4.0646,-4.0337,-3.9774,-4.0294,-4.021,-3.9732,-4.035,-4.0603,-4.0603,-4.0688,-4.0659,-4.0547,-3.9985,-3.9408,-3.8733,0.0,0.0,0.0,0.0,0.0,0.0,-1.0157,-1.0755,-1.1159,-1.1075,-1.1458,-1.1573,-1.1133,-1.0794,-1.0566,-1.0429,0.0,0.0,0.0,0.0,0.0,0.0,0.0,0.0,0.0,0.0,-1.4977,-1.515,-1.5547,0.0,0.0,0.0,0.0,0.0,0.0,-1.6436,-1.6411,-1.6149,0.0,0.0,0.0,0.0,0.0,0.0,0.0,0.0,0.0,0.0,-1.8079,-1.9159,-2.0553,0.0,-2.4757,-2.7563,0.0,0.0,-3.9043,-4.0788,-4.3046,-4.4048,-4.4148,-4.2947,-4.0599,-3.7475,-3.3416,0.0,-2.6876,-2.4626,-2.3142,-2.2587,-2.3853,-2.4585,-2.571,-2.7819,-2.9701,-3.1555,-3.3375,-3.6099,-3.8448,-3.9999,-4.1533,-4.2829,-4.375,-4.3863,-4.4003,-4.4369,-4.4425,-4.4472,-4.4565,-4.4565,-4.4583,-4.4676,-4.4676,-4.4037,-4.2705,-4.2749,-4.2012,-4.0688,-4.0688,-4.0688,-4.0688,-4.0688,-4.0575,-4.035,-4.0603,-4.0547,-4.035,-4.0603,-4.0688,-4.0688,-4.0688,-4.0688,-4.0631,-4.0013,-3.9436,-3.8818,0.0,0.0,0.0,0.0,0.0,-1.0059,-1.0059,-1.069,-1.1166,-1.1214,-1.1457,-1.1552,-1.123,-1.0832,-1.0517,-1.0215,-1.0254,0.0,0.0,0.0,0.0,0.0,0.0,0.0,0.0,0.0,-1.4177,-1.4329,-1.5011,-1.5467,0.0,0.0,-1.5935,-1.6091,0.0,0.0,0.0,0.0,0.0,0.0,0.0,0.0,0.0,0.0,0.0,0.0,0.0,0.0,0.0,0.0,0.0,0.0,0.0,0.0,0.0,0.0,-3.5566,-3.752,-3.9912,-4.1163,-4.1507,-4.0199,-3.8091,-3.5443,0.0,0.0,-2.6122,-2.4362,-2.2993,-2.254,-2.3853,-2.4444,-2.54,-2.7482,-2.9026,-3.0628,-3.2511,-3.4899,-3.7186,-3.9002,-4.0491,-4.1896,-4.3357,-4.3666,-4.3947,-4.4369,-4.4425,-4.4425,-4.4425,-4.4425,-4.4425,-4.4425,-4.4425,-4.3835,-4.2598,-4.257,-4.1952,-4.0688,-4.0688,-4.0688,-4.0688,-4.0688,-4.0688,-4.0688,-4.0688,-4.0688,-4.0688,-4.0688,-4.0688,-4.0688,-4.0688,-4.0688,-4.0631,-4.0013,-3.9436,-3.8818,0.0,0.0,0.0,0.0,0.0,0.0,-1.0,-1.036,-1.0738,-1.1135,-1.1255,-1.1296,-1.1192,-1.0832,-1.0455,-1.0038,-1.0,0.0,0.0,0.0,0.0,0.0,0.0,0.0,0.0,0.0,-1.3519,-1.3718,-1.4383,-1.4834,-1.5108,-1.5379,-1.5603,-1.5802,0.0,0.0,0.0,0.0,0.0,0.0,0.0,0.0,0.0,0.0,0.0,0.0,0.0,0.0,0.0,0.0,0.0,0.0,0.0,0.0,0.0,0.0,-3.1677,-3.3989,-3.6324,-3.7477,-3.7898,-3.7123,-3.4867,-3.2321,-3.0199,-2.7171,-2.4628,-2.3937,-2.2822,-2.2421,-2.3828,-2.4106,-2.4922,-2.7397,-2.8296,0.0,-3.1246,-3.367,-3.5892,-3.7709,-3.9564,-4.1446,-4.3301,-4.4059,-4.4397,-4.4425,-4.4425,-4.4425,-4.4425,-4.4425,-4.4425,-4.4425,-4.4425,-4.3835,-4.2598,-4.257,-4.1952,-4.0688,-4.0688,-4.0688,-4.0688,-4.0688,-4.0688,-4.0688,-4.0688,-4.0688,-4.0688,-4.0688,-4.0688,-4.0688,-4.0688,-4.0688,-4.0631,-4.0013,-3.9436,-3.8818,0.0,0.0,0.0,0.0,0.0,0.0,0.0,-1.0199,-1.0496,-1.0563,-1.0845,-1.09,-1.0619,-1.047,-1.0229,-0.9839,-0.9921,0.0,0.0,0.0,0.0,0.0,0.0,0.0,0.0,0.0,-1.2172,-1.2613,-1.3409,-1.4113,-1.4697,-1.4949,-1.5221,-1.547,-1.5693,-1.5848,0.0,0.0,0.0,0.0,0.0,0.0,0.0,0.0,0.0,0.0,0.0,0.0,0.0,0.0,0.0,0.0,0.0,0.0,0.0,-2.3,0.0,0.0,-3.1716,-3.3224,-3.3952,-3.3253,-3.2139,-3.0516,-2.8033,-2.5994,-2.4357,-2.3252,-2.2422,-2.2114,-2.2967,-2.3596,-2.4623,-2.6637,-2.7591,-2.8858,-3.1162,-3.2876,-3.4731,-3.7007,-4.0069,-4.2233,-4.2823,-4.3807,-4.4425,-4.4425,-4.4425,-4.4425,-4.4425,-4.4425,-4.4425,-4.4425,-4.4003,-4.3385,-4.2598,-4.2149,-4.1502,-4.0688,-4.0688,-4.0688,-4.0688,-4.0688,-4.0688,-4.0688,-4.0688,-4.0688,-4.0688,-4.0688,-4.0688,-4.0688,-4.0688,-4.0688,-4.0631,-4.0013,-3.9436,-3.8818,0.0,0.0,0.0,0.0,0.0,0.0,0.0,-0.9986,-1.0169,-1.0293,-1.0404,-1.0422,-1.0309,-1.0162,-0.9978,-0.9721,-0.9822,0.0,0.0,0.0,0.0,0.0,0.0,0.0,0.0,-1.0941,-1.1502,-1.1845,-1.2785,-1.3563,-1.4165,-1.4374,-1.4697,-1.5085,-1.5222,-1.538,0.0,0.0,0.0,0.0,0.0,0.0,-1.6479,0.0,0.0,0.0,0.0,0.0,0.0,0.0,0.0,0.0,0.0,0.0,0.0,0.0,-2.1749,-2.4367,0.0,-2.884,-2.9462,-2.9191,-2.8498,0.0,-2.5791,-2.4477,-2.3463,-2.272,-2.2086,-2.1994,-2.2898,-2.3444,-2.4465,-2.6522,-2.7471,-2.8814,-3.1271,-3.2828,-3.4836,-3.7805,-4.0684,-4.2519,-4.2772,-4.3788,-4.4425,-4.4425,-4.4425,-4.4425,-4.4425,-4.42,-4.4059,-4.4059,-4.3694,-4.3076,-4.2233,-4.1812,-4.1306,-4.0688,-4.0688,-4.0688,-4.0688,-4.0688,-4.0688,-4.0688,-4.0688,-4.0688,0.0,-4.0688,-4.0688,-4.0688,-4.0688,-4.0688,-4.0631,-4.0013,-3.9577,-3.9127,0.0,0.0,0.0,0.0,0.0,0.0,0.0,-0.9703,-0.9831,-1.0199,-0.9923,-0.985,-1.0217,-0.9923,-0.9703,-0.9703,0.0,0.0,0.0,0.0,0.0,0.0,0.0,0.0,0.0,-1.0862,-1.1349,-1.1387,-1.243,-1.313,-1.3573,-1.3692,-1.4069,-1.4628,-1.4581,-1.4789,-1.5151,-1.445,-1.4557,-1.5129,-1.4839,-1.536,0.0,0.0,0.0,0.0,0.0,0.0,0.0,0.0,0.0,0.0,0.0,0.0,0.0,0.0,0.0,0.0,0.0,-2.4524,-2.4851,-2.5213,-2.4515,-2.3714,-2.3579,-2.2803,0.0,-2.22,-2.1918,-2.2013,-2.3236,-2.3618,-2.4473,-2.6819,-2.7815,-2.9085,-3.1461,-3.3468,-3.6006,-3.9526,-4.1268,-4.2405,-4.3,-4.3845,-4.435,-4.435,-4.435,-4.435,-4.435,-4.3788,-4.3424,-4.3395,-4.3339,-4.275,-4.1615,-4.1587,-4.125,-4.0688,-4.0688,-4.0688,-4.0688,-4.0688,-4.0688,-4.0688,-4.0688,-4.0688,-4.0688,-4.0688,-4.0688,-4.0688,-4.0688,-4.0688,-4.0631,-4.0069,-3.9816,-3.9592,0.0,0.0,0.0,0.0,0.0,0.0,0.0,0.0,0.0,0.0,-0.9758,-0.9739,-0.9831,-0.9758,-0.9703,0.0,0.0,0.0,0.0,0.0,0.0,0.0,0.0,0.0,-0.9782,-1.0328,-1.0803,-1.1167,-1.1903,-1.2543,-1.3146,-1.3386,-1.3692,-1.4022,-1.4116,-1.4086,-1.4005,-1.3979,-1.4234,-1.469,-1.4845,-1.5417,0.0,0.0,0.0,0.0,-1.6479,-1.65,0.0,0.0,0.0,0.0,0.0,0.0,0.0,0.0,-1.7512,-1.8005,-1.9774,0.0,-2.2618,-2.3284,-2.3204,-2.2911,0.0,-2.2137,-2.1816,-2.1389,-2.1674,-2.2069,-2.2392,-2.3741,-2.5162,-2.6289,-2.7837,-2.9582,-3.1544,-3.4609,-3.7316,-3.9112,-4.0841,-4.2131,-4.2749,-4.3424,-4.3804,-4.3804,-4.3804,-4.3804,-4.3804,-4.3249,-4.2722,-4.2223,-4.1751,-4.1541,-4.1615,-4.1137,-4.0828,-4.0688,-4.0688,-4.0688,-4.0688,-4.0688,-4.0688,-4.0688,-4.0688,-4.0688,-4.0688,-4.0688,-4.0688,-4.0688,-4.0688,-4.0688,-4.0688,-4.0547,-4.0182,-3.9676,0.0,0.0,0.0,0.0,0.0,0.0,0.0,0.0,0.0,0.0,0.0,0.0,0.0,0.0,0.0,0.0,0.0,0.0,0.0,0.0,0.0,0.0,0.0,-0.9795,-0.9978,-1.0388,-1.0838,-1.1287,-1.1977,-1.2567,-1.3051,-1.3466,-1.3671,-1.3809,-1.3823,-1.3733,-1.3595,-1.3651,-1.3983,-1.4539,-1.4701,0.0,0.0,0.0,0.0,0.0,-1.6328,-1.6392,0.0,-1.674,-1.6846,-1.6931,0.0,0.0,0.0,0.0,-1.7199,-1.746,-1.8584,-1.9467,-2.0327,-2.1534,-2.1639,-2.1401,-2.1349,-2.1399,-2.1345,-2.1027,-2.1526,-2.2188,-2.2723,-2.3958,-2.5364,-2.6769,-2.8442,-3.0624,-3.3594,-3.5949,-3.803,-3.9809,-4.1013,-4.1993,-4.2873,-4.3326,-4.3586,-4.3586,-4.3586,-4.3476,-4.3274,-4.2694,-4.204,-4.1404,-4.0797,-4.0625,-4.0845,-4.0554,-4.0386,-4.0386,-4.0386,-4.0386,-4.0386,-4.0386,-4.0386,-4.0386,-4.0386,-4.0386,-4.0386,-4.0386,-4.0386,-4.0386,-4.0386,-4.0386,-4.0386,-4.0386,-4.0191,-3.9829,0.0,0.0,0.0,0.0,0.0,0.0,0.0,0.0,0.0,0.0,0.0,0.0,0.0,0.0,0.0,0.0,0.0,0.0,0.0,0.0,0.0,0.0,0.0,-0.9942,-1.0291,-1.0732,-1.1173,-1.1572,-1.233,-1.2865,-1.3174,-1.3647,-1.3827,-1.3756,-1.3585,-1.3501,-1.3529,-1.3413,-1.3774,-1.4399,-1.4472,0.0,0.0,0.0,0.0,0.0,0.0,0.0,0.0,-1.6568,-1.674,-1.6867,-1.6947,0.0,0.0,0.0,0.0,0.0,-1.8584,-1.8584,-1.8636,-2.0386,-2.0517,-2.0309,-2.0831,0.0,0.0,-2.114,-2.1744,-2.2591,-2.3602,-2.4452,-2.5701,-2.7807,-2.9602,-3.2098,-3.5873,-3.7106,-3.8461,-4.061,-4.1194,-4.1852,-4.3006,-4.328,-4.3375,-4.3375,-4.3266,-4.3018,-4.2571,-4.1883,-4.1205,-4.0683,-4.0107,-3.9777,-3.9777,-3.9908,-3.9996,-3.9996,-3.9996,-3.9996,-3.9996,-3.9996,-3.9996,-3.9996,-3.9996,0.0,-3.9996,-3.9996,-3.9996,-3.9996,-3.9996,-3.9996,-3.9996,-3.9996,-3.9996,-3.9913,0.0,0.0,0.0,0.0,0.0,0.0,0.0,0.0,0.0,0.0,0.0,0.0,0.0,0.0,0.0,0.0,0.0,0.0,0.0,0.0,0.0,0.0,-1.0199,-1.0257,-1.0291,-1.1026,-1.1614,-1.2018,-1.2459,-1.2961,-1.3447,-1.3646,-1.3669,-1.3547,-1.3165,-1.3065,-1.3186,-1.3229,-1.349,-1.3952,-1.4262,0.0,0.0,0.0,0.0,0.0,0.0,0.0,0.0,-1.6259,-1.6432,-1.6607,-1.6905,0.0,0.0,0.0,0.0,0.0,-1.8584,-1.8845,-1.9211,-2.0936,-2.1695,-2.2009,-2.2113,-2.2166,0.0,0.0,-2.3088,-2.3991,-2.4149,-2.5985,-2.7754,-2.8632,-3.1609,-3.4229,-3.5426,-3.713,-3.8715,-3.9841,-4.0507,-4.1214,-4.2204,-4.2311,-4.2311,-4.2311,-4.1855,-4.1534,-4.1453,-4.0408,-3.9838,-3.9712,-3.9122,-3.8827,-3.8827,-3.9601,-3.9996,-3.9996,-3.9996,-3.9996,-3.9996,-3.9996,-3.9996,-3.9996,-3.9996,-3.9996,-3.9996,-3.9996,-3.9996,-3.9996,-3.9996,-3.9996,-3.9996,-3.9996,-3.9996,-3.9913,0.0,0.0,0.0,0.0,0.0,0.0,0.0,0.0,0.0,0.0,0.0,0.0,0.0,0.0,0.0,0.0,0.0,0.0,0.0,0.0,0.0,-1.0291,-1.0713,-1.0952,-1.0952,-1.132,-1.1816,-1.2422,-1.2827,-1.3276,-1.3719,-1.3716,-1.3635,-1.3496,-1.3066,-1.292,-1.3012,-1.3113,-1.331,-1.3621,0.0,0.0,0.0,0.0,0.0,0.0,0.0,0.0,0.0,0.0,-1.6064,-1.6284,-1.6539,0.0,0.0,0.0,0.0,0.0,-1.8432,-1.8949,-1.957,-2.1302,-2.1823,-2.2009,-2.2323,-2.2637,-2.2818,-2.2844,-2.3817,-2.4872,-2.5476,-2.6769,-2.8467,-3.0738,-3.3116,-3.5112,-3.6465,-3.7702,-3.8899,-3.994,-4.0582,-4.117,-4.1559,-4.1612,-4.1479,-4.1208,-4.0941,-4.0648,-4.028,-3.9748,-3.9367,-3.9002,-3.8735,-3.8442,-3.8123,-3.8863,-3.9247,-3.9247,-3.9247,-3.9247,-3.9247,-3.9247,-3.9247,-3.9247,0.0,-3.9247,-3.9247,-3.9247,-3.9247,-3.9247,-3.9247,-3.9247,-3.9247,-3.9247,-3.9247,-3.9166,0.0,0.0,0.0,0.0,0.0,0.0,0.0,0.0,0.0,0.0,0.0,0.0,0.0,0.0,0.0,0.0,0.0,0.0,0.0,0.0,-1.0383,-1.0566,-1.1173,-1.148,-1.148,-1.1663,-1.2128,-1.2845,-1.3222,-1.3645,-1.3996,-1.3743,-1.3566,-1.3496,-1.3066,-1.2915,-1.2915,-1.3012,-1.3162,-1.3362,0.0,0.0,0.0,0.0,0.0,0.0,0.0,0.0,0.0,0.0,0.0,0.0,0.0,0.0,0.0,-1.6714,-1.6778,-1.7054,-1.8206,-1.8792,-1.9556,-2.1342,-2.1842,-2.2033,-2.2765,-2.3391,-2.3835,-2.3995,-2.4992,-2.6065,-2.6955,-2.7889,-2.9572,-3.283,-3.4386,-3.5764,-3.7405,-3.8184,-3.8929,-3.992,-4.0452,-4.0723,-4.0808,-4.0808,-4.0622,-4.0245,-4.0059,-3.9794,-3.9342,-3.921,-3.8865,-3.8235,-3.8209,-3.7917,-3.7307,-3.7758,-3.8166,-3.8389,-3.8522,-3.8602,-3.8602,-3.8602,-3.8602,-3.8602,-3.8602,-3.8602,-3.8602,-3.8602,-3.8602,-3.8602,-3.8602,-3.8557,-3.8512,-3.8466,-3.8395,-3.8342,0.0,0.0,0.0,0.0,0.0,0.0,0.0,0.0,0.0,0.0,0.0,0.0,0.0,0.0,0.0,0.0,0.0,0.0,0.0,0.0,-1.0622,-1.1393,-1.1485,-1.148,-1.148,-1.2239,-1.2827,-1.3241,-1.3644,-1.4006,-1.4261,-1.3628,-1.3381,-1.3496,-1.3066,-1.2915,-1.2915,-1.2895,-1.3041,-1.3242,-1.3362,0.0,0.0,0.0,0.0,0.0,0.0,0.0,0.0,0.0,0.0,0.0,0.0,0.0,-1.6265,-1.6324,-1.6432,-1.6794,-1.7926,-1.8253,-1.8806,-2.0995,-2.2212,-2.3194,-2.4283,-2.5075,-2.5772,-2.6353,-2.7373,-2.8185,-2.8289,-3.0059,-3.2084,-3.3979,-3.5473,-3.6603,-3.7334,-3.8095,-3.8751,-3.9157,-3.9216,-3.9359,-3.9673,-3.9725,-3.9699,-3.9647,-3.915,-3.8809,-3.8757,-3.8286,-3.7736,-3.7135,-3.7108,-3.682,-3.6219,-3.6245,-3.6779,-3.775,-3.8336,-3.8602,-3.8602,-3.8602,-3.8602,-3.8602,-3.8602,-3.8602,-3.8602,-3.8602,-3.8602,-3.8602,-3.8602,-3.844,-3.8213,-3.7959,-3.7867,-3.7841,0.0,0.0,0.0,0.0,0.0,0.0,0.0,0.0,0.0,0.0,0.0,0.0,0.0,0.0,0.0,0.0,0.0,0.0,0.0,0.0,-1.1191,-1.1504,-1.1742,-1.1871,-1.1871,-1.2165,-1.2514,-1.2937,-1.3396,-1.3661,-1.3666,-1.342,-1.3233,-1.3105,-1.2974,-1.2915,-1.2915,-1.2988,-1.3089,-1.3218,-1.3338,-1.3505,0.0,0.0,0.0,0.0,0.0,0.0,0.0,0.0,-1.4628,-1.4903,-1.5153,-1.5424,-1.5671,-1.5822,-1.5888,-1.6197,-1.7385,-1.7702,-1.8215,-2.0395,-2.1551,-2.261,-2.4473,-2.5993,-2.7198,-2.7765,-2.8912,-2.9902,-3.0414,-3.1836,-3.3378,-3.4737,-3.5686,-3.6595,-3.7565,-3.8287,-3.8707,-3.8851,-3.9192,-3.9302,-3.9076,-3.905,-3.8919,-3.8579,-3.7978,-3.7639,-3.7639,-3.709,-3.6671,-3.6462,-3.6436,-3.6175,-3.56,-3.594,-3.6131,-3.62,-3.6779,-3.7042,-3.7042,-3.7042,-3.7253,-3.7595,-3.7595,-3.7806,-3.8175,-3.8175,-3.8057,-3.7874,-3.7572,-3.7361,-3.7222,-3.6989,-3.6943,-3.6943,0.0,0.0,0.0,0.0,0.0,0.0,0.0,0.0,0.0,0.0,0.0,0.0,0.0,0.0,0.0,0.0,0.0,0.0,-1.1044,-1.1357,-1.1559,-1.1663,-1.1963,-1.211,-1.211,-1.216,-1.2369,-1.2776,-1.3231,-1.337,-1.3292,-1.3208,-1.3089,-1.2915,-1.2915,-1.2939,-1.2964,-1.3061,-1.3162,-1.3266,-1.3362,-1.3481,0.0,0.0,0.0,0.0,0.0,0.0,0.0,0.0,-1.4257,-1.4511,-1.4697,-1.4949,-1.5198,-1.5401,-1.5468,-1.5748,-1.6955,-1.7385,-1.8054,-2.0156,-2.1446,-2.2771,-2.4987,-2.6681,-2.8012,-2.8886,-3.0216,-3.1383,-3.2031,-3.2953,-3.4007,-3.515,-3.5799,-3.6571,-3.7606,-3.8074,-3.8356,-3.8449,-3.8815,-3.8919,-3.8501,-3.8292,-3.8031,-3.7639,-3.7063,-3.6724,-3.6724,-3.6332,-3.6018,-3.5861,-3.5861,-3.5574,-3.5025,-3.5391,-3.5391,-3.5025,-3.5391,-3.5757,-3.6096,-3.6096,-3.6436,-3.7011,-3.7011,-3.7351,-3.79,-3.7808,-3.7448,-3.6878,-3.6518,-3.6185,-3.5965,-3.5904,-3.5806,-3.5658,0.0,0.0,0.0,0.0,0.0,0.0,0.0,0.0,0.0,0.0,0.0,0.0,0.0,0.0,0.0,0.0,0.0,0.0,-1.1485,-1.1522,-1.1663,-1.2092,-1.211,-1.211,-1.211,-1.2234,-1.2495,-1.2905,-1.3163,-1.3292,-1.3272,-1.3017,-1.2915,-1.2915,-1.2915,-1.2988,-1.3109,-1.3109,-1.3234,-1.3386,-1.3386,-1.3481,-1.3597,0.0,0.0,0.0,0.0,0.0,0.0,0.0,-1.3975,-1.4233,-1.435,-1.4628,-1.4926,-1.5062,-1.5199,-1.5521,-1.6689,-1.7396,-1.8289,-2.0358,-2.2178,-2.4041,-2.6097,-2.7198,-2.8188,-2.9782,-3.1405,-3.2599,-3.2848,-3.3325,-3.4067,-3.5219,-3.5904,-3.6559,-3.7381,-3.7505,-3.7598,-3.7854,-3.79,-3.79,-3.7874,-3.7351,-3.6985,-3.6985,-3.6436,-3.6096,-3.6096,-3.6096,-3.5835,-3.5312,-3.5286,-3.4999,-3.4397,-3.4397,-3.4397,-3.4397,-3.4397,-3.4999,-3.6096,-3.6096,-3.641,-3.6985,-3.6985,-3.7325,-3.7854,-3.7598,-3.6729,-3.5579,-3.5588,-3.5085,-3.4433,-3.4655,-3.4463,-3.4077,0.0,0.0,0.0,0.0,0.0,0.0,0.0,0.0,0.0,0.0,0.0,0.0,0.0,0.0,0.0,0.0,0.0,0.0,-1.1908,-1.1926,-1.1981,-1.2092,-1.211,-1.216,-1.2258,-1.2455,-1.2635,-1.2769,-1.2844,-1.2943,-1.3017,-1.293,-1.3047,-1.3301,-1.3032,-1.3121,-1.3501,-1.3282,-1.3262,-1.3409,-1.3501,-1.3573,-1.3597,0.0,0.0,0.0,0.0,0.0,0.0,0.0,0.0,0.0,-1.4114,-1.4303,-1.4581,-1.4697,-1.4834,-1.5199,-1.6274,-1.7042,-1.7997,-2.0056,-2.173,-2.3491,-2.5498,-2.7688,-2.9925,-3.2045,-3.3015,-3.3449,-3.3271,-3.3822,-3.4432,-3.4855,-3.536,-3.6008,-3.6845,-3.6968,-3.6908,-3.6799,-3.6773,-3.6683,-3.6475,-3.6267,-3.6207,-3.6384,-3.5861,-3.5547,-3.5547,-3.5129,-3.4816,-3.4659,-3.4533,-3.437,-3.4189,-3.4021,-3.3937,-3.3937,-3.3937,-3.4286,-3.4894,-3.4894,-3.5148,-3.5522,-3.5522,-3.6004,-3.6728,-3.6151,-3.5336,-3.4403,-3.3926,-3.355,-3.3336,-3.322,-3.3078,-3.296,0.0,0.0,0.0,0.0,0.0,0.0,0.0,0.0,0.0,0.0,0.0,0.0,0.0,0.0,0.0,0.0,0.0,0.0,0.0,-1.211,-1.211,-1.211,-1.2141,-1.2283,-1.2455,-1.2627,-1.2725,-1.2774,-1.2774,-1.2822,-1.2915,-1.3047,-1.3262,-1.3496,-1.3292,-1.3431,-1.3776,-1.3419,-1.3362,-1.3501,-1.3573,-1.3597,-1.3597,0.0,0.0,0.0,0.0,0.0,0.0,0.0,0.0,0.0,-1.3997,-1.4163,-1.4419,-1.4557,-1.483,-1.5283,-1.6171,-1.7322,-1.8736,-2.0549,-2.2455,-2.4522,-2.6955,-2.9056,-3.1032,-3.2613,-3.3399,-3.3706,-3.3399,-3.3879,-3.4311,-3.4135,-3.4579,-3.5068,-3.5447,-3.5587,-3.56,-3.5547,-3.5658,-3.5666,-3.5531,-3.53,-3.5259,-3.5478,-3.5003,-3.4666,-3.4666,-3.4121,-3.3809,-3.3809,-3.3395,-3.3183,-3.3183,-3.3164,-3.314,-3.314,-3.3327,-3.3598,-3.3852,-3.4063,-3.4331,-3.464,-3.4696,-3.4978,-3.534,-3.4743,-3.3915,-3.3085,-3.2722,-3.2418,-3.2183,-3.2183,-3.2089,-3.1903,0.0,0.0,0.0,0.0,0.0,0.0,0.0,0.0,0.0,0.0,0.0,0.0,0.0,0.0,0.0,0.0,0.0,0.0,0.0,0.0,-1.211,-1.2135,-1.2258,-1.2455,-1.27,-1.27,-1.2774,-1.2915,-1.2915,-1.2915,-1.2915,-1.3301,-1.3535,-1.3555,-1.3663,-1.379,-1.3937,-1.3561,-1.3481,-1.3597,-1.3597,-1.3597,-1.3597,-1.3597,0.0,0.0,0.0,0.0,0.0,0.0,0.0,0.0,-1.3973,-1.4185,-1.4396,-1.4534,-1.4983,-1.5618,-1.6237,-1.8007,-2.0014,-2.1527,-2.3948,-2.6657,-2.9504,-3.079,-3.1483,-3.1967,-3.2817,-3.3387,-3.3098,-3.348,-3.3695,-3.3119,-3.355,-3.3883,-3.3633,-3.3744,-3.3949,-3.4127,-3.4304,-3.4525,-3.4698,-3.4262,-3.402,-3.4237,-3.3726,-3.3445,-3.3445,-3.2976,-3.272,-3.272,-3.2031,-3.1655,-3.1655,-3.1913,-3.2039,-3.2039,-3.2546,-3.2728,-3.2753,-3.336,-3.3793,-3.4091,-3.4175,-3.4057,-3.371,-3.3325,-3.2599,-3.1713,-3.1903,-3.1506,-3.0996,-3.1456,-3.1341,-3.0904,0.0,0.0,0.0,0.0,0.0,0.0,0.0,0.0,0.0,0.0,0.0,0.0,0.0,0.0,0.0,0.0,0.0,0.0,0.0,0.0,-1.216,-1.2258,-1.248,-1.2627,-1.27,-1.2798,-1.2871,-1.2915,-1.2915,-1.2915,-1.2915,-1.3301,-1.3665,-1.3958,-1.3781,-1.3949,-1.4333,-1.3679,-1.3481,-1.3597,-1.3597,-1.3597,-1.3597,-1.3597,-1.3597,0.0,0.0,0.0,0.0,0.0,0.0,0.0,-1.3834,-1.4022,-1.4257,-1.428,-1.4794,-1.5495,-1.6137,-1.7847,-1.9871,-2.1472,-2.4728,-2.7874,-2.932,-3.0399,-3.1228,-3.1761,-3.2182,-3.2323,-3.1856,-3.2371,-3.2676,-3.211,-3.2487,-3.2865,-3.2864,-3.2887,-3.2767,-3.2361,-3.2022,-3.1837,-3.1821,-3.1327,-3.1203,-3.1597,-3.1498,-3.1423,-3.1423,-3.1299,-3.1249,-3.1249,-3.0712,-3.0455,-3.0455,-3.02,-3.0103,-3.0103,-3.0587,-3.0806,-3.085,-3.2284,-3.2773,-3.2504,-3.28,-3.253,-3.1899,-3.2057,-3.1641,-3.0854,-3.0674,-3.0514,-3.0399,-3.0514,-3.0354,-3.0148,0.0,0.0,0.0,0.0,0.0,0.0,0.0,0.0,0.0,0.0,0.0,0.0,0.0,0.0,0.0,0.0,0.0,0.0,0.0,0.0,0.0,-1.248,-1.2627,-1.2725,-1.2774,-1.2847,-1.2915,-1.2915,-1.3086,-1.3184,-1.3184,-1.3613,-1.4016,-1.4434,-1.4189,-1.4234,-1.4453,-1.3793,-1.3549,-1.3597,-1.3597,-1.3597,-1.3597,-1.3597,-1.3597,-1.3597,-1.3597,0.0,0.0,0.0,0.0,0.0,0.0,0.0,-1.4116,-1.4186,-1.4675,-1.5326,-1.5987,-1.7788,-2.0136,-2.2983,-2.5876,-2.8241,-2.912,-2.9897,-3.0536,-3.0647,-3.1363,-3.1852,-3.1457,-3.1712,-3.176,-3.1112,-3.125,-3.132,-3.0836,-3.0836,-3.0742,-3.0186,-3.0041,-2.998,-3.0,-2.9782,-2.9785,-3.0163,-3.0163,-3.0163,-3.0163,-2.9922,-2.9777,-2.9777,-2.9165,-2.884,-2.884,-2.8808,-2.8799,-2.8799,-2.9293,-2.9439,-2.9375,-3.0981,-3.1416,-3.0958,-3.117,-3.0874,-3.0252,-3.0536,-3.0468,-3.008,-2.9943,-2.9852,-2.9852,-2.9852,-2.9806,-2.9691,0.0,0.0,0.0,0.0,0.0,0.0,0.0,0.0,0.0,0.0,0.0,0.0,0.0,0.0,0.0,0.0,0.0,0.0,0.0,0.0,0.0,-1.2676,-1.2725,-1.2774,-1.2915,-1.2915,-1.2915,-1.2915,-1.3301,-1.3555,-1.3607,-1.4016,-1.4434,-1.4821,-1.4606,-1.4513,-1.4506,-1.3867,-1.3597,-1.3597,-1.3597,-1.3597,-1.3597,-1.3597,-1.3597,-1.3597,-1.3597,-1.3597,-1.3597,-1.3597,0.0,0.0,0.0,0.0,-1.3997,-1.4116,-1.4579,-1.5203,-1.5835,-1.7817,-2.0668,-2.4485,-2.6588,-2.7924,-2.8671,-2.9262,-2.958,-2.933,-3.0419,-3.1359,-3.1122,-3.1074,-3.0868,-3.0137,-3.0047,-2.9687,-2.8746,-2.8723,-2.8654,-2.8226,-2.8243,-2.8371,-2.8605,-2.8537,-2.8595,-2.8873,-2.885,-2.885,-2.885,-2.8454,-2.8244,-2.8244,-2.7538,-2.7144,-2.7144,-2.7391,-2.7512,-2.7512,-2.8034,-2.8243,-2.816,-2.9395,-2.9755,-2.9496,-2.9556,-2.933,-2.8924,-2.924,-2.9373,-2.9373,-2.9463,-2.9485,-2.9485,-2.9485,-2.9485,-2.9439,0.0,0.0,0.0,0.0,0.0,0.0,0.0,0.0,0.0,0.0,0.0,0.0,0.0,0.0,0.0,0.0,0.0,0.0,-1.211,0.0,0.0,-1.27,-1.2798,-1.2871,-1.2915,-1.2915,-1.2915,-1.2915,-1.3301,-1.3665,-1.4036,-1.4492,-1.481,-1.496,-1.4633,-1.4592,-1.4716,-1.394,-1.3597,-1.3597,-1.3597,-1.3597,-1.3597,-1.3597,-1.3597,-1.3597,-1.3597,-1.3597,-1.3597,-1.3597,-1.3621,0.0,0.0,0.0,-1.3834,-1.3834,-1.4363,-1.508,-1.5734,-1.8254,-2.132,-2.3797,-2.557,-2.6892,-2.7625,-2.8218,-2.8538,-2.8319,-2.9105,-2.9779,-2.9779,-2.9733,-2.9576,-2.906,-2.8992,-2.8746,-2.7966,-2.7701,-2.7546,-2.7216,-2.6627,-2.639,-2.6671,-2.6236,-2.6101,-2.6376,-2.6376,-2.6376,-2.6376,-2.6309,-2.6287,-2.6287,-2.5948,-2.5779,-2.5779,-2.5634,-2.5593,-2.5593,-2.6066,-2.654,-2.6949,-2.7122,-2.7634,-2.8316,-2.834,-2.8296,-2.8251,-2.8723,-2.888,-2.8925,-2.9329,-2.9485,-2.9485,-2.9485,-2.9347,-2.9139,0.0,0.0,0.0,0.0,0.0,0.0,0.0,0.0,0.0,0.0,0.0,0.0,0.0,0.0,0.0,-1.211,-1.211,-1.216,-1.2308,-1.2505,-1.2676,-1.2798,-1.2866,-1.2915,-1.2915,-1.2915,-1.2915,-1.2915,-1.3535,-1.4055,-1.4512,-1.5281,-1.5545,-1.5385,-1.5327,-1.5224,-1.5083,-1.4311,-1.3989,-1.3972,-1.37,-1.3597,-1.3597,-1.3597,-1.3597,-1.3597,-1.3597,-1.3597,-1.3597,-1.3597,-1.3597,-1.3597,-1.3597,0.0,0.0,0.0,-1.4076,-1.4612,-1.5719,-1.7707,-1.9899,-2.1776,-2.3676,-2.5271,-2.5891,-2.6948,-2.7669,-2.7194,-2.7657,-2.8163,-2.8455,-2.841,-2.8209,-2.7854,-2.7698,-2.7412,-2.678,-2.6627,-2.6432,-2.6022,-2.5722,-2.5551,-2.5658,-2.5445,-2.538,-2.5506,-2.5506,-2.5506,-2.5506,-2.5506,-2.5506,-2.5506,-2.5401,-2.5316,-2.5316,-2.5232,-2.5189,-2.5189,-2.5402,-2.5615,-2.5871,-2.5871,-2.6238,-2.6889,-2.7173,-2.7151,-2.6933,-2.7674,-2.7934,-2.8023,-2.8457,-2.8653,-2.8653,-2.8653,-2.8606,-2.8466,0.0,0.0,0.0,0.0,0.0,0.0,0.0,0.0,0.0,0.0,0.0,0.0,0.0,0.0,0.0,0.0,-1.2116,-1.2258,-1.2529,-1.2627,-1.2749,-1.2871,-1.2915,-1.2915,-1.2915,-1.2915,-1.2915,-1.2915,-1.3704,-1.4297,-1.4731,-1.5802,-1.6108,-1.5807,-1.5914,-1.5827,-1.5608,-1.4811,-1.4407,-1.4283,-1.3931,-1.37,-1.3597,-1.3597,-1.3597,-1.3597,-1.3597,-1.3597,-1.3597,-1.3597,-1.3597,-1.3597,-1.3597,-1.3597,0.0,0.0,0.0,-1.4411,-1.5543,-1.6868,-1.8286,-1.977,-2.1654,-2.3302,-2.392,-2.5316,-2.6302,-2.5675,-2.6023,-2.6541,-2.6823,-2.7086,-2.7127,-2.6755,-2.6578,-2.634,-2.5806,-2.5678,-2.5508,-2.5168,-2.5084,-2.5041,-2.5041,-2.5041,-2.5041,-2.5041,-2.5041,-2.5041,-2.5041,-2.5041,-2.5041,-2.5041,-2.5041,-2.5041,-2.5041,-2.5041,-2.5041,-2.5041,-2.5041,-2.5041,-2.5041,-2.5041,-2.5231,-2.5569,-2.6082,-2.6062,-2.5785,-2.6594,-2.6998,-2.7168,-2.7636,-2.7891,-2.7998,-2.7998,-2.7998,-2.7998,0.0,0.0,0.0,0.0,0.0,0.0,0.0,0.0,0.0,0.0,0.0,0.0,-1.1893,-1.2017,-1.211,-1.211,-1.2234,-1.2406,-1.2676,-1.27,-1.2749,-1.2871,-1.2915,0.0,-1.2915,-1.2915,-1.2915,-1.2915,-1.3704,-1.4214,-1.4433,-1.5722,-1.6227,-1.6095,-1.6095,-1.621,-1.6291,-1.5359,-1.4718,-1.4304,-1.4283,-1.4014,-1.3597,-1.3597,-1.3597,-1.3597,-1.3597,-1.3597,-1.3597,-1.3597,-1.3597,-1.3597,-1.3597,-1.3597,-1.3597,0.0,0.0,0.0,-1.5042,-1.6012,-1.7167,-1.8334,-1.9733,-2.1071,-2.1862,-2.3202,-2.4128,-2.3643,-2.4298,-2.4841,-2.4676,-2.5808,-2.6576,-2.6063,-2.5955,-2.5785,-2.5296,-2.5062,-2.4935,-2.4914,-2.47,-2.4529,-2.4529,-2.4529,-2.4529,-2.4529,-2.4529,-2.4529,-2.4529,-2.4529,-2.4529,-2.4529,-2.4529,-2.4529,-2.4529,-2.4529,-2.4529,-2.4529,-2.4529,-2.4529,-2.4529,-2.4529,-2.455,-2.4614,-2.5062,-2.5253,-2.5275,-2.5764,-2.6253,-2.67,-2.7147,-2.7594,-2.7998,-2.7998,-2.7998,-2.7951,0.0,0.0,0.0,0.0,0.0,0.0,0.0,0.0,0.0,0.0,0.0,0.0,0.0,-1.1893,-1.2011,-1.2092,-1.2308,-1.2505,-1.2676,-1.2774,-1.2866,-1.2915,-1.2915,-1.2915,-1.2915,-1.2915,-1.2915,-1.2915,-1.3834,-1.4459,-1.481,-1.6026,-1.6769,-1.7011,-1.6675,-1.6497,-1.6361,-1.5711,-1.5339,-1.5173,-1.4863,-1.4656,-1.4511,-1.4511,-1.4511,-1.4511,-1.4511,-1.4304,-1.4055,-1.4055,-1.3869,-1.3597,-1.3597,-1.3597,-1.3621,-1.3692,-1.3936,-1.4158,-1.4326,-1.492,-1.5647,-1.6453,-1.7842,-1.916,-1.9698,-2.1305,-2.2548,-2.1947,-2.2857,-2.3615,-2.3297,-2.4472,-2.5485,-2.5273,-2.5123,-2.4931,-2.4764,-2.47,-2.4658,-2.4658,-2.455,-2.4507,-2.4507,-2.4507,-2.4507,-2.4507,-2.4281,-2.424,-2.4487,-2.4281,-2.424,-2.4487,-2.4507,-2.4507,-2.4507,-2.4507,-2.4507,-2.4507,-2.4507,-2.4507,-2.4507,-2.4507,-2.4507,-2.4487,-2.4658,-2.4743,-2.4785,-2.5244,-2.5537,-2.5766,-2.6543,-2.694,-2.7128,-2.7421,-2.7526,-2.7547,0.0,0.0,0.0,0.0,0.0,0.0,0.0,0.0,0.0,0.0,0.0,0.0,0.0,0.0,-1.1868,-1.216,-1.2382,-1.2578,-1.2749,-1.2847,-1.2915,-1.2915,-1.2915,-1.2915,-1.2915,-1.2915,-1.2939,-1.2964,-1.3773,-1.4347,-1.4727,-1.5672,-1.6316,-1.6641,-1.6333,-1.635,-1.6581,-1.6105,-1.5835,-1.567,-1.5359,-1.5132,-1.5007,-1.5007,-1.5007,-1.5007,-1.5007,-1.48,-1.4531,-1.4531,-1.4324,-1.4076,-1.4076,-1.3948,-1.3807,-1.3733,-1.3763,-1.381,-1.3926,-1.4185,-1.4598,-1.5142,-1.6267,-1.7303,-1.7752,-1.9322,-2.0553,-2.0084,-2.121,-2.2176,-2.1873,-2.291,-2.3949,-2.4263,-2.4158,-2.4053,-2.4053,-2.4053,-2.4053,-2.4053,-2.4053,-2.4053,-2.4053,-2.4053,-2.4053,-2.4053,-2.3826,-2.3764,-2.4032,-2.3805,-2.3784,-2.4074,-2.4053,-2.4053,-2.4053,-2.4197,-2.4322,-2.4322,-2.4425,-2.4507,-2.4507,-2.4507,-2.4507,-2.4507,-2.4507,-2.4507,-2.4528,-2.4838,-2.5044,-2.5272,-2.6041,-2.648,-2.6667,-2.7143,-2.7309,-2.7309,0.0,0.0,0.0,0.0,0.0,0.0,0.0,0.0,0.0,-1.0445,0.0,0.0,0.0,0.0,0.0,-1.2271,-1.2444,-1.2616,-1.2866,-1.2891,-1.2891,-1.2891,-1.2871,-1.2871,-1.2871,-1.2915,-1.2964,-1.3109,-1.3501,-1.3826,-1.4103,-1.4578,-1.4882,-1.5007,-1.5007,-1.5704,-1.6924,-1.6539,-1.6105,-1.5711,-1.5711,-1.5442,-1.507,-1.507,-1.507,-1.507,-1.507,-1.507,-1.5028,-1.5028,-1.5028,-1.5007,-1.5007,-1.4697,-1.4242,-1.3762,0.0,0.0,0.0,0.0,0.0,-1.4552,-1.502,-1.5509,-1.6031,-1.7226,-1.8199,-1.7964,-1.9351,-2.0561,-2.0348,-2.1056,-2.2025,-2.2936,-2.3122,-2.3163,-2.3163,-2.3184,-2.3184,-2.3184,-2.3184,-2.3184,-2.3184,-2.3184,-2.3184,-2.3184,-2.3184,-2.3184,-2.3184,-2.3184,-2.3184,-2.3184,-2.3184,-2.3184,-2.3184,-2.3639,-2.3909,-2.3888,-2.4322,-2.4487,-2.4507,-2.4507,-2.4507,-2.4507,-2.4507,-2.4507,-2.4507,-2.4507,-2.4755,-2.521,-2.5709,-2.621,-2.6646,-2.7123,-2.7309,-2.7309,0.0,0.0,0.0,0.0,0.0,0.0,-0.9744,-0.9836,-0.9929,0.0,0.0,0.0,-1.117,-1.1721,-1.2224,-1.2627,-1.2787,-1.2845,-1.2826,-1.2966,-1.2909,-1.2622,-1.27,-1.2749,-1.2749,-1.2964,-1.3061,-1.3109,-1.3701,-1.4028,-1.4103,-1.4676,-1.4961,-1.5007,-1.5007,-1.5214,-1.5566,-1.5794,-1.6029,-1.6216,-1.6216,-1.6312,-1.6448,-1.6448,-1.6655,-1.6944,-1.6944,-1.656,-1.6029,-1.6029,-1.5546,-1.5007,-1.5007,-1.4904,-1.4754,-1.4527,0.0,0.0,-1.3915,0.0,0.0,0.0,0.0,0.0,-1.4841,-1.5774,-1.6588,-1.6363,-1.7612,-1.8689,-1.8464,-1.9129,-1.9862,-2.0437,-2.1741,-2.2687,-2.2687,-2.2977,-2.3184,-2.3184,-2.3184,-2.3184,-2.3184,-2.3184,-2.3184,0.0,-2.2873,-2.2832,-2.3163,-2.3184,-2.3184,-2.3184,-2.3184,-2.3184,-2.3184,-2.3308,-2.3536,-2.3929,-2.4012,-2.4219,-2.4507,-2.4507,-2.4507,-2.4507,-2.4507,-2.4507,-2.4507,-2.4507,-2.4569,-2.4755,-2.5585,-2.6003,-2.621,-2.7019,-2.7309,-2.7309,0.0,0.0,0.0,0.0,0.0,-0.9659,-0.9713,-0.9924,-1.0065,0.0,0.0,0.0,-1.1352,-1.1955,-1.2411,-1.2648,-1.2817,-1.2896,-1.2894,-1.3061,-1.3029,-1.2786,-1.2745,-1.2745,-1.2745,-1.2871,-1.3042,-1.3268,-1.3706,-1.4104,-1.4415,-1.4553,-1.4646,-1.4697,-1.4511,-1.4635,-1.5007,-1.5277,-1.567,-1.6133,-1.634,-1.6643,-1.7006,-1.7006,-1.7296,-1.7709,-1.7709,-1.7358,-1.6953,-1.6953,-1.6456,-1.5766,-1.5401,-1.5223,-1.5102,-1.4785,0.0,0.0,0.0,0.0,0.0,0.0,0.0,0.0,-1.3906,-1.4524,-1.507,-1.4893,-1.5902,-1.6782,-1.6723,-1.7307,-1.7922,-1.8165,-1.9469,-2.0659,-2.1322,-2.163,-2.1853,-2.193,-2.193,-2.1968,-2.2045,-2.2211,-2.2296,-2.2218,-2.2136,-2.2218,-2.2486,-2.2565,-2.2565,-2.2486,-2.2506,-2.2446,-2.2388,-2.2572,-2.2797,-2.3063,-2.3432,-2.3718,-2.3963,-2.4104,-2.4186,-2.4186,-2.4186,-2.4186,-2.4186,-2.4186,-2.4315,-2.4569,-2.5337,-2.5606,-2.573,-2.6687,-2.7019,-2.704,0.0,0.0,-0.9251,-0.9279,-0.9545,-0.9797,-0.9963,-1.0264,-1.0538,0.0,-1.0841,-1.1194,-1.1781,-1.2172,-1.2454,-1.2567,-1.2757,-1.2898,-1.2948,-1.3085,-1.315,-1.3113,-1.2921,-1.2798,-1.2798,-1.2802,-1.3028,-1.3497,-1.3651,-1.4081,-1.4751,-1.4317,-1.421,-1.4341,0.0,0.0,-1.5007,-1.5023,-1.5318,-1.5732,-1.6216,-1.6684,-1.7089,-1.7089,-1.7399,-1.7854,-1.7854,-1.7812,-1.7771,-1.773,-1.7368,-1.6803,-1.6056,-1.5656,-1.532,-1.4747,-1.4446,0.0,0.0,0.0,0.0,0.0,-1.3814,0.0,-1.3347,-1.3532,-1.3734,-1.3631,-1.4268,-1.4904,-1.5014,-1.563,-1.6108,-1.6227,-1.6754,-1.7764,-1.9419,-1.9676,-1.9788,-1.9987,-1.9987,-2.0058,-2.0277,-2.0648,-2.0843,-2.0663,-2.1049,-2.1273,-2.1273,-2.1463,-2.1521,-2.1354,-2.1354,-2.1298,-2.1128,-2.1568,-2.1789,-2.1849,-2.2633,-2.3054,-2.3112,-2.3493,-2.3671,-2.3711,-2.3711,-2.3711,-2.3711,-2.3711,-2.4013,-2.4463,-2.4916,-2.5145,-2.5248,-2.614,-2.6491,-2.6574,0.0,0.0,-0.9623,-0.9884,-0.9971,-1.0102,-1.042,-1.0741,-1.0975,-1.1004,-1.1583,-1.2202,-1.2697,-1.2972,-1.3058,0.0,-1.3244,-1.3252,-1.2808,-1.2872,-1.2791,-1.2498,-1.2686,-1.2797,-1.2797,-1.3209,-1.3495,-1.3597,-1.3891,-1.4169,-1.4407,-1.4281,-1.4399,-1.4686,-1.4423,-1.4588,-1.5028,-1.5246,-1.5478,-1.5732,-1.6216,-1.687,-1.7564,-1.7564,-1.8112,-1.8849,-1.8849,-1.8568,-1.8195,-1.7812,-1.7216,-1.6598,-1.6593,-1.6142,-1.5581,-1.5195,-1.4696,0.0,0.0,0.0,0.0,-1.3801,-1.3801,0.0,-1.3709,-1.3339,-1.3006,-1.2964,-1.3252,-1.3515,-1.3515,-1.3884,-1.4354,-1.5009,-1.5136,-1.5818,-1.7691,-1.8231,-1.8517,-1.8723,-1.8757,-1.8966,-1.9469,-1.959,-1.9702,-1.9813,-1.9932,-1.9972,-1.9972,-2.0155,-2.0353,-2.0434,-2.0454,-2.0558,-2.0722,-2.08,-2.1017,-2.1311,-2.1528,-2.1981,-2.265,-2.2729,-2.2922,-2.3232,-2.3232,-2.3232,-2.3232,-2.3232,-2.3537,-2.3967,-2.4476,-2.4638,-2.4719,-2.5245,-2.5669,-2.5973,-0.9484,-0.9693,-0.9907,-1.0068,-1.0507,-1.0916,-1.1078,-1.1487,-1.1794,-1.1794,-1.2432,-1.3006,-1.3239,-1.3499,-1.3535,0.0,0.0,0.0,0.0,-1.3268,-1.3207,-1.2922,-1.2946,-1.3,-1.3,-1.3195,-1.3396,-1.3598,-1.3848,-1.4211,-1.4645,-1.4405,-1.4508,-1.4888,-1.448,-1.458,-1.5117,-1.5157,-1.5548,-1.6116,-1.6535,-1.7089,-1.773,-1.7842,-1.8356,-1.8931,-1.8852,-1.8655,-1.8377,-1.7949,-1.7549,-1.715,-1.6909,-1.6475,-1.5983,-1.5659,-1.5221,-1.4799,-1.4538,-1.4428,-1.4428,-1.4355,-1.4212,0.0,0.0,-1.3361,-1.2905,-1.2667,-1.2672,-1.272,-1.2619,-1.2865,-1.3174,-1.3599,-1.3698,-1.4102,-1.5068,-1.6205,-1.6938,-1.6954,-1.7174,-1.7507,-1.7869,-1.814,-1.84,-1.8727,-1.8749,-1.8882,-1.9204,-1.9294,-1.9392,-1.9479,-1.9617,-1.964,-1.9658,-1.9828,-2.0036,-2.0284,-2.0493,-2.093,-2.1494,-2.1745,-2.2025,-2.2397,-2.2397,-2.2397,-2.2397,-2.2397,-2.253,-2.2813,-2.3511,-2.3811,-2.387,-2.4326,-2.4623,-2.4822,-0.9702,-0.9921,-1.0141,-1.0272,-1.1019,-1.1606,-1.1679,-1.2204,-1.2658,-1.2809,-1.3424,-1.383,-1.383,-1.4087,-1.4103,-1.3706,0.0,0.0,-1.367,-1.375,-1.3775,-1.3658,-1.3489,-1.339,-1.335,-1.3279,-1.3368,-1.3629,-1.3773,-1.4187,-1.4843,-1.4447,-1.4506,-1.493,-1.4463,-1.4651,-1.5237,-1.5174,-1.5684,-1.6516,-1.687,-1.7318,-1.7749,-1.7938,-1.8311,-1.8684,-1.8428,-1.8313,-1.822,-1.7949,-1.777,-1.7533,-1.7029,-1.6619,-1.6192,-1.584,-1.5537,-1.5245,-1.5083,-1.5018,-1.5018,-1.4974,-1.4611,-1.4198,0.0,0.0,0.0,-1.26,-1.2458,-1.2333,-1.2092,-1.2221,-1.2385,-1.2385,-1.2547,-1.2678,0.0,-1.4093,0.0,-1.5035,-1.5418,-1.5787,-1.5999,-1.6459,-1.6921,-1.7294,-1.739,-1.7685,-1.826,-1.8296,-1.8352,-1.8505,-1.8658,-1.8673,-1.859,-1.8918,-1.9101,-1.9192,-1.956,-1.9925,-2.0285,-2.0656,-2.1076,-2.1488,-2.1488,-2.148,-2.1553,-2.1553,-2.1553,-2.1642,-2.2485,-2.2838,-2.2876,-2.3268,-2.3442,-2.3577,-1.0038,-1.0082,-1.0287,-1.0887,-1.1327,-1.1694,-1.1908,-1.2541,-1.3226,-1.397,-1.4562,-1.4919,-1.4919,-1.5111,-1.4978,-1.4361,-1.4431,-1.434,-1.3883,-1.3868,-1.395,-1.4114,-1.4211,-1.4123,-1.3817,-1.4046,-1.4027,-1.3789,-1.3909,-1.4076,-1.4279,-1.4243,-1.4385,-1.4738,-1.4847,-1.5104,-1.5465,-1.5626,-1.5977,-1.6439,-1.6838,-1.7357,-1.7857,-1.7703,-1.7949,-1.8293,-1.792,-1.7613,-1.7407,-1.7624,-1.7254,-1.6684,-1.6779,-1.6351,-1.568,-1.5292,-1.5065,-1.4952,-1.4774,-1.4741,-1.4827,-1.5103,-1.4656,-1.421,-1.4519,0.0,-1.3003,-1.2946,0.0,-1.2264,-1.1903,0.0,0.0,-1.1885,-1.1911,-1.1928,-1.1928,-1.2412,-1.2919,-1.3331,-1.3423,-1.3671,-1.423,-1.4842,-1.5182,-1.5242,-1.5569,-1.5951,-1.6403,-1.652,-1.6817,-1.737,-1.7406,-1.7657,-1.8166,-1.8219,-1.8415,-1.8772,-1.8825,-1.9039,-1.9454,-1.9508,-1.9936,-2.065,-2.065,-2.0784,-2.1087,-2.1087,-2.1087,-2.1132,-2.1642,-2.1865,-2.1883,-2.192,-2.2205,-2.2584,-1.0361,-1.0564,0.0,-1.1048,-1.1648,-1.2193,-1.2439,-1.3304,-1.4132,-1.4676,-1.5117,-1.5409,-1.5409,-1.5737,-1.5701,-1.5053,-1.533,-1.5285,-1.4686,-1.4671,0.0,-1.4495,-1.4544,-1.4509,-1.4371,-1.4468,-1.4463,-1.4323,-1.4386,-1.4481,-1.4621,-1.4621,-1.4778,-1.5109,-1.5065,-1.5233,-1.5549,-1.5574,-1.5859,-1.6361,-1.6529,-1.6887,-1.7331,-1.7446,-1.7494,-1.7461,-1.7304,-1.7132,-1.7028,-1.7166,-1.702,-1.672,-1.6667,-1.6387,-1.599,-1.5752,-1.5548,-1.5429,-1.536,-1.5326,-1.5377,-1.5514,-1.5,-1.4487,-1.4641,-1.3956,-1.322,-1.3043,0.0,0.0,0.0,0.0,0.0,0.0,-1.1635,-1.1507,-1.1507,0.0,-1.1912,-1.2297,0.0,0.0,-1.3164,-1.3429,-1.3644,-1.3784,-1.4123,-1.4572,-1.5092,-1.5451,-1.5839,-1.621,-1.6509,-1.6889,-1.7409,-1.7635,-1.7931,-1.829,-1.829,-1.8481,-1.8887,-1.8887,-1.9225,-1.9765,-1.9948,-2.0139,-2.0251,-2.0504,-2.0591,-2.0591,-2.0835,-2.106,-2.1266,-2.1266,-2.1419,-2.1563,-1.0768,0.0,0.0,-1.125,-1.1999,-1.275,-1.3224,-1.4256,-1.5073,-1.5427,-1.5882,-1.6201,-1.6201,-1.6625,-1.6654,-1.6055,-1.6349,-1.6312,-1.5786,-1.562,-1.5501,-1.5326,-1.5189,-1.5086,-1.4983,-1.4881,-1.4778,-1.4692,-1.4692,-1.4741,-1.4854,-1.4854,-1.4985,-1.5198,-1.5156,-1.5257,-1.5486,-1.5497,-1.5777,-1.6249,-1.6249,-1.6412,-1.6735,-1.7063,-1.6959,-1.67,-1.67,-1.6665,-1.6595,-1.6665,-1.67,-1.6665,-1.6508,-1.6368,-1.6211,-1.607,-1.5894,-1.5805,-1.5805,-1.5805,-1.5805,-1.5805,-1.524,-1.4709,-1.4812,-1.4144,-1.3459,-1.3322,-1.3202,0.0,0.0,0.0,0.0,0.0,0.0,-1.1293,0.0,-1.1293,-1.1396,-1.1618,-1.1998,0.0,0.0,-1.2311,-1.2474,-1.2666,-1.31,-1.3588,-1.4108,-1.462,-1.5068,-1.5393,-1.5824,-1.6283,-1.688,-1.7192,-1.7552,-1.7991,-1.7991,-1.8128,-1.8442,-1.8442,-1.8648,-1.9084,-1.9418,-1.9597,-1.9734,-2.0138,-2.0292,-2.0292,-2.0292,-2.0518,-2.0817,-2.0817,-2.0817,-2.0817,-1.1321,-1.1114,-1.1024,-1.1671,-1.2325,-1.3194,-1.4362,-1.5289,-1.6006,-1.6406,-1.7217,-1.7715,-1.7715,-1.7964,-1.7965,-1.7576,-1.7442,-1.7299,-1.7153,-1.6766,-1.664,-1.6812,-1.6527,-1.6167,-1.5771,-1.5394,-1.5035,-1.4692,-1.4692,-1.4692,-1.4708,-1.4708,-1.4708,-1.4725,-1.5035,-1.5189,-1.5257,-1.5635,-1.5912,-1.6123,-1.6123,-1.6123,-1.6175,-1.6508,-1.6403,-1.614,-1.614,-1.6,-1.5876,-1.607,-1.614,-1.614,-1.614,-1.6105,-1.607,-1.5859,-1.5805,-1.5805,-1.5805,-1.5805,-1.5805,-1.5805,-1.524,-1.4778,-1.512,-1.4316,-1.3613,-1.399,-1.3768,0.0,0.0,0.0,0.0,0.0,0.0,0.0,0.0,-1.1293,-1.131,-1.131,-1.1327,-1.1327,0.0,-1.1644,-1.184,-1.1857,-1.2569,-1.3181,-1.3511,-1.3905,-1.447,-1.5189,-1.524,-1.5753,-1.688,-1.6898,-1.7273,-1.7991,-1.7991,-1.8008,-1.8008,-1.8008,-1.8254,-1.8631,-1.9025,-1.9401,-1.9734,-2.0138,-2.0292,-2.0292,-2.0292,-2.0292,-2.0337,-2.0337,-2.0337,-2.0337,0.0,0.0,-1.1234,-1.1954,-1.2662,-1.3575,-1.4911,-1.5873,-1.6639,-1.7265,-1.7957,-1.8475,-1.8717,-1.9187,-1.9369,-1.8945,-1.8886,-1.8702,-1.8272,-1.7674,-1.7338,-1.7295,-1.6918,-1.6679,-1.6542,-1.6112,-1.5891,-1.5823,-1.5548,-1.5429,-1.5429,-1.5429,-1.5429,-1.5429,-1.5548,-1.56,-1.5617,-1.5737,-1.5841,-1.5894,-1.5894,-1.5894,-1.5894,-1.6035,-1.6,-1.5894,-1.5894,-1.5876,-1.5805,-1.5876,-1.5894,-1.5894,-1.5894,-1.5894,-1.5894,-1.5841,-1.5805,-1.5805,-1.5805,-1.5805,-1.5805,-1.5805,-1.5411,-1.5069,-1.5189,-1.4726,-1.4333,-1.4453,0.0,0.0,0.0,0.0,0.0,0.0,0.0,0.0,0.0,-1.1439,-1.1293,-1.1293,-1.1293,-1.1293,-1.1293,-1.1387,-1.1473,-1.1473,-1.2158,-1.2637,-1.2757,-1.3613,-1.4333,-1.4846,-1.5086,-1.5771,-1.688,-1.688,-1.7256,-1.7991,-1.7991,-1.7991,-1.7991,-1.7991,-1.8059,-1.8237,-1.8631,-1.9007,-1.9401,-1.9778,-2.0069,-2.0292,-2.0292,-2.0292,-2.0292,-2.0292,-2.0292,-2.0292,-1.0616,-1.1032,-1.1493,-1.2013,-1.2891,-1.405,-1.5513,-1.6462,-1.7328,-1.8224,-1.9023,-1.9599,-1.9956,-2.0553,-2.0729,-2.0362,-2.0242,-2.0062,-1.9607,-1.8845,-1.8362,-1.8288,-1.7655,-1.7273,-1.7273,-1.6761,-1.6542,-1.6596,-1.6218,-1.5994,-1.5994,-1.5857,-1.5805,-1.5805,-1.5805,-1.5805,-1.5805,-1.5805,-1.5805,-1.5805,-1.5942,-1.5994,-1.6047,-1.6148,-1.6028,-1.5822,-1.5959,-1.5908,-1.5805,-1.5805,-1.5805,-1.5805,-1.5805,-1.5805,-1.5805,-1.5805,-1.5805,-1.5805,-1.5805,-1.5805,-1.5805,-1.5805,-1.5514,-1.5257,-1.5394,-1.5035,-1.4709,-1.4846,0.0,0.0,0.0,0.0,0.0,0.0,0.0,0.0,0.0,-1.1747,-1.1602,-1.1327,-1.1293,-1.1293,-1.1293,-1.1293,-1.1293,-1.1293,-1.197,-1.2398,-1.2398,-1.3339,-1.4127,-1.4675,-1.4898,-1.5634,-1.6901,-1.688,-1.7256,-1.7991,-1.7991,-1.7991,-1.7991,-1.7991,-1.7991,-1.8025,-1.8579,-1.8981,-1.9256,-1.9727,-2.0086,-2.0292,-2.0292,-2.0292,-2.0292,-2.0292,-2.0292,-2.0292,-1.0851,-1.1389,-1.1761,-1.1916,-1.3121,-1.4602,-1.6211,-1.7083,-1.8016,-1.9304,-2.0264,-2.1012,-2.1401,-2.1944,-2.2097,-2.1694,-2.155,-2.1319,-2.096,-2.0206,-1.9717,-1.9717,-1.8657,-1.8042,-1.8025,-1.7308,-1.697,-1.6953,-1.6579,-1.639,-1.6283,-1.5977,-1.5805,0.0,-1.5805,-1.5805,-1.5805,-1.5805,-1.5805,-1.584,-1.6218,-1.6356,-1.6407,-1.6747,-1.6439,-1.5857,-1.6253,-1.615,-1.5805,-1.5805,-1.5805,-1.5805,-1.5805,-1.5805,-1.5805,-1.5805,-1.5805,-1.5805,-1.5805,-1.5805,-1.5805,-1.5805,-1.5514,-1.5343,-1.572,-1.5257,-1.4829,0.0,0.0,0.0,0.0,0.0,0.0,0.0,0.0,0.0,0.0,0.0,-1.2124,-1.1447,-1.1361,-1.1344,-1.131,-1.1293,-1.131,-1.1327,-1.197,-1.2398,0.0,-1.3117,-1.387,-1.4658,-1.4709,-1.5429,-1.6901,-1.6898,-1.7273,-1.7991,-1.7991,-1.7991,-1.7991,-1.7991,-1.7991,-1.8042,-1.8819,-1.9204,-1.9273,-1.9966,-2.0275,-2.0292,-2.0292,-2.0292,-2.0292,-2.0292,-2.0292,-2.0292,-1.0663,-1.15,-1.2289,-1.2657,-1.3872,-1.5292,-1.6698,-1.7668,-1.8769,-2.0303,-2.1125,-2.179,-2.2363,-2.2972,-2.315,-2.2758,-2.2484,-2.2156,-2.173,-2.0737,-2.0155,-2.0155,-1.9333,-1.8751,-1.8442,-1.798,-1.762,-1.7368,-1.6716,-1.639,-1.6283,-1.5977,-1.5805,0.0,-1.5805,-1.5805,-1.5805,-1.5805,-1.5805,-1.5805,-1.5908,-1.5942,-1.5977,-1.6353,-1.6163,-1.5857,-1.6253,-1.615,-1.5805,-1.5805,-1.5805,-1.5805,-1.5805,-1.5805,-1.5805,-1.5805,-1.5805,-1.5805,-1.5805,-1.5805,-1.5805,-1.5805,-1.572,-1.5685,-1.5771,-1.5651,-1.5531,-1.5634,0.0,0.0,0.0,0.0,0.0,0.0,0.0,0.0,0.0,0.0,0.0,-1.2124,-1.2025,-1.1778,-1.1336,-1.1293,-1.1387,-1.1652,-1.2124,-1.2518,-1.2837,-1.3254,-1.387,-1.4658,-1.4932,-1.5668,-1.688,-1.7192,-1.7569,-1.7991,-1.7991,-1.7991,-1.7991,-1.7991,-1.7991,-1.8025,-1.8528,-1.8905,-1.9213,-1.9692,-2.0052,-2.0292,-2.0292,-2.0292,-2.0292,-2.0292,-2.0292,-2.0292,-1.0854,-1.1762,-1.2697,-1.3378,-1.4484,-1.5665,-1.6861,-1.8021,-1.9272,-2.0592,-2.1417,-2.2081,-2.2628,-2.3146,-2.327,-2.3048,-2.2733,-2.2416,-2.2165,-2.1141,-2.0426,-2.0322,-1.9467,-1.8858,-1.8622,-1.8046,-1.7761,-1.7681,-1.6862,-1.6334,-1.6167,-1.5856,0.0,0.0,-1.5632,-1.5705,-1.5901,-1.5973,-1.6045,-1.6098,-1.6388,-1.6524,0.0,-1.6898,-1.685,-1.6559,-1.6802,-1.6424,-1.5822,-1.5977,-1.6045,-1.6081,-1.6081,-1.6081,-1.6047,-1.584,-1.5805,-1.5805,-1.5805,-1.5805,-1.5805,-1.5805,-1.5805,-1.5805,-1.5805,-1.5805,-1.5805,-1.5805,-1.548,-1.5155,0.0,0.0,0.0,0.0,0.0,0.0,0.0,0.0,0.0,0.0,-1.227,-1.2136,-1.162,-1.1445,-1.1454,-1.17,-1.211,-1.2513,-1.2992,-1.3476,-1.4042,-1.4658,-1.5206,-1.5942,-1.688,-1.7449,-1.7826,-1.7991,-1.8162,-1.8145,-1.8008,-1.8162,-1.8271,-1.8305,-1.8853,-1.9213,-1.9453,-1.9829,-2.0103,-2.0292,-2.0292,-2.0292,-2.0292,-2.0292,-2.0292,-2.0292,-1.1365,-1.2144,-1.3074,-1.406,-1.4975,-1.5928,-1.6924,-1.8251,-1.9508,-2.0476,-2.134,-2.2013,-2.241,-2.2724,-2.2863,-2.2734,-2.2419,-2.2172,-2.2042,-2.1188,-2.0489,-2.0232,-1.9209,-1.8624,-1.8518,-1.7797,-1.754,-1.7735,-1.6798,-1.622,-1.5954,0.0,0.0,0.0,-1.5444,-1.5667,-1.609,-1.6294,-1.6422,-1.651,-1.7179,-1.7437,-1.7432,-1.7718,-1.7689,-1.7437,-1.7437,-1.6764,-1.5994,-1.6265,-1.6422,-1.6458,-1.6458,-1.6458,-1.6407,-1.6045,-1.5942,-1.5942,-1.5942,-1.5908,-1.5874,-1.5874,-1.584,-1.5805,-1.577,-1.577,-1.577,-1.5718,-1.5462,-1.5206,-1.5121,0.0,0.0,0.0,0.0,0.0,0.0,0.0,0.0,0.0,0.0,0.0,-1.187,-1.1622,-1.1533,-1.1718,-1.2074,-1.2496,-1.3031,0.0,-1.4281,-1.4708,-1.5463,-1.6216,-1.688,-1.7666,-1.8059,-1.8036,-1.8452,-1.8411,-1.804,-1.8387,-1.854,-1.8574,-1.9245,-1.9567,-1.9645,-2.0048,-2.0201,-2.0201,-2.0201,-2.0201,-2.0155,-2.0155,-2.011,-2.011,-1.2083,-1.2664,-1.3307,-1.414,-1.5345,-1.6451,-1.7283,-1.8259,-1.9309,-2.0538,-2.1037,-2.1384,-2.1771,-2.2085,-2.2117,-2.1779,-2.151,-2.1156,-2.0869,-2.0138,-1.9687,-1.9626,-1.8931,-1.8378,-1.8026,-1.7457,-1.7008,-1.6757,-1.6011,-1.5657,-1.5596,-1.5187,-1.5134,0.0,-1.5487,-1.5907,-1.6497,-1.6703,-1.6816,-1.6833,-1.6953,-1.7021,-1.7021,-1.7051,-1.7072,-1.7021,-1.7021,-1.6884,-1.673,-1.6798,-1.6816,-1.6816,-1.6816,-1.6816,-1.6798,-1.6747,-1.673,-1.673,-1.673,-1.649,-1.6287,-1.6251,-1.6011,-1.577,-1.5576,-1.5541,-1.5505,-1.5346,-1.5261,-1.5128,-1.4845,0.0,0.0,0.0,0.0,0.0,0.0,0.0,0.0,0.0,0.0,-1.1829,-1.1582,-1.17,-1.2013,-1.2454,-1.2567,-1.2856,0.0,0.0,-1.4281,0.0,-1.5703,-1.6419,0.0,-1.7963,-1.837,-1.8162,-1.8549,-1.8529,-1.8077,-1.8185,-1.8202,-1.8235,-1.8616,-1.8929,-1.914,-1.9567,-1.9716,-1.9716,-1.9716,-1.9563,-1.9363,-1.9363,-1.9242,-1.915,-1.2828,-1.3358,-1.3874,-1.4555,-1.5517,-1.6477,-1.7363,-1.8076,-1.8934,-2.0069,-2.0424,-2.0566,-2.0611,-2.0785,-2.0773,-2.0643,-2.0327,-2.0051,-1.9895,-1.9257,-1.8801,-1.8455,-1.791,-1.746,-1.7227,-1.6543,-1.6111,-1.6038,-1.5273,-1.4842,-1.4669,-1.4522,-1.4612,-1.481,-1.556,-1.6089,-1.648,-1.7009,-1.7209,-1.7227,-1.7415,-1.7461,-1.7461,-1.7461,-1.7461,-1.7461,-1.7461,-1.7461,-1.7427,-1.7278,-1.7209,-1.7209,-1.7209,-1.7209,-1.7175,-1.697,-1.688,-1.688,-1.6767,-1.6631,-1.6441,-1.618,-1.5972,-1.5819,-1.5597,-1.534,-1.5122,-1.5013,-1.4796,-1.4585,-1.4426,-1.3901,0.0,0.0,0.0,0.0,0.0,0.0,-1.1762,0.0,0.0,0.0,0.0,-1.1676,-1.1866,-1.2204,-1.2233,-1.2557,0.0,0.0,-1.4243,0.0,0.0,0.0,-1.6707,0.0,-1.8124,-1.7953,-1.8196,-1.8085,-1.7692,-1.7777,-1.7768,-1.7843,-1.8279,-1.8557,-1.871,-1.9039,-1.9212,-1.9166,-1.9012,-1.8904,-1.8765,-1.8673,-1.855,-1.8535,-1.3605,-1.4063,-1.4513,-1.514,-1.5828,-1.6541,-1.7363,-1.7901,-1.858,-1.9475,-1.9779,-1.9805,-1.9516,-1.949,-1.9489,-1.9488,-1.9193,-1.9009,-1.8919,-1.8414,-1.7889,-1.7338,-1.6837,-1.6494,-1.6451,-1.5577,-1.5183,0.0,0.0,-1.4127,-1.3803,-1.3878,-1.4115,-1.4458,-1.5635,-1.6253,-1.6442,-1.7153,-1.7468,-1.7502,-1.7751,-1.791,-1.7951,-1.7951,-1.7951,-1.7991,-1.7991,-1.7991,-1.7957,-1.7689,-1.7586,-1.7586,-1.7586,-1.7586,-1.7535,-1.7244,-1.712,-1.7043,-1.6834,-1.6668,-1.6409,-1.597,-1.5768,-1.5627,-1.5412,-1.5019,-1.4668,-1.463,-1.4245,-1.3945,-1.3945,-1.346,0.0,0.0,0.0,0.0,0.0,0.0,-1.1341,0.0,0.0,0.0,-1.1379,-1.1321,-1.1348,-1.1586,-1.1751,-1.2236,-1.3042,0.0,0.0,0.0,-1.5243,-1.5979,-1.6213,0.0,-1.7604,-1.7489,-1.7671,-1.7537,-1.7159,-1.7191,-1.7204,-1.7265,-1.7811,-1.8056,-1.8195,-1.8396,-1.8504,-1.8458,-1.821,-1.8056,-1.7963,-1.7792,-1.7667,-1.7712,-1.4309,-1.4666,-1.5104,-1.5865,-1.6402,-1.6937,-1.7519,-1.7834,-1.8329,-1.9145,-1.929,-1.92,-1.892,-1.8894,-1.8779,-1.8557,-1.8276,-1.8007,-1.7781,-1.7431,-1.7083,-1.6804,-1.6241,-1.5998,-1.5972,-1.5092,-1.4577,0.0,0.0,-1.3707,-1.3438,-1.3464,-1.3886,-1.4699,-1.5655,-1.6314,-1.6676,-1.7212,-1.7432,-1.7432,-1.7465,-1.7587,-1.7732,-1.7732,-1.7829,-1.7991,-1.7991,-1.7991,-1.7991,-1.7957,-1.794,-1.794,-1.794,-1.794,-1.794,-1.7906,-1.7768,-1.759,-1.7365,-1.6797,-1.6158,-1.5889,-1.538,-1.4933,-1.4754,-1.4506,-1.4321,-1.4112,-1.3715,-1.3388,-1.3388,-1.2987,-1.2668,0.0,0.0,0.0,0.0,0.0,-1.0938,-1.1144,0.0,0.0,-1.0758,-1.0393,-1.0392,-1.094,-1.1677,-1.2182,-1.2398,0.0,0.0,-1.3402,-1.4694,-1.5312,-1.5242,-1.6507,-1.7035,-1.6786,-1.7172,-1.7127,-1.6678,-1.6425,-1.6331,-1.6331,-1.6655,-1.6998,-1.7419,-1.7419,-1.7419,-1.7419,-1.7232,-1.6998,-1.6716,-1.648,-1.6244,-1.6103,-1.4845,-1.5268,-1.5693,-1.6161,-1.6607,-1.7072,-1.749,-1.7779,-1.8071,-1.8404,-1.8482,-1.845,-1.8434,-1.8264,-1.8191,-1.8101,-1.783,-1.7498,-1.7067,-1.6932,-1.6673,-1.623,-1.5848,-1.5565,-1.5405,-1.4764,-1.4296,0.0,0.0,-1.3484,-1.3225,-1.3385,-1.3855,-1.4622,-1.5371,-1.5948,-1.6376,-1.6648,-1.6853,-1.6976,-1.6976,-1.718,-1.7546,-1.7651,-1.7829,-1.7991,-1.7991,-1.7991,-1.7991,-1.787,-1.791,-1.7991,-1.7991,-1.791,-1.7829,-1.7829,-1.757,-1.7261,-1.6894,-1.6374,-1.5777,-1.5286,-1.4856,-1.4567,-1.4363,-1.398,-1.3695,-1.3615,-1.3174,-1.2818,-1.2818,-1.2542,-1.2321,-1.2321,0.0,0.0,0.0,0.0,0.0,-1.1022,0.0,-1.0572,-1.0742,-1.0606,-1.0581,-1.0831,-1.1297,-1.1797,-1.2345,0.0,0.0,-1.3279,0.0,-1.4562,-1.4906,-1.5503,-1.5892,-1.6164,-1.6168,-1.6055,-1.5866,-1.5642,-1.5594,-1.5724,-1.5818,-1.6055,-1.6386,-1.6386,-1.6386,-1.6386,-1.615,-1.5961,-1.5893,-1.5779,-1.5699,-1.5693,-1.5456,-1.5881,-1.6298,-1.6474,-1.6904,-1.726,-1.7456,-1.7642,-1.7818,-1.7692,-1.7711,-1.778,-1.8027,-1.789,-1.7777,-1.7793,-1.7587,-1.7261,-1.6742,-1.6706,-1.6453,-1.591,-1.5644,-1.5378,-1.5113,-1.4654,-1.4256,-1.3906,-1.3725,-1.3495,-1.3242,-1.3468,-1.3905,-1.4454,-1.5062,-1.5559,-1.5955,-1.6151,-1.6362,-1.6572,-1.6437,-1.6682,-1.7121,-1.7212,-1.7383,-1.7627,-1.7627,-1.7627,-1.7587,-1.7465,-1.7465,-1.7546,-1.7668,-1.7627,-1.7505,-1.7424,-1.7139,-1.673,-1.6319,-1.5767,-1.5186,-1.4657,-1.4321,-1.4055,-1.3928,-1.3574,-1.3223,-1.314,-1.276,-1.2438,-1.2438,-1.2213,-1.2039,-1.2039,0.0,0.0,0.0,-1.1083,0.0,-1.1022,-1.0776,-1.0686,-1.0756,-1.0716,-1.0704,-1.0744,-1.0981,-1.1391,-1.1989,-1.2402,0.0,0.0,0.0,0.0,-1.4376,-1.4586,-1.493,-1.5463,-1.5257,-1.5201,-1.5201,-1.4975,-1.4975,-1.5201,-1.5201,-1.5356,-1.5594,-1.5594,-1.5594,-1.556,-1.5386,-1.5329,-1.5306,-1.5355,-1.5369,-1.5445,-1.6247,-1.6495,-1.6721,-1.6958,-1.7389,-1.7636,-1.741,-1.7572,-1.754,-1.7066,-1.7001,-1.7213,-1.7719,-1.7784,-1.7694,-1.7539,-1.7491,-1.7261,-1.6742,-1.6706,-1.6453,-1.591,-1.5644,-1.5378,-1.5113,-1.4847,-1.4449,-1.3906,0.0,-1.3761,-1.3507,-1.3791,-1.4005,-1.4218,-1.4892,-1.5339,-1.5592,-1.5828,-1.605,-1.6257,-1.572,-1.5891,-1.6502,-1.6209,-1.6376,-1.673,-1.673,-1.673,-1.673,-1.6689,-1.6566,-1.6525,-1.6976,-1.7098,-1.7057,-1.6771,-1.6417,-1.6046,-1.5782,-1.5061,-1.4363,-1.4166,-1.3743,-1.3392,-1.3392,-1.3264,-1.3052,-1.2741,-1.2493,-1.2312,-1.2312,-1.2095,-1.1914,-1.1914,0.0,0.0,0.0,-1.1286,0.0,-1.1105,-1.0876,-1.0719,-1.0719,-1.0442,-1.0406,-1.0695,-1.0886,-1.106,-1.1093,-1.1563,-1.1853,-1.1898,-1.2544,0.0,-1.3392,-1.3938,-1.4371,-1.4617,-1.4659,-1.4688,-1.4688,-1.4448,-1.4448,-1.4688,-1.4688,-1.4844,-1.5131,-1.5131,-1.5131,-1.5108,-1.5083,-1.5084,-1.5122,-1.5105,-1.5101,-1.5137,-1.6538,-1.6743,-1.6969,-1.7217,-1.7389,-1.7464,-1.7389,-1.7443,-1.7367,-1.7044,-1.6872,-1.6899,-1.7078,-1.7106,-1.7093,-1.7123,-1.6925,-1.6693,-1.6298,-1.6169,-1.5914,-1.5577,-1.5321,-1.5012,-1.4758,-1.4554,-1.4251,-1.3914,-1.374,-1.3671,-1.3767,-1.3872,-1.4027,-1.4222,-1.4579,-1.4757,-1.4847,-1.4937,-1.5084,-1.5353,-1.5301,-1.5613,-1.6097,-1.6162,-1.646,-1.6795,-1.6433,-1.6417,-1.6488,-1.5967,-1.5684,-1.5477,-1.5144,-1.5477,-1.5891,-1.5684,-1.5269,-1.4894,-1.4685,-1.4181,-1.3688,-1.3476,-1.3052,-1.2711,-1.2711,-1.2668,-1.2625,-1.2485,-1.2426,-1.2367,-1.2367,-1.2153,-1.1987,-1.1987,-1.1854,0.0,-1.1754,0.0,-1.1357,-1.1357,-1.1154,-1.0985,-1.0985,-1.0912,-1.09,-1.0985,-1.1021,-1.1132,-1.1301,-1.175,-1.2043,0.0,-1.2669,0.0,-1.3476,-1.3832,-1.4139,-1.4409,-1.4399,-1.4448,-1.4448,-1.434,-1.4352,-1.4448,-1.4448,-1.4496,-1.4544,-1.4544,-1.4654,-1.4839,-1.4826,-1.4923,-1.5105,-1.5333,-1.5378,-1.5415,-1.6786,-1.6904,-1.7077,-1.7335,-1.7378,-1.7378,-1.7378,-1.7378,-1.7292,-1.7033,-1.6807,-1.6697,-1.6644,-1.6534,-1.6564,-1.6729,-1.6629,-1.6376,-1.6125,-1.5921,-1.5669,-1.5418,-1.5113,-1.4862,-1.4623,-1.4413,-1.4162,-1.391,-1.361,-1.3642,-1.3883,-1.3884,-1.3999,-1.4239,-1.4486,-1.4582,-1.4582,-1.4582,-1.4733,-1.4963,-1.4891,-1.511,-1.5566,-1.5571,-1.5834,-1.6066,-1.5677,-1.5619,-1.5662,-1.509,-1.4763,-1.4518,-1.4,-1.4173,-1.4507,-1.4502,-1.4181,-1.3844,-1.3717,-1.3336,-1.3009,-1.2881,-1.254,-1.224,-1.224,-1.224,-1.224,-1.224,-1.224,-1.224,-1.224,-1.2113,-1.205,-1.2122,-1.2034,-1.1949,-1.203,0.0,-1.1633,0.0,0.0,-1.1419,-1.1419,-1.1419,-1.1419,-1.1419,-1.1419,-1.1457,-1.1572,-1.1761,-1.2021,-1.2367,-1.2698,-1.3143,-1.3652,-1.3821,-1.4039,-1.4292,-1.4292,-1.4352,-1.4449,-1.434,-1.4413,-1.4594,-1.4497,-1.4509,-1.4606,-1.4606,-1.4702,-1.4871,-1.4968,-1.5113,-1.5282,-1.5547,-1.5644,-1.5668,-1.7001,-1.7001,-1.7077,-1.7313,-1.7356,-1.7356,-1.7356,-1.7356,-1.727,-1.7033,-1.6786,-1.656,-1.6334,-1.6075,-1.6079,-1.6442,-1.6419,-1.6317,-1.609,-1.5886,-1.5647,-1.542,-1.5104,-1.4854,-1.4616,-1.4396,-1.4123,-1.3861,-1.361,-1.3593,-1.3835,-1.3883,-1.4027,-1.4256,-1.4544,-1.464,-1.464,-1.464,-1.4831,-1.501,-1.4462,-1.4536,-1.4916,-1.4631,-1.4675,-1.4868,-1.4559,-1.4456,-1.4424,-1.4128,-1.3902,-1.3689,-1.3417,-1.319,-1.305,-1.3306,-1.3144,-1.2973,-1.2973,-1.2716,-1.2416,-1.2416,-1.2212,-1.2008,-1.2008,-1.2008,-1.2051,-1.2051,-1.1997,-1.1986,-1.1986,-1.2006,-1.2037,-1.2326,-1.2169,-1.2088,-1.2295,-1.2079,-1.195,-1.195,-1.1886,-1.1886,-1.1886,-1.1886,-1.1886,-1.1886,-1.1886,-1.1938,-1.1934,-1.1706,-1.195,-1.2687,-1.2759,-1.3145,-1.3894,-1.393,-1.4063,-1.4328,-1.4328,-1.4473,-1.4739,-1.4473,-1.463,-1.5101,-1.4847,-1.4883,-1.5113,-1.5113,-1.5113,-1.5161,-1.5403,-1.5511,-1.5559,-1.5801,-1.5885,-1.5885,-1.7001,-1.7001,-1.7023,-1.7077,-1.7087,-1.7087,-1.7087,-1.7087,-1.7066,-1.7012,-1.6646,-1.6377,-1.6323,-1.5935,-1.5715,-1.5839,-1.5839,-1.5806,-1.5692,-1.5464,-1.5311,-1.5257,-1.4843,-1.4592,-1.4527,-1.4113,-1.3729,-1.3303,-1.322,-1.3244,-1.3292,-1.3497,-1.3642,-1.3678,-1.3979,-1.4076,-1.4124,-1.4304,-1.4448,-1.4484,-1.4566,-1.4636,-1.4754,-1.4617,-1.4782,-1.4969,-1.4214,-1.4097,-1.4188,-1.3568,-1.319,-1.2917,-1.2734,-1.2506,-1.2392,-1.2766,-1.2822,-1.2777,-1.2777,-1.2687,-1.2642,-1.2642,-1.2462,-1.2282,-1.2113,-1.2192,-1.2282,-1.2282,-1.2137,-1.2015,-1.2015,-1.1859,-1.1791,-1.1866,-1.2109,-1.2317,-1.236,-1.226,-1.2228,0.0,-1.2006,-1.1886,-1.1886,-1.1886,-1.1886,0.0,0.0,-1.2095,-1.2493,-1.2457,-1.2506,-1.2699,-1.3302,-1.3713,-1.3906,-1.4099,-1.434,-1.4618,-1.4618,-1.4763,-1.5016,-1.4944,-1.498,-1.5101,-1.504,-1.5052,-1.5113,-1.5113,-1.5221,-1.5415,-1.5475,-1.562,-1.5801,-1.5861,-1.5885,-1.5885,-1.7001,-1.7098,-1.7173,-1.7173,-1.726,-1.7292,-1.7195,-1.7173,-1.713,-1.7023,-1.67,-1.6431,-1.6323,-1.5978,-1.572,-1.5612,-1.5601,-1.5601,-1.5601,-1.5328,-1.5145,-1.5085,-1.4673,-1.4482,-1.4385,-1.4008,-1.3588,-1.3104,-1.3073,-1.3111,-1.3098,-1.3244,-1.3389,-1.3497,-1.3642,-1.3738,-1.3738,-1.3871,-1.3919,-1.3968,-1.4064,-1.4208,-1.434,-1.429,-1.4374,-1.4472,-1.3884,-1.3684,-1.3637,-1.3121,-1.2888,-1.2747,-1.2606,-1.2512,-1.2465,-1.27,-1.2581,-1.2415,-1.2415,-1.2415,-1.2415,-1.2415,-1.2323,-1.2232,-1.214,-1.2186,-1.2277,-1.2277,-1.2168,-1.2035,-1.2035,-1.1849,-1.1729,-1.1816,-1.1976,-1.2155,-1.2369,-1.2367,-1.2368,-1.2493,-1.2481,-1.2427,-1.2427,-1.2578,-1.265,-1.265,-1.265,-1.2771,-1.3061,-1.3194,-1.3254,-1.3254,-1.3676,-1.3966,-1.4087,-1.4352,-1.457,-1.4714,-1.4835,-1.5028,-1.5282,-1.5161,-1.5234,-1.5463,-1.5342,-1.5354,-1.5463,-1.5463,-1.5547,-1.568,-1.568,-1.5765,-1.5885,-1.5885,-1.5885,-1.591,-1.7109,-1.7281,-1.7432,-1.7432,-1.7593,-1.7658,-1.7464,-1.74,-1.7303,-1.7087,-1.6829,-1.6592,-1.6387,-1.6151,-1.5974,-1.5666,-1.5655,-1.5634,-1.5601,-1.5418,-1.5156,-1.4999,-1.4729,-1.4492,-1.4299,-1.3986,-1.3599,-1.3157,-1.3125,-1.3084,-1.305,-1.305,-1.3195,-1.34,-1.3448,-1.3448,-1.3437,-1.3485,-1.3497,-1.3497,-1.3497,-1.3642,-1.3835,-1.3835,-1.3835,-1.3786,-1.3545,-1.3292,-1.305,-1.2856,-1.2807,-1.2807,-1.2807,-1.2807,-1.2807,-1.2807,-1.2526,-1.2202,-1.2202,-1.2202,-1.2202,-1.2202,-1.2202,-1.2202,-1.2202,-1.2202,-1.2202,-1.2202,-1.217,-1.2148,-1.2148,-1.1908,-1.1836,-1.197,-1.186,-1.189,-1.2388,0.0,-1.2568,-1.2776,-1.3037,-1.3137,-1.3137,-1.3387,-1.3519,-1.3519,-1.3519,-1.3532,-1.3568,-1.3821,-1.3978,-1.4026,-1.4026,-1.4147,-1.4413,-1.4654,-1.4799,-1.4835,-1.5065,-1.5306,-1.5547,-1.533,-1.5475,-1.5873,-1.5656,-1.568,-1.5885,-1.5885,-1.5885,-1.5885,-1.5885,-1.5885,-1.5897,-1.5934,-1.5946,-1.5994,-1.7604,-1.7636,-1.7669,-1.7669,-1.7701,-1.7712,-1.7669,-1.7507,-1.7367,-1.7324,-1.6937,-1.6709,-1.6614,-1.6398,-1.6161,-1.5974,-1.5953,-1.5806,-1.5612,-1.5569,-1.5526,-1.5494,-1.5063,-1.4815,-1.4772,-1.4148,-1.3685,-1.3427,-1.3211,-1.2985,-1.2856,-1.2856,-1.2856,-1.2915,-1.3098,-1.3147,-1.3195,-1.3389,-1.3497,-1.3497,-1.3497,-1.3534,-1.3545,-1.3545,-1.3545,-1.3545,-1.3244,-1.3147,-1.305,-1.2856,-1.2807,-1.2807,-1.2807,-1.2807,-1.2807,-1.2807,-1.2764,-1.2699,-1.2699,-1.2699,-1.2699,-1.2699,-1.2699,-1.2699,-1.2699,-1.2699,-1.2699,-1.2699,-1.249,-1.2361,-1.2361,-1.2156,-1.204,-1.2086,-1.2025,-1.2159,-1.2676,0.0,-1.288,-1.3318,-1.3423,-1.3459,-1.3459,-1.3495,-1.3519,-1.3519,-1.3519,-1.3616,-1.3833,-1.4099,-1.434,-1.4582,-1.4594,-1.4714,-1.498,-1.5028,-1.5161,-1.5378,-1.5415,-1.5572,-1.5825,-1.5789,-1.5813,-1.5885,-1.5849,-1.5849,-1.5885,-1.5885,-1.5885,-1.5885,-1.5885,-1.5885,-1.5922,-1.6139,-1.6235,-1.6284,-1.7723,-1.783,-1.7916,-1.7916,-1.8024,-1.8067,-1.7938,-1.783,-1.7669,-1.741,-1.7184,-1.6947,-1.6752,-1.6571,-1.6409,-1.6161,-1.614,-1.6043,-1.5806,-1.5666,-1.5548,-1.5418,-1.5074,-1.4762,-1.4514,-1.4191,-1.39,-1.3663,-1.3427,-1.3179,-1.2942,-1.2872,-1.2807,-1.2807,-1.2905,-1.2953,-1.2953,-1.305,-1.3098,-1.3098,-1.3098,-1.3195,-1.3292,-1.3292,-1.3292,-1.3244,-1.3147,-1.305,-1.2905,-1.2807,-1.2807,-1.2807,-1.2807,-1.2807,-1.2807,-1.2807,-1.2807,-1.2807,-1.2807,-1.2807,-1.2807,-1.2807,-1.2807,-1.2807,-1.2807,-1.2807,-1.2807,-1.2807,-1.2673,-1.2608,-1.2608,-1.2404,-1.2242,-1.2242,-1.2129,-1.2236,-1.2723,-1.2824,-1.297,-1.345,-1.364,-1.3725,-1.3725,-1.3857,-1.393,-1.393,-1.4075,-1.422,-1.434,-1.4594,-1.4799,-1.492,-1.4932,-1.498,-1.5113,-1.5246,-1.5378,-1.5499,-1.5644,-1.5777,-1.5885,-1.5885,-1.5885,-1.5885,-1.5885,-1.5885,-1.5885,-1.5885,-1.5885,-1.5897,-1.6042,-1.6103,-1.6139,-1.6404,-1.6513,-1.6561,-1.7884,-1.8046,-1.8175,-1.8175,-1.8315,-1.8379,-1.8196,-1.8132,-1.7959,-1.7593,-1.7443,-1.7238,-1.6872,-1.6839,-1.6646,-1.642,-1.6398,-1.6269,-1.6028,-1.5845,-1.558,-1.5285,-1.5095,-1.4751,-1.4288,-1.4277,-1.4126,-1.3814,-1.3642,-1.3427,-1.319,-1.3007,-1.298,-1.298,-1.2916,-1.2894,-1.2894,-1.284,-1.2807,-1.2807,-1.2807,-1.2905,-1.305,-1.305,-1.305,-1.305,-1.305,-1.2905,-1.2807,-1.2807,-1.2807,-1.2807,-1.2807,-1.2807,-1.2807,-1.2807,-1.2807,-1.2807,-1.2807,-1.2807,-1.2807,-1.2807,-1.2807,-1.2807,-1.2807,-1.2807,-1.2807,-1.2807,-1.2807,-1.2807,-1.2807,-1.2619,-1.2501,-1.2501,-1.2343,-1.2433,-1.2905,-1.2998,-1.3193,-1.3739,-1.3978,-1.4123,-1.4183,-1.4364,-1.4485,-1.4485,-1.469,-1.4811,-1.4811,-1.5052,-1.5221,-1.5282,-1.5234,-1.5234,-1.5294,-1.5487,-1.562,-1.568,-1.5825,-1.5922,-1.5982,-1.5922,-1.5885,-1.5885,-1.5885,-1.5922,-1.5982,-1.5982,-1.6018,-1.6103,-1.6296,-1.638,-1.6416,-1.6682,-1.6791,-1.6827,-1.8379,-1.8331,-1.8412,-1.8412,-1.8422,-1.8433,-1.8412,-1.8229,-1.8078,-1.8046,-1.7658,-1.7367,-1.7335,-1.712,-1.6883,-1.672,-1.6698,-1.6504,-1.6039,-1.5996,-1.5877,-1.558,-1.5295,-1.4941,-1.4469,-1.4459,-1.4288,-1.3814,-1.3803,-1.3674,-1.3448,-1.3488,-1.3427,-1.3416,-1.3179,-1.3082,-1.306,-1.2905,-1.2807,-1.2807,-1.2807,-1.2807,-1.2807,-1.2807,-1.2807,-1.2807,-1.2807,-1.2807,-1.2807,-1.2807,-1.2807,-1.2807,-1.2807,-1.2807,-1.2807,-1.2807,-1.2807,-1.2807,-1.2807,-1.2807,-1.2807,-1.2807,-1.2807,-1.2807,-1.2807,-1.2807,-1.2807,-1.2807,-1.2807,-1.2807,-1.2807,-1.2797,-1.2786,-1.2786,-1.2782,-1.2895,-1.3406,-1.3519,-1.3826,-1.4521,-1.4642,-1.4751,-1.4992,-1.504,-1.5052,-1.5052,-1.5065,-1.5077,-1.5077,-1.533,-1.5584,-1.5825,-1.5596,-1.5584,-1.5825,-1.5849,-1.5982,-1.6223,-1.5994,-1.6018,-1.6247,-1.6006,-1.5885,-1.5885,-1.5885,-1.603,-1.6247,-1.6247,-1.6404,-1.6646,-1.6658,-1.667,-1.6706,-1.696,-1.7068,-1.7105,-1.8433,-1.8433,-1.8433,-1.8433,-1.8433,-1.8433,-1.8433,-1.8358,-1.8261,-1.811,-1.7938,-1.7766,-1.7604,-1.7507,-1.7356,-1.713,-1.7109,-1.6904,-1.6482,-1.6258,-1.5935,-1.5408,-1.5242,-1.5038,-1.4762,-1.4611,-1.4394,-1.4212,-1.3965,-1.3771,-1.3685,-1.3545,-1.348,-1.348,-1.3373,-1.3254,-1.3093,-1.3007,-1.2888,-1.2807,-1.2807,-1.2807,-1.2807,-1.2807,-1.2807,-1.2807,-1.2807,-1.2807,-1.2807,-1.2807,-1.2807,-1.284,-1.2931,-1.2974,-1.3007,-1.3207,-1.3211,-1.3211,-1.3211,-1.3093,-1.2974,-1.2974,-1.3093,-1.3211,-1.3211,-1.3211,-1.3211,-1.3211,-1.3211,-1.3211,-1.3211,-1.3211,-1.3211,-1.3211,-1.3374,-1.359,-1.3929,-1.417,-1.443,-1.4882,-1.4956,-1.4992,-1.5101,-1.5113,-1.5113,-1.5113,-1.5258,-1.5354,-1.5354,-1.5596,-1.5789,-1.5885,-1.5946,-1.603,-1.6127,-1.6151,-1.6284,-1.6537,-1.6441,-1.6441,-1.6537,-1.6441,-1.6392,-1.6392,-1.6392,-1.6453,-1.6537,-1.6537,-1.661,-1.6718,-1.6875,-1.6948,-1.6972,-1.7237,-1.7334,-1.7346,-1.8433,-1.8433,-1.8433,-1.8433,-1.8433,-1.8433,-1.8433,-1.8433,-1.8379,-1.8218,-1.8142,-1.8024,-1.7852,-1.7766,-1.7658,-1.7496,-1.7421,-1.7206,-1.6797,-1.6409,-1.5946,-1.5328,-1.5306,-1.5246,-1.5009,-1.4781,-1.4663,-1.4643,-1.432,-1.4116,-1.404,-1.3879,-1.3771,-1.3696,-1.362,-1.3491,-1.333,-1.3254,-1.3136,-1.3034,-1.3034,-1.3034,-1.3034,-1.3034,-1.3034,-1.3034,-1.3034,-1.3034,-1.3034,-1.3034,-1.3034,-1.3067,-1.3168,-1.3222,-1.3254,-1.3427,-1.348,-1.348,-1.348,-1.3405,-1.3308,-1.3243,-1.3351,-1.348,-1.348,-1.348,-1.348,-1.348,-1.348,-1.348,-1.348,-1.3583,-1.3623,-1.3623,-1.3919,-1.4225,-1.4389,-1.4644,-1.4934,-1.517,-1.5234,-1.527,-1.5342,-1.5354,-1.5354,-1.5354,-1.5596,-1.5777,-1.5873,-1.6042,-1.6151,-1.6151,-1.632,-1.6453,-1.6537,-1.6465,-1.6561,-1.6827,-1.6742,-1.6742,-1.6827,-1.6742,-1.6706,-1.6706,-1.6706,-1.6742,-1.6827,-1.6827,-1.6875,-1.696,-1.7141,-1.7213,-1.7237,-1.7418,-1.7479,-1.7479,-1.8433,-1.8433,-1.8433,-1.8433,-1.8433,-1.8433,-1.8433,-1.8433,-1.8433,-1.8433,-1.8239,-1.8099,-1.8099,-1.7873,-1.7723,-1.7723,-1.7507,-1.727,-1.7023,-1.6344,-1.5909,-1.5612,-1.5601,-1.5494,-1.5199,-1.5188,-1.507,-1.4891,-1.488,-1.4762,-1.448,-1.448,-1.4417,-1.4191,-1.3943,-1.3825,-1.3803,-1.3577,-1.348,-1.348,-1.348,-1.348,-1.348,-1.348,-1.348,-1.348,-1.348,-1.348,-1.348,-1.348,-1.348,-1.348,-1.348,-1.3532,-1.348,-1.348,-1.348,-1.3491,-1.3491,-1.3653,-1.3771,-1.3534,-1.348,-1.348,-1.348,-1.348,-1.348,-1.3491,-1.3491,-1.3542,-1.3542,-1.3737,-1.393,-1.393,-1.4338,-1.4706,-1.4706,-1.4961,-1.5209,-1.5475,-1.5499,-1.5608,-1.5861,-1.5897,-1.5897,-1.5897,-1.6139,-1.6404,-1.6682,-1.6706,-1.6706,-1.6706,-1.6706,-1.6827,-1.7092,-1.6839,-1.6839,-1.7092,-1.6827,-1.6839,-1.708,-1.6827,-1.6706,-1.6706,-1.6706,-1.6851,-1.7092,-1.7092,-1.7249,-1.7479,-1.7479,-1.7479,-1.7479,-1.7479,-1.7479,-1.7479,-1.8433,-1.8433,-1.8433,-1.8433,-1.8433,-1.8433,-1.8433,-1.8433,-1.8433,-1.8433,-1.8379,-1.8336,-1.8336,-1.8272,-1.8153,-1.7992,-1.7755,-1.7378,-1.6807,-1.6634,-1.6331,-1.592,-1.5688,-1.5569,-1.5494,-1.5274,-1.5156,-1.5081,-1.4966,-1.4848,-1.4783,-1.4783,-1.474,-1.4665,-1.4428,-1.4234,-1.4062,-1.3825,-1.3631,-1.348,-1.348,-1.348,-1.348,-1.348,-1.348,-1.348,-1.348,-1.348,-1.348,-1.348,-1.348,-1.3502,-1.3663,-1.3993,-1.4283,-1.4283,-1.4565,-1.4806,-1.4806,-1.504,-1.4965,-1.3963,-1.3846,-1.3976,-1.3976,-1.4135,-1.4327,-1.4504,-1.4698,-1.4916,-1.5085,-1.5174,-1.5217,-1.5217,-1.5406,-1.5517,-1.5517,-1.5618,-1.568,-1.5765,-1.5934,-1.6079,-1.6151,-1.6344,-1.6453,-1.6453,-1.6537,-1.661,-1.6694,-1.6706,-1.6706,-1.6706,-1.6875,-1.7008,-1.7092,-1.7008,-1.7105,-1.737,-1.7286,-1.7286,-1.7358,-1.7286,-1.7249,-1.7249,-1.7249,-1.7298,-1.737,-1.737,-1.7406,-1.7479,-1.7479,-1.7479,-1.7479,-1.7479,-1.7479,-1.7479,-1.8455,-1.8509,-1.8573,-1.8573,-1.8573,-1.8573,-1.8573,-1.8498,-1.8433,-1.8433,-1.8433,-1.8433,-1.8433,-1.8433,-1.8379,-1.8239,-1.7916,-1.7496,-1.698,-1.6764,-1.6601,-1.6309,-1.6011,-1.5795,-1.5601,-1.5461,-1.5386,-1.5386,-1.5235,-1.5117,-1.5031,-1.5031,-1.4977,-1.488,-1.474,-1.4656,-1.4669,-1.4375,-1.4296,-1.4259,-1.4259,-1.4259,-1.427,-1.4369,-1.4403,-1.4392,-1.4292,-1.4272,-1.4243,-1.4144,-1.4177,-1.4276,-1.4515,-1.4821,-1.5053,-1.5053,-1.5331,-1.5555,-1.5555,-1.5669,-1.5613,-1.4778,-1.4734,-1.4845,-1.4845,-1.4955,-1.5098,-1.5299,-1.5444,-1.5601,-1.5749,-1.5896,-1.6009,-1.6009,-1.6116,-1.6244,-1.6244,-1.621,-1.6211,-1.6211,-1.6356,-1.6441,-1.6441,-1.6598,-1.6742,-1.6851,-1.6851,-1.6899,-1.7008,-1.7008,-1.7008,-1.7008,-1.7165,-1.7249,-1.7249,-1.7249,-1.7322,-1.7479,-1.7479,-1.7479,-1.7479,-1.7479,-1.7479,-1.7479,-1.7479,-1.7479,-1.7479,-1.7479,-1.7479,-1.7479,-1.7479,-1.7479,-1.7479,-1.7479,-1.7479,-1.7479,-1.8541,-1.867,-1.8821,-1.8821,-1.8821,-1.881,-1.8789,-1.8605,-1.8455,-1.8363,-1.8433,-1.8433,-1.8433,-1.8433,-1.8433,-1.8433,-1.8013,-1.7647,-1.74,-1.6969,-1.671,-1.6731,-1.6463,-1.6129,-1.5677,-1.5645,-1.5634,-1.5634,-1.5612,-1.5494,-1.522,-1.522,-1.516,-1.4945,-1.498,-1.5139,-1.5422,-1.5177,-1.5232,-1.5441,-1.5441,-1.5441,-1.5464,-1.5692,-1.5772,-1.5749,-1.5521,-1.5434,-1.5423,-1.5155,-1.5222,-1.5456,-1.5727,-1.584,-1.584,-1.584,-1.5851,-1.5931,-1.5931,-1.5942,-1.5965,-1.5965,-1.5965,-1.5942,-1.584,-1.584,-1.584,-1.5863,-1.5919,-1.5931,-1.5954,-1.6191,-1.6428,-1.6428,-1.6574,-1.6742,-1.6742,-1.6718,-1.6706,-1.6706,-1.6718,-1.6742,-1.6742,-1.6754,-1.6875,-1.7105,-1.7129,-1.7237,-1.7467,-1.7479,-1.7479,-1.7479,-1.7503,-1.7515,-1.7515,-1.7515,-1.7503,-1.7479,-1.7479,-1.7479,-1.7479,-1.7479,-1.7479,-1.7479,-1.7479,-1.7479,-1.7491,-1.7503,-1.7515,-1.7515,-1.7539,-1.7551,-1.7551,-1.7551,-1.7551,-1.7551,-1.8932,-1.8964,-1.8996,-1.8996,-1.8996,-1.9004,-1.881,-1.8735,-1.8638,-1.8455,-1.8433,-1.8433,-1.8433,-1.8433,-1.8433,-1.8433,-1.8175,-1.783,-1.741,-1.7281,-1.7055,-1.6742,-1.6614,-1.6452,-1.6161,-1.5968,-1.5931,-1.5931,-1.5688,-1.5569,-1.5526,-1.5526,-1.5494,-1.544,-1.5478,-1.5563,-1.561,-1.5637,-1.5647,-1.5692,-1.5692,-1.5692,-1.5704,-1.5761,-1.5772,-1.5772,-1.5715,-1.5738,-1.5716,-1.5659,-1.5682,-1.5727,-1.5783,-1.6009,-1.6189,-1.6189,-1.6499,-1.6825,-1.6825,-1.698,-1.7135,-1.7135,-1.7135,-1.6912,-1.5977,-1.6009,-1.6236,-1.6435,-1.6653,-1.6896,-1.7099,-1.7193,-1.7252,-1.7252,-1.7083,-1.7008,-1.7008,-1.6827,-1.6706,-1.6706,-1.6887,-1.7008,-1.7008,-1.7189,-1.7334,-1.7394,-1.7394,-1.7418,-1.7479,-1.7479,-1.7479,-1.7479,-1.7684,-1.7793,-1.7793,-1.7793,-1.7684,-1.7479,-1.7479,-1.7479,-1.7479,-1.7479,-1.7479,-1.7479,-1.7479,-1.7479,-1.7503,-1.7708,-1.7793,-1.7817,-1.8034,-1.8118,-1.8118,-1.8118,-1.8118,-1.8118,-1.9103,-1.9168,-1.9316,-1.9316,-1.9316,-1.9273,-1.9144,-1.8928,-1.8735,-1.8616,-1.8509,-1.8433,-1.8433,-1.8433,-1.8433,-1.8433,-1.8229,-1.7938,-1.7561,-1.7443,-1.7217,-1.684,-1.6829,-1.6764,-1.6646,-1.6409,-1.6298,-1.6118,-1.5881,-1.5763,-1.5763,-1.5834,-1.5839,-1.5839,-1.599,-1.6168,-1.6332,-1.6241,-1.6251,-1.6421,-1.6421,-1.6421,-1.6433,-1.6551,-1.6598,-1.6586,-1.6468,-1.6308,-1.6205,-1.6333,-1.6379,-1.6379,-1.654,-1.6724,-1.6896,-1.6896,-1.705,-1.7274,-1.7274,-1.7382,-1.7479,-1.7479,-1.7479,-1.7348,-1.6726,-1.6782,-1.6932,-1.7076,-1.7216,-1.7322,-1.7455,-1.7479,-1.7479,-1.7479,-1.737,-1.7274,-1.7274,-1.7165,-1.7068,-1.7068,-1.7201,-1.7322,-1.7455,-1.7587,-1.772,-1.7853,-1.7865,-1.7865,-1.7865,-1.7865,-1.7865,-1.7865,-1.7998,-1.807,-1.807,-1.807,-1.801,-1.7865,-1.7612,-1.7479,-1.7479,-1.7479,-1.7479,-1.7479,-1.7479,-1.7551,-1.7684,-1.7817,-1.795,-1.8094,-1.8239,-1.83,-1.83,-1.83,-1.83,-1.83,-1.9305,-1.9424,-1.9564,-1.9564,-1.9564,-1.9542,-1.951,-1.9165,-1.8896,-1.8853,-1.8638,-1.8498,-1.8498,-1.8455,-1.8433,-1.8433,-1.8261,-1.8046,-1.7798,-1.7604,-1.7367,-1.7077,-1.7066,-1.7044,-1.7001,-1.6818,-1.6603,-1.6377,-1.619,-1.6111,-1.6067,-1.6171,-1.6179,-1.6194,-1.649,-1.6726,-1.7009,-1.6832,-1.6922,-1.7165,-1.7165,-1.7165,-1.7177,-1.7406,-1.7479,-1.7455,-1.7237,-1.698,-1.6773,-1.7009,-1.7079,-1.7138,-1.7432,-1.7515,-1.7551,-1.7551,-1.7587,-1.7624,-1.7624,-1.7624,-1.7624,-1.7624,-1.7624,-1.7624,-1.7624,-1.7551,-1.7479,-1.7479,-1.7515,-1.7551,-1.7551,-1.7587,-1.7624,-1.7624,-1.7624,-1.7624,-1.7624,-1.7575,-1.7563,-1.7612,-1.7624,-1.7708,-1.7925,-1.795,-1.8046,-1.8275,-1.83,-1.83,-1.83,-1.83,-1.83,-1.83,-1.8336,-1.836,-1.836,-1.836,-1.836,-1.836,-1.7853,-1.7624,-1.7624,-1.7624,-1.7624,-1.7624,-1.7624,-1.7744,-1.795,-1.7998,-1.8155,-1.836,-1.8408,-1.8432,-1.8432,-1.8432,-1.8432,-1.8432,-1.9833,-1.9854,-1.9876,-1.9876,-1.9876,-1.9811,-1.9531,-1.9445,-1.9327,-1.906,-1.8885,-1.8735,-1.8735,-1.8552,-1.8433,-1.8433,-1.8412,-1.8293,-1.8056,-1.8013,-1.7798,-1.7346,-1.7324,-1.7227,-1.7012,-1.6969,-1.684,-1.6677,-1.6688,-1.658,-1.637,-1.6639,-1.6683,-1.6478,-1.6785,-1.6961,-1.702,-1.7267,-1.743,-1.743,-1.743,-1.743,-1.743,-1.7467,-1.7479,-1.7479,-1.7443,-1.743,-1.7372,-1.7408,-1.742,-1.742,-1.7479,-1.7636,-1.7817,-1.7817,-1.7998,-1.8179,-1.8179,-1.8179,-1.8179,-1.8179,-1.8179,-1.8179,-1.8179,-1.7817,-1.7479,-1.7479,-1.766,-1.7817,-1.7817,-1.8022,-1.8179,-1.8179,-1.8179,-1.8179,-1.8179,-1.7974,-1.7913,-1.8155,-1.8179,-1.8191,-1.8227,-1.8239,-1.8251,-1.8287,-1.83,-1.83,-1.83,-1.83,-1.83,-1.83,-1.8517,-1.8638,-1.8638,-1.8638,-1.8638,-1.8625,-1.8324,-1.8179,-1.8179,-1.8179,-1.8179,-1.8179,-1.8179,-1.8203,-1.8251,-1.8481,-1.8601,-1.865,-1.8879,-1.8976,-1.8976,-1.8976,-1.8976,-1.8976,-1.9919,-1.9919,-1.9919,-1.9919,-1.9919,-1.9887,-1.9704,-1.9585,-1.9456,-1.9359,-1.9015,-1.8789,-1.8789,-1.8573,-1.8433,-1.8433,-1.8433,-1.8336,-1.811,-1.8099,-1.7938,-1.7583,-1.7572,-1.7453,-1.7217,-1.7402,-1.7412,-1.7182,-1.7055,-1.7066,-1.7151,-1.7311,-1.7236,-1.6993,-1.7351,-1.7446,-1.7315,-1.7432,-1.7479,-1.7479,-1.7479,-1.7479,-1.7479,-1.7479,-1.7479,-1.7479,-1.7479,-1.7479,-1.7503,-1.7648,-1.7696,-1.7732,-1.7889,-1.801,-1.8106,-1.8106,-1.8191,-1.83,-1.83,-1.83,-1.83,-1.83,-1.83,-1.83,-1.83,-1.8106,-1.7937,-1.7937,-1.8022,-1.8106,-1.8106,-1.8215,-1.83,-1.83,-1.83,-1.83,-1.83,-1.8191,-1.8155,-1.8275,-1.83,-1.8348,-1.8505,-1.8517,-1.8577,-1.8722,-1.8734,-1.8734,-1.8734,-1.8734,-1.8734,-1.8734,-1.9032,-1.9208,-1.9208,-1.941,-1.9473,-1.9473,-1.9361,-1.8951,-1.83,-1.83,-1.83,-1.83,-1.83,-1.8384,-1.8517,-1.8638,-1.877,-1.8915,-1.9024,-1.9072,-1.9072,-1.9072,-1.9072,-1.9072]},{"header":{"parameterUnit":"m.s-1","parameterCategory":1,"la1":30.6,"la2":28.766,"lo1":-90.7593,"lo2":-88.6598,"dy":0.0162,"dx":0.0183,"nx":116,"ny":114,"refTime":"2023-10-08T12:00:00:Z","depth":0,"parameterNumber":3,"parameterNumberName":"V-component_of_WINDS"},"data":[0.0,0.0,0.0,0.0,0.0,0.0,0.0,0.0,0.0,0.0,0.0,0.0,0.0,0.0,0.0,0.0,0.0,0.0,0.0,0.0,0.0,0.0,0.0,0.0,0.0,0.0,0.0,0.0,0.0,0.0,0.0,0.0,0.0,0.0,0.0,0.0,0.0,0.0,0.0,0.0,0.0,0.0,0.0,0.0,0.0,0.0,0.0,0.0,0.0,0.0,0.0,0.0,0.0,0.0,0.0,0.0,0.0,0.0,0.0,0.0,0.0,0.0,0.0,0.0,0.0,0.0,0.0,0.0,0.0,0.0,0.0,0.0,0.0,0.0,0.0,0.0,0.0,0.0,0.0,0.0,0.0,0.0,0.0,0.0,0.0,0.0,0.0,0.0,0.0,0.0,0.0,0.0,0.0,0.0,0.0,0.0,0.0,0.0,0.0,0.0,0.0,0.0,0.0,0.0,0.0,0.0,0.0,0.0,0.0,0.0,0.0,0.0,0.0,0.0,0.0,0.0,0.0,0.0,0.0,0.0,0.0,0.0,0.0,0.0,0.0,0.0,0.0,0.0,0.0,0.0,0.0,0.0,0.0,0.0,0.0,0.0,0.0,0.0,0.0,0.0,0.0,0.0,0.0,0.0,0.0,0.0,0.0,0.0,0.0,0.0,0.0,0.0,0.0,0.0,0.0,0.0,0.0,0.0,0.0,0.0,0.0,0.0,0.0,0.0,0.0,0.0,0.0,0.0,0.0,0.0,0.0,0.0,0.0,0.0,0.0,0.0,0.0,0.0,0.0,0.0,0.0,0.0,0.0,0.0,0.0,0.0,0.0,0.0,0.0,0.0,0.0,0.0,0.0,0.0,0.0,0.0,0.0,0.0,0.0,0.0,0.0,0.0,0.0,0.0,0.0,0.0,0.0,0.0,0.0,0.0,0.0,0.0,0.0,0.0,0.0,0.0,0.0,0.0,0.0,0.0,0.0,0.0,0.0,0.0,0.0,0.0,0.0,0.0,0.0,0.0,0.0,0.0,0.0,0.0,0.0,0.0,0.0,0.0,0.0,0.0,0.0,0.0,0.0,0.0,0.0,0.0,0.0,0.0,0.0,0.0,0.0,0.0,0.0,0.0,0.0,0.0,0.0,0.0,0.0,0.0,0.0,0.0,0.0,0.0,0.0,0.0,0.0,0.0,0.0,0.0,0.0,0.0,0.0,0.0,0.0,0.0,0.0,0.0,0.0,0.0,0.0,0.0,0.0,0.0,0.0,0.0,0.0,0.0,0.0,0.0,0.0,0.0,0.0,0.0,0.0,0.0,0.0,0.0,0.0,0.0,0.0,0.0,0.0,0.0,0.0,0.0,0.0,0.0,0.0,0.0,0.0,0.0,0.0,0.0,0.0,0.0,0.0,0.0,0.0,0.0,0.0,0.0,0.0,0.0,0.0,0.0,0.0,0.0,0.0,0.0,0.0,0.0,0.0,0.0,0.0,0.0,0.0,0.0,0.0,0.0,0.0,0.0,0.0,0.0,0.0,0.0,0.0,0.0,0.0,0.0,0.0,0.0,0.0,0.0,0.0,0.0,0.0,0.0,0.0,0.0,0.0,0.0,0.0,0.0,0.0,0.0,0.0,0.0,0.0,0.0,0.0,0.0,0.0,0.0,0.0,0.0,0.0,0.0,0.0,0.0,0.0,0.0,0.0,0.0,0.0,0.0,0.0,0.0,0.0,0.0,0.0,0.0,0.0,0.0,0.0,0.0,0.0,0.0,0.0,0.0,0.0,0.0,0.0,0.0,0.0,0.0,0.0,0.0,0.0,0.0,0.0,0.0,0.0,0.0,0.0,0.0,0.0,0.0,0.0,0.0,0.0,0.0,0.0,0.0,0.0,0.0,0.0,0.0,0.0,0.0,0.0,0.0,0.0,0.0,0.0,0.0,0.0,0.0,0.0,0.0,0.0,0.0,0.0,0.0,0.0,0.0,0.0,0.0,0.0,0.0,0.0,0.0,0.0,0.0,0.0,0.0,0.0,0.0,0.0,0.0,0.0,0.0,0.0,0.0,0.0,0.0,0.0,0.0,0.0,0.0,0.0,0.0,0.0,0.0,0.0,0.0,0.0,0.0,0.0,0.0,0.0,0.0,0.0,0.0,0.0,0.0,0.0,0.0,0.0,0.0,0.0,0.0,0.0,0.0,0.0,0.0,0.0,0.0,0.0,0.0,0.0,0.0,0.0,0.0,0.0,0.0,0.0,0.0,0.0,0.0,0.0,0.0,0.0,0.0,0.0,0.0,0.0,0.0,0.0,0.0,0.0,0.0,0.0,0.0,0.0,0.0,0.0,0.0,0.0,0.0,0.0,0.0,0.0,0.0,0.0,0.0,0.0,0.0,0.0,0.0,0.0,0.0,0.0,0.0,0.0,0.0,0.0,0.0,0.0,0.0,0.0,0.0,0.0,0.0,0.0,0.0,0.0,0.0,0.0,0.0,0.0,0.0,0.0,0.0,0.0,0.0,0.0,0.0,0.0,0.0,0.0,0.0,0.0,0.0,0.0,0.0,0.0,0.0,0.0,0.0,0.0,0.0,0.0,0.0,0.0,0.0,0.0,0.0,0.0,0.0,0.0,0.0,0.0,0.0,0.0,0.0,0.0,0.0,0.0,0.0,0.0,0.0,0.0,0.0,0.0,0.0,0.0,0.0,0.0,0.0,0.0,0.0,0.0,0.0,0.0,0.0,0.0,0.0,0.0,0.0,0.0,0.0,0.0,0.0,0.0,0.0,0.0,0.0,0.0,0.0,0.0,0.0,0.0,0.0,0.0,0.0,0.0,0.0,0.0,0.0,0.0,0.0,0.0,0.0,0.0,0.0,0.0,0.0,0.0,0.0,0.0,0.0,0.0,0.0,0.0,0.0,0.0,0.0,0.0,0.0,0.0,0.0,0.0,0.0,0.0,0.0,0.0,0.0,0.0,0.0,0.0,0.0,0.0,0.0,0.0,0.0,0.0,0.0,0.0,0.0,0.0,0.0,0.0,0.0,0.0,0.0,0.0,0.0,0.0,0.0,0.0,0.0,0.0,0.0,0.0,0.0,0.0,0.0,0.0,0.0,0.0,0.0,0.0,0.0,0.0,0.0,0.0,0.0,0.0,0.0,0.0,0.0,0.0,0.0,0.0,0.0,0.0,0.0,0.0,0.0,0.0,0.0,0.0,0.0,0.0,0.0,0.0,0.0,0.0,0.0,0.0,0.0,0.0,0.0,0.0,0.0,0.0,0.0,0.0,0.0,0.0,0.0,0.0,0.0,0.0,0.0,0.0,0.0,0.0,0.0,0.0,0.0,0.0,0.0,0.0,0.0,0.0,0.0,0.0,0.0,0.0,0.0,0.0,0.0,0.0,0.0,0.0,0.0,0.0,0.0,0.0,0.0,0.0,0.0,0.0,0.0,0.0,0.0,0.0,0.0,0.0,0.0,0.0,0.0,0.0,0.0,0.0,0.0,0.0,0.0,0.0,0.0,0.0,0.0,0.0,0.0,0.0,0.0,0.0,0.0,0.0,0.0,0.0,0.0,0.0,0.0,0.0,0.0,0.0,0.0,0.0,0.0,0.0,0.0,0.0,0.0,0.0,0.0,0.0,0.0,0.0,0.0,0.0,0.0,0.0,0.0,0.0,0.0,0.0,0.0,0.0,0.0,0.0,0.0,0.0,0.0,0.0,0.0,0.0,0.0,0.0,0.0,0.0,0.0,0.0,0.0,0.0,0.0,0.0,0.0,0.0,0.0,0.0,0.0,0.0,0.0,0.0,0.0,0.0,0.0,0.0,0.0,0.0,0.0,0.0,0.0,0.0,0.0,0.0,0.0,0.0,0.0,0.0,0.0,0.0,0.0,0.0,0.0,0.0,0.0,0.0,0.0,0.0,0.0,0.0,0.0,0.0,0.0,0.0,0.0,0.0,0.0,0.0,0.0,0.0,0.0,0.0,0.0,0.0,0.0,0.0,0.0,0.0,0.0,0.0,0.0,0.0,0.0,0.0,0.0,0.0,0.0,0.0,0.0,0.0,0.0,0.0,0.0,0.0,0.0,0.0,0.0,0.0,0.0,0.0,0.0,0.0,0.0,0.0,0.0,0.0,0.0,0.0,0.0,0.0,0.0,0.0,0.0,0.0,0.0,0.0,0.0,0.0,0.0,0.0,0.0,0.0,0.0,0.0,0.0,0.0,0.0,0.0,0.0,0.0,0.0,0.0,0.0,0.0,0.0,0.0,0.0,0.0,0.0,0.0,0.0,0.0,0.0,0.0,0.0,0.0,0.0,0.0,0.0,0.0,0.0,0.0,0.0,0.0,0.0,0.0,0.0,0.0,0.0,0.0,0.0,0.0,0.0,0.0,0.0,0.0,0.0,0.0,0.0,0.0,0.0,0.0,0.0,0.0,0.0,0.0,0.0,0.0,0.0,0.0,0.0,0.0,0.0,0.0,0.0,0.0,0.0,0.0,0.0,0.0,0.0,0.0,0.0,0.0,0.0,0.0,0.0,0.0,0.0,0.0,0.0,0.0,0.0,0.0,0.0,0.0,0.0,0.0,0.0,0.0,0.0,0.0,0.0,0.0,0.0,0.0,0.0,0.0,0.0,0.0,0.0,0.0,0.0,0.0,0.0,0.0,0.0,0.0,0.0,0.0,0.0,0.0,0.0,0.0,0.0,0.0,0.0,0.0,0.0,0.0,0.0,0.0,0.0,0.0,0.0,0.0,0.0,0.0,0.0,0.0,0.0,0.0,0.0,0.0,0.0,0.0,0.0,0.0,0.0,0.0,0.0,0.0,0.0,0.0,0.0,0.0,0.0,0.0,0.0,0.0,0.0,0.0,0.0,0.0,0.0,0.0,0.0,0.0,0.0,0.0,0.0,0.0,0.0,0.0,0.0,0.0,0.0,0.0,0.0,0.0,0.0,0.0,0.0,0.0,0.0,0.0,0.0,0.0,0.0,0.0,0.0,0.0,0.0,0.0,0.0,0.0,0.0,0.0,0.0,0.0,0.0,0.0,0.0,0.0,0.0,0.0,0.0,0.0,0.0,0.0,0.0,0.0,0.0,0.0,0.0,0.0,0.0,0.0,0.0,0.0,0.0,0.0,0.0,0.0,0.0,0.0,0.0,0.0,0.0,0.0,0.0,0.0,0.0,0.0,0.0,0.0,0.0,0.0,0.0,0.0,0.0,0.0,0.0,0.0,0.0,0.0,0.0,0.0,0.0,0.0,0.0,0.0,0.0,0.0,0.0,0.0,0.0,0.0,0.0,0.0,0.0,0.0,0.0,0.0,0.0,0.0,0.0,0.0,0.0,0.0,0.0,0.0,0.0,0.0,0.0,0.0,0.0,0.0,0.0,0.0,0.0,0.0,0.0,0.0,0.0,0.0,0.0,0.0,0.0,0.0,0.0,0.0,0.0,0.0,0.0,0.0,0.0,0.0,0.0,0.0,0.0,0.0,0.0,0.0,0.0,0.0,0.0,0.0,0.0,0.0,0.0,0.0,0.0,0.0,0.0,0.0,0.0,0.0,0.0,0.0,0.0,0.0,0.0,0.0,0.0,0.0,0.0,0.0,0.0,0.0,0.0,0.0,0.0,0.0,0.0,0.0,0.0,0.0,0.0,0.0,0.0,0.0,0.0,0.0,0.0,0.0,0.0,0.0,0.0,0.0,0.0,0.0,0.0,0.0,0.0,0.0,0.0,0.0,0.0,0.0,0.0,0.0,0.0,0.0,0.0,0.0,0.0,0.0,0.0,0.0,0.0,0.0,0.0,0.0,0.0,0.0,0.0,0.0,0.0,0.0,0.0,0.0,0.0,0.0,0.0,0.0,0.0,0.0,0.0,0.0,0.0,0.0,0.0,0.0,0.0,0.0,0.0,0.0,0.0,0.0,0.0,0.0,0.0,0.0,0.0,0.0,0.0,0.0,0.0,0.0,0.0,0.0,0.0,0.0,0.0,0.0,0.0,0.0,0.0,0.0,0.0,0.0,0.0,0.0,0.0,0.0,0.0,0.0,0.0,0.0,0.0,0.0,0.0,0.0,0.0,0.0,0.0,0.0,0.0,0.0,0.0,0.0,0.0,0.0,0.0,1.3269,1.3248,0.0,0.0,0.0,0.0,0.0,0.0,0.0,0.0,0.0,0.0,0.0,0.0,0.0,0.0,0.0,0.0,0.0,0.0,0.0,0.0,0.0,0.0,0.0,0.0,0.0,0.0,0.0,0.0,0.0,0.0,0.0,0.0,0.0,0.0,0.0,0.0,0.0,0.0,1.4004,1.431,1.4863,1.5171,1.5476,1.5804,0.0,0.0,0.0,0.0,0.0,0.0,0.0,0.0,0.0,0.0,0.0,0.0,0.0,0.0,0.0,0.0,0.0,0.0,0.0,0.0,0.0,0.0,0.0,0.0,0.0,0.0,0.0,0.0,0.0,0.0,0.0,0.0,0.0,0.0,0.0,0.0,0.0,0.0,0.0,0.0,0.0,0.0,0.0,0.0,0.0,0.0,0.0,0.0,0.0,0.0,0.0,0.0,0.0,0.0,0.0,0.0,0.0,0.0,0.0,0.0,0.0,0.0,0.0,0.0,0.0,0.0,0.0,0.0,0.0,0.0,1.4818,1.4494,0.0,0.0,0.0,0.0,0.0,0.0,0.0,0.0,0.0,0.0,0.0,0.0,0.0,0.0,0.0,0.0,0.0,0.0,0.0,0.0,0.0,0.0,0.0,0.0,1.2961,1.2908,1.2944,0.0,0.0,0.0,0.0,0.0,0.0,0.0,0.0,0.0,0.0,1.3939,1.4333,1.4744,1.5225,1.5408,1.5501,1.5568,1.5979,0.0,0.0,0.0,0.0,0.0,0.0,0.0,0.0,0.0,0.0,0.0,0.0,0.0,0.0,0.0,0.0,0.0,0.0,0.0,0.0,0.0,0.0,0.0,0.0,0.0,0.0,0.0,0.0,0.0,0.0,0.0,0.0,0.0,0.0,0.0,0.0,0.0,0.0,0.0,0.0,0.0,0.0,0.0,0.0,0.0,0.0,0.0,0.0,0.0,0.0,0.0,0.0,0.0,0.0,0.0,0.0,0.0,0.0,0.0,0.0,0.0,0.0,0.0,1.8248,1.8355,1.8648,1.848,1.8449,1.849,1.6985,1.6385,1.6376,1.5925,0.0,0.0,0.0,0.0,0.0,0.0,0.0,0.0,0.0,0.0,0.0,0.0,0.0,0.0,0.0,0.0,0.0,0.0,0.0,0.0,0.0,1.3409,1.3668,1.365,1.3972,1.4206,0.0,0.0,0.0,0.0,0.0,0.0,0.0,1.4699,1.463,1.4492,1.486,1.5269,1.5724,1.6033,1.6291,1.6517,1.67,1.6812,1.6864,0.0,0.0,0.0,0.0,0.0,0.0,0.0,0.0,0.0,0.0,0.0,0.0,0.0,0.0,0.0,0.0,0.0,0.0,0.0,0.0,0.0,0.0,0.0,0.0,0.0,0.0,0.0,0.0,0.0,0.0,0.0,0.0,0.0,0.0,0.0,0.0,0.0,0.0,0.0,0.0,0.0,1.5702,1.5631,0.0,0.0,0.0,0.0,0.0,0.0,0.0,0.0,0.0,0.0,0.0,0.0,0.0,1.7781,1.8614,1.8781,1.935,2.0257,2.0223,2.046,2.0857,2.0741,2.0741,2.0849,2.039,0.0,1.8008,1.7091,0.0,0.0,0.0,0.0,0.0,0.0,0.0,0.0,0.0,0.0,0.0,0.0,0.0,0.0,0.0,0.0,0.0,0.0,0.0,0.0,0.0,1.4186,1.4443,1.4272,1.4469,1.47,1.4854,0.0,0.0,0.0,0.0,0.0,1.4834,1.4811,1.4962,1.5277,1.5993,1.671,1.7453,1.7846,1.8305,1.8784,1.8513,1.8063,1.746,1.7186,0.0,0.0,0.0,0.0,0.0,0.0,0.0,0.0,0.0,0.0,0.0,0.0,0.0,0.0,0.0,0.0,0.0,0.0,0.0,0.0,0.0,0.0,0.0,0.0,0.0,0.0,0.0,0.0,0.0,0.0,0.0,0.0,0.0,0.0,0.0,0.0,0.0,0.0,0.0,1.5657,1.5779,1.6317,1.6014,1.5873,0.0,0.0,0.0,0.0,0.0,0.0,0.0,0.0,0.0,1.9085,1.9825,2.0453,2.0852,2.1297,2.1848,2.2513,2.2513,2.2717,2.3042,2.2913,2.2875,2.2929,2.2659,2.2209,2.152,1.9268,1.8447,1.8575,0.0,0.0,0.0,0.0,1.7738,1.7989,0.0,0.0,0.0,0.0,0.0,0.0,0.0,0.0,0.0,0.0,0.0,0.0,1.4362,1.5139,1.5483,1.5017,1.5262,1.5455,1.5456,1.5226,0.0,0.0,0.0,1.504,1.4811,1.4987,1.5485,1.6356,1.7234,1.813,1.9069,1.9487,2.0019,2.0511,2.0136,1.9336,1.8263,1.7578,1.7453,1.7662,0.0,0.0,0.0,0.0,0.0,0.0,0.0,0.0,0.0,0.0,0.0,0.0,0.0,0.0,0.0,0.0,0.0,0.0,0.0,0.0,0.0,0.0,0.0,0.0,0.0,0.0,0.0,0.0,0.0,0.0,0.0,0.0,0.0,0.0,0.0,0.0,0.0,1.6072,1.648,1.7295,1.7103,1.6999,0.0,0.0,0.0,0.0,0.0,0.0,1.9244,2.026,2.1023,2.1394,2.2477,2.311,2.3241,2.3721,2.4112,2.4486,2.4486,2.4583,2.4792,2.4694,2.4613,2.4632,2.4351,2.4387,2.439,2.1372,2.0281,2.0343,1.9143,1.8881,1.9187,1.9187,1.938,1.9624,0.0,0.0,0.0,0.0,0.0,0.0,0.0,0.0,0.0,0.0,0.0,1.4849,1.4779,1.6198,1.6844,1.5991,1.6747,1.6932,1.6197,1.5844,1.5601,1.5491,1.538,1.5131,1.4811,1.5414,1.6443,1.789,1.8392,1.9113,2.0063,2.0355,2.066,2.085,2.0862,2.0319,1.9389,1.8685,1.8148,1.7676,1.7528,0.0,0.0,0.0,0.0,0.0,0.0,0.0,0.0,0.0,0.0,0.0,0.0,0.0,0.0,0.0,0.0,0.0,0.0,0.0,0.0,0.0,0.0,0.0,0.0,0.0,0.0,0.0,0.0,0.0,0.0,0.0,0.0,0.0,0.0,0.0,0.0,0.0,0.0,1.8754,1.9043,0.0,0.0,0.0,0.0,1.9867,1.9976,2.0805,2.2652,2.2826,2.3482,2.492,2.5029,2.5251,2.571,2.5753,2.5775,2.5797,2.5797,2.5797,2.5819,2.5819,2.5819,2.5797,2.5521,2.5422,2.5263,2.3118,2.2355,2.242,2.0871,2.051,2.0788,2.0788,2.0991,2.1356,0.0,0.0,0.0,0.0,0.0,0.0,0.0,0.0,0.0,1.4799,1.5246,1.58,1.6478,1.7415,1.7907,1.7698,1.7661,1.7409,1.6739,1.613,1.5738,1.5649,1.5425,1.5429,1.5706,1.6771,1.7867,1.8916,2.0009,2.0904,2.1525,2.2273,2.2469,2.2273,2.238,2.2129,2.1519,2.0079,1.9325,1.9063,1.8684,1.8312,0.0,0.0,0.0,0.0,0.0,0.0,0.0,0.0,0.0,0.0,0.0,0.0,0.0,0.0,0.0,0.0,0.0,0.0,0.0,0.0,0.0,0.0,0.0,0.0,0.0,0.0,0.0,0.0,0.0,0.0,0.0,0.0,0.0,0.0,0.0,0.0,0.0,2.049,2.0741,0.0,2.1669,2.1559,2.1734,2.2375,2.3023,2.3678,2.4355,2.4989,2.5579,2.6081,2.6387,2.6627,2.6802,2.6802,2.6802,2.6802,2.6802,2.6802,2.6802,2.6802,2.6649,2.6365,2.638,2.6199,2.5886,2.4965,2.4318,2.3845,2.2981,2.288,2.3117,2.2814,2.2831,2.3006,0.0,0.0,0.0,0.0,0.0,0.0,0.0,0.0,1.4599,1.5148,1.582,1.6636,1.7545,1.8537,1.903,1.8783,1.8377,1.7868,1.7239,1.6451,1.5957,1.5913,1.589,1.6143,1.6744,1.8029,1.9091,1.9899,2.121,2.2084,2.2564,2.3313,2.3509,2.3263,2.3718,2.3795,2.359,2.2445,2.1324,2.0334,2.0028,1.9459,1.8785,0.0,0.0,0.0,0.0,0.0,0.0,0.0,0.0,0.0,0.0,0.0,0.0,0.0,0.0,0.0,0.0,0.0,0.0,0.0,0.0,0.0,0.0,0.0,0.0,0.0,0.0,0.0,0.0,0.0,0.0,0.0,0.0,0.0,0.0,2.0117,2.1407,2.287,2.3329,2.3766,2.4399,2.4465,2.4661,2.5101,2.5775,2.6278,2.6648,2.7239,2.7588,2.7588,2.7894,2.796,2.7807,2.7807,2.7719,2.7566,2.7566,2.7479,2.7304,2.7304,2.7151,2.6846,2.68,2.6644,2.6314,2.5953,2.5579,2.5066,2.4582,2.4608,2.4918,2.4593,2.4562,2.4589,0.0,0.0,0.0,0.0,0.0,0.0,0.0,1.4449,1.4599,1.5148,1.6254,1.7231,1.7902,1.9461,2.0136,1.9205,1.8947,1.8458,1.7648,1.687,1.6371,1.6328,1.6788,1.7333,1.792,1.9141,2.0168,2.0938,2.1887,2.2586,2.306,2.3547,2.3766,2.3766,2.4715,2.525,2.5438,2.5704,2.4133,2.1476,2.1477,2.0696,1.9552,0.0,0.0,0.0,0.0,0.0,0.0,0.0,0.0,0.0,0.0,0.0,0.0,0.0,0.0,0.0,0.0,0.0,0.0,0.0,0.0,0.0,0.0,0.0,0.0,0.0,0.0,0.0,0.0,0.0,0.0,0.0,0.0,0.0,2.1016,2.2608,2.4316,2.5797,2.678,2.737,2.737,2.737,2.7544,2.8023,2.8067,2.8481,2.9445,2.951,2.951,2.951,2.951,2.927,2.8858,2.8836,2.8571,2.8045,2.8045,2.7783,2.737,2.737,2.7348,2.7304,2.6824,2.6606,2.654,2.6125,2.6032,2.6152,2.5616,2.5684,2.6031,2.6031,2.6138,2.6127,0.0,0.0,0.0,0.0,0.0,0.0,0.0,1.4576,1.4806,1.5808,1.6535,1.7556,1.9049,1.9976,2.0321,1.9854,1.9318,1.8685,1.7871,1.7062,1.6607,1.6649,1.7484,1.8269,1.8905,2.0358,2.1431,2.2134,2.3091,2.3831,2.4266,2.4887,2.5127,2.4947,2.556,2.574,2.567,2.6141,2.5913,2.5154,2.4342,2.331,2.2263,0.0,0.0,0.0,0.0,0.0,0.0,0.0,0.0,0.0,0.0,0.0,0.0,0.0,0.0,0.0,0.0,0.0,0.0,0.0,0.0,0.0,0.0,0.0,0.0,0.0,0.0,0.0,0.0,0.0,0.0,0.0,2.233,2.3195,2.2936,2.4596,2.6212,2.7282,2.7981,2.8552,2.8855,2.8877,2.9095,2.9576,2.962,2.9729,2.9991,3.0013,3.0013,3.0013,3.0013,2.9947,2.9816,2.9816,2.9576,2.9095,2.9095,2.8833,2.8399,2.8399,2.8178,2.7783,2.7653,2.7216,2.6584,2.6431,2.6339,2.6218,2.6259,2.6431,2.6651,2.6444,2.6131,2.5754,0.0,0.0,0.0,0.0,0.0,0.0,0.0,1.4718,1.502,1.6143,1.6719,1.7623,1.9173,1.9836,2.007,1.9886,1.9212,1.8601,1.8131,1.7657,1.7533,1.7839,1.9031,1.9844,2.0251,2.1963,2.2888,2.3022,2.4024,2.4684,2.499,2.565,2.5933,2.5858,2.6439,2.6708,2.6784,2.7528,2.7892,2.794,2.742,2.6194,2.4582,2.4031,2.3681,2.3367,2.2453,2.2139,2.2008,2.1433,0.0,0.0,0.0,0.0,0.0,0.0,0.0,0.0,0.0,0.0,0.0,0.0,0.0,0.0,0.0,0.0,0.0,0.0,0.0,0.0,0.0,0.0,0.0,0.0,2.4579,2.5719,2.6321,2.7217,2.8156,2.9117,2.9663,3.0078,3.0362,3.0384,3.0493,3.0777,3.0799,3.0799,3.0799,3.0799,3.0712,3.0515,3.0493,3.0406,3.0209,3.0209,3.0057,2.9794,2.9794,2.9532,2.9099,2.9099,2.879,2.8331,2.8089,2.7696,2.7151,2.6737,2.6538,2.6506,0.0,0.0,0.0,0.0,2.6473,2.5991,0.0,0.0,0.0,0.0,0.0,0.0,0.0,1.4886,1.521,1.6294,1.6821,1.7566,1.8768,1.9364,1.9601,1.9431,1.8832,1.8452,1.8435,1.8483,1.8824,1.9479,2.0929,2.1799,2.1918,2.3652,2.4319,2.3846,2.4806,2.5412,2.5645,2.6171,2.6542,2.6804,2.7411,2.7928,2.8418,2.9391,2.9841,3.0046,3.0394,2.9042,2.6719,2.6283,2.5798,2.5306,2.47,2.4435,2.4308,2.3707,0.0,0.0,0.0,0.0,0.0,0.0,0.0,0.0,0.0,0.0,0.0,0.0,0.0,0.0,0.0,0.0,0.0,0.0,0.0,0.0,0.0,0.0,0.0,0.0,2.7023,2.847,3.0122,3.01,3.0188,3.104,3.152,3.176,3.1717,3.1717,3.1695,3.1578,3.1629,3.1629,3.1629,3.1629,0.0,0.0,0.0,3.0777,3.0384,3.0384,3.0341,3.0297,3.0297,3.0035,2.9554,2.951,2.9296,2.8858,2.8331,2.8045,2.7936,2.702,2.6756,2.6858,2.6688,2.6779,2.6985,2.7149,2.6973,2.6622,0.0,0.0,0.0,0.0,0.0,0.0,0.0,1.5117,1.529,1.6425,1.6867,1.7566,1.8768,1.9364,1.9483,1.8995,1.881,1.8665,1.8586,1.9015,1.9754,2.0862,2.1937,2.293,2.3924,2.4553,2.5045,2.5295,2.6069,2.6644,2.7018,2.7577,2.8012,2.8394,2.8778,2.91,2.9391,3.0417,3.1013,3.1381,3.1806,3.0841,2.9041,2.8213,2.7811,2.7654,2.7079,2.6582,2.6086,2.5511,2.4936,2.4207,2.2558,2.159,0.0,0.0,0.0,0.0,0.0,0.0,0.0,0.0,0.0,0.0,0.0,0.0,0.0,0.0,0.0,0.0,0.0,0.0,0.0,2.774,2.8923,3.0105,3.1192,3.1935,3.249,3.2634,3.2721,3.2634,3.2263,3.2241,3.2066,3.1651,3.1629,3.1629,3.1629,3.1629,3.1586,3.1476,3.1476,3.1433,3.1345,3.1345,3.1149,3.0756,3.0756,0.0,3.0057,2.9663,2.9423,2.9314,2.888,2.8396,2.7958,2.7413,2.693,2.6685,2.6802,2.6985,2.719,2.7371,2.7383,2.7284,0.0,0.0,0.0,0.0,0.0,0.0,0.0,1.5433,1.5578,1.6656,1.6826,1.7272,1.8453,1.8734,1.8705,1.8385,1.8337,1.8587,1.9119,1.9962,2.1064,2.243,2.3992,2.4994,2.5443,2.6346,2.6705,2.6566,2.7199,2.7656,2.7956,2.8219,2.8762,2.9548,2.9714,3.0186,3.0888,3.1685,3.2322,3.2809,3.3036,3.2699,3.1832,3.0278,2.9693,2.9572,2.836,2.7717,2.7285,2.6395,2.5869,2.5314,2.3861,2.2857,2.2004,0.0,0.0,0.0,0.0,0.0,0.0,0.0,0.0,0.0,0.0,0.0,0.0,0.0,0.0,2.582,2.7322,0.0,2.8087,3.0011,3.0656,3.1345,3.2547,3.3136,3.3333,3.3146,3.3124,3.3037,3.2743,3.2525,3.2285,3.2022,3.176,3.1738,3.2001,3.176,3.1738,3.2001,3.176,3.1629,3.1629,3.1629,3.1498,3.1258,3.1258,3.1018,3.0537,3.0057,2.9707,2.9445,2.9011,2.8707,2.8514,2.8011,2.7538,2.7095,2.7177,2.7208,2.7231,2.7452,2.751,2.7528,0.0,0.0,0.0,0.0,0.0,0.0,0.0,0.0,1.5859,1.6783,1.6724,1.6984,1.7957,1.8033,1.8016,1.7963,1.8051,1.8602,1.9826,2.1057,2.2502,2.4166,2.6091,2.711,2.7066,2.8186,2.8458,2.7771,2.8282,2.8626,2.8906,2.8922,2.9573,3.0693,3.0819,3.1417,3.2441,3.3008,3.3569,3.4057,3.4084,3.4152,3.4007,3.2026,3.1191,3.0876,2.9249,2.8412,2.7867,2.6797,2.6297,2.5928,2.4873,2.3966,2.3,2.1841,2.063,0.0,0.0,0.0,0.0,0.0,0.0,0.0,0.0,2.5415,2.6256,2.7283,2.7706,2.8386,2.9837,2.9749,3.0079,3.1867,3.2066,3.2459,3.3639,3.3792,3.3639,3.3299,3.3343,3.3365,3.3224,3.2787,3.2481,3.2394,3.1913,3.1848,3.235,3.2001,3.1957,3.2372,3.1979,3.1717,3.1629,3.1629,3.1629,3.1629,3.1629,3.1411,3.1018,3.0472,2.9991,2.9598,2.9102,2.8888,2.8918,2.8633,2.8173,2.7603,2.763,2.7504,2.729,2.7534,2.7632,2.7672,0.0,0.0,0.0,0.0,0.0,0.0,0.0,0.0,0.0,1.6386,1.6603,1.6905,1.7516,1.7949,1.8183,1.8163,1.8556,1.9314,2.0489,2.2086,2.396,2.6076,2.7344,2.8441,2.9409,2.9394,2.9315,2.9164,2.9408,2.9824,3.0363,3.0536,3.1196,3.2197,3.2647,3.3094,3.3483,3.4222,3.4541,3.4624,3.4856,3.4686,3.4073,3.2744,3.1947,3.1362,3.0113,2.8868,2.7723,2.6928,2.6401,2.6005,2.5397,2.4688,2.3882,2.2908,2.1369,1.9915,1.9712,2.0259,2.1169,2.2308,2.3672,2.5033,0.0,2.7546,2.886,2.9441,3.0288,3.1052,3.1482,3.1738,3.2088,3.2592,3.3204,3.3617,3.377,3.3792,3.377,3.3726,3.4098,3.4185,3.3748,3.3268,3.2884,3.2416,3.1913,3.1848,3.235,3.2328,3.2328,3.2394,3.2328,3.2088,3.1578,3.1629,3.1629,3.1629,3.1629,3.1534,3.152,3.0624,3.0188,3.0078,2.9396,2.8828,2.8498,2.888,2.8468,2.7648,2.8045,2.7911,2.751,2.7978,2.8139,2.8139,0.0,0.0,0.0,0.0,0.0,0.0,0.0,0.0,0.0,0.0,1.6943,1.7228,1.7579,1.7979,1.8202,1.8202,1.8383,1.914,2.0708,2.2473,2.4286,2.6158,2.8249,2.9507,2.9802,3.0304,3.0387,3.0088,3.0535,3.088,3.111,3.1561,3.2303,3.3289,3.3485,3.4003,3.4672,3.4993,3.5182,3.5277,3.5009,3.4565,3.3853,3.2357,3.0985,2.9712,2.8619,2.757,0.0,0.0,2.4869,2.4586,2.45,2.4053,2.3417,2.2723,2.1905,2.1156,2.0878,2.1521,2.2604,2.3895,2.5453,2.7065,2.8431,2.988,3.1075,3.1427,3.1991,3.2418,3.2393,3.2499,3.275,3.3131,3.3652,3.401,3.401,3.4173,3.4117,3.369,3.379,3.378,3.3453,3.294,3.27,3.2818,3.2328,3.2394,3.3158,3.294,3.284,3.284,3.2525,3.2132,3.1629,3.1629,3.1629,3.1629,3.1629,3.1629,3.1586,3.0646,2.9904,2.9383,2.934,2.9236,2.9058,2.9239,2.9141,2.8879,2.8901,2.8733,2.8339,2.8258,2.8219,2.8219,0.0,0.0,0.0,0.0,0.0,0.0,0.0,0.0,0.0,0.0,1.7176,1.7641,1.8,1.8245,1.8341,1.8341,1.84,1.9162,2.0844,2.2622,2.4447,2.6313,2.868,3.0025,3.0191,3.0876,3.1125,3.0872,3.1289,3.1576,3.1733,3.2189,3.3028,3.406,3.406,3.458,3.5467,3.5305,3.5305,3.5411,3.4651,3.3892,3.2986,3.1232,2.9333,2.7511,2.68,2.5944,0.0,0.0,2.3013,2.2901,2.319,2.294,2.2505,2.2106,2.1807,2.1702,2.1819,2.2711,2.4014,2.5552,2.7239,2.8996,3.0525,3.1739,3.2654,3.3007,3.3215,3.3291,3.3089,3.2982,3.3044,3.3473,3.3937,3.4238,3.419,3.4352,3.4173,3.3576,3.324,3.2994,3.2836,3.2556,3.2569,3.3081,3.2634,3.2787,3.3748,3.3464,3.3268,3.3268,3.2809,3.2328,3.1848,3.1695,3.1629,3.1629,3.1629,3.1542,3.1389,3.045,2.9602,2.8885,2.9301,2.9531,2.96,2.9759,2.9773,2.9788,2.9718,2.9503,2.9172,2.8664,2.8418,2.8299,0.0,0.0,0.0,0.0,0.0,0.0,0.0,0.0,0.0,0.0,0.0,0.0,0.0,1.8807,1.8673,1.8673,1.8971,1.9718,2.099,2.2674,2.4667,2.7065,2.8446,2.9772,3.1143,3.1189,3.1308,3.1559,3.1585,3.1878,3.2384,3.241,3.3165,3.4485,3.4485,3.4928,3.5642,3.5073,3.4829,3.4721,3.3593,3.2463,3.1178,2.936,2.7189,2.5127,2.5072,0.0,2.291,2.1552,2.1145,2.1245,2.1561,2.1484,0.0,2.1149,2.0864,2.0888,2.236,2.3826,2.5414,2.7245,2.9022,3.068,3.2019,3.2757,3.331,3.3838,3.3786,3.3694,3.3645,3.3407,3.3286,3.3566,3.3958,3.4213,3.4276,3.4072,3.3817,3.3634,3.2677,3.2059,3.2009,3.2265,3.2569,3.3081,3.2634,3.2787,3.3748,3.3792,3.377,3.377,3.3289,3.2831,3.2372,3.187,3.1629,3.1629,3.1629,3.1367,3.0887,2.9947,2.9368,2.9117,2.9393,2.9646,2.992,3.0397,3.0252,2.9855,3.0292,3.02,2.9743,2.9402,2.8955,2.8483,0.0,0.0,0.0,0.0,0.0,0.0,0.0,0.0,0.0,0.0,0.0,0.0,0.0,0.0,0.0,0.0,1.8921,1.9304,2.0125,2.1406,2.2808,2.4352,2.6327,2.7732,2.8533,2.9767,3.0439,3.0556,3.1346,3.1837,3.2027,3.2409,3.2855,3.3301,3.3301,3.3448,3.3686,3.3495,3.3166,3.2663,3.1932,3.0644,2.8967,2.7163,2.5244,2.3326,0.0,0.0,2.1183,2.0187,1.9772,1.9725,2.0217,2.0202,2.0229,2.1324,2.1824,2.2432,2.4402,2.5759,2.718,2.9401,3.1018,3.2324,3.3315,3.4053,3.4388,3.3887,3.3718,3.3383,3.2298,3.254,3.2803,3.2362,3.3536,3.4429,3.4124,3.4509,3.4481,3.3719,3.3161,3.2645,3.2066,3.1936,3.2219,3.3059,3.2971,3.3268,3.4229,3.4272,3.4141,3.3814,3.3311,3.2853,3.2394,3.187,3.1629,3.1629,3.1302,3.0734,2.9947,2.962,2.9346,2.9117,2.9393,2.9715,3.0148,3.0623,3.0953,3.1273,3.1428,3.1374,3.1143,3.0929,3.0252,2.9407,0.0,0.0,0.0,0.0,0.0,0.0,0.0,0.0,0.0,0.0,0.0,0.0,0.0,0.0,0.0,0.0,0.0,1.9152,1.9724,0.0,2.1654,2.2752,2.4649,2.5995,2.6658,2.8069,2.8837,2.8994,2.9793,3.0152,3.0152,3.0565,3.0951,3.1364,3.1364,3.1612,3.1998,3.1557,3.1144,3.0642,2.9656,2.8278,2.6622,2.5053,2.3317,0.0,0.0,0.0,1.9603,1.9005,1.8742,1.8748,1.9382,1.9798,2.0398,2.1865,2.3036,2.4268,2.6145,2.7818,2.9406,3.1135,3.2427,3.3456,3.4202,3.4447,3.4335,3.3672,3.3148,3.2485,3.1404,3.1575,3.1879,3.1809,3.3193,3.4282,3.4244,3.4982,3.5118,3.4111,3.3781,3.332,3.274,3.2405,3.2427,3.3059,3.3124,3.3486,3.4469,3.4534,3.4382,3.4076,3.342,3.2971,3.2634,3.1957,3.1629,3.1556,3.1052,3.0466,2.9873,2.9711,2.9566,2.9485,2.9852,3.0261,3.0734,3.1315,3.1845,3.237,3.2544,3.2603,3.2491,3.2189,3.1622,3.0842,0.0,0.0,0.0,0.0,0.0,0.0,0.0,0.0,0.0,0.0,0.0,0.0,0.0,0.0,0.0,0.0,0.0,0.0,1.9843,0.0,0.0,2.2324,2.3405,2.4523,2.5545,2.6106,2.6548,2.701,2.7037,2.7065,2.7065,2.7065,2.7671,2.8774,2.8801,2.9408,3.04,2.927,2.8774,2.8553,2.6846,2.5439,2.4197,2.3064,0.0,0.0,0.0,0.0,1.8238,1.8017,1.812,1.8427,1.9051,2.0308,2.1789,2.2871,2.4478,2.6273,2.7646,2.986,3.1915,3.2515,3.3365,3.4231,3.4645,3.397,3.3243,3.3073,3.2024,3.1073,3.0936,3.0558,3.0639,3.1845,3.2873,3.3791,3.4617,3.55,3.5776,3.4992,3.4434,3.4101,3.4101,3.3588,3.3272,3.3231,3.3222,3.3584,3.4469,3.459,3.4568,3.4534,3.3628,3.3124,3.3124,3.2162,3.1659,3.1637,3.0992,3.0626,3.0607,3.0142,3.0057,3.0261,3.0758,3.1205,3.1713,3.2457,3.2864,3.3122,3.3573,3.3768,3.3691,3.3152,3.2947,3.2685,0.0,0.0,0.0,0.0,0.0,0.0,0.0,0.0,0.0,0.0,0.0,0.0,0.0,0.0,0.0,0.0,0.0,0.0,1.9533,0.0,0.0,0.0,0.0,0.0,0.0,0.0,0.0,2.4382,2.4888,2.5113,2.5113,2.5008,2.5124,2.5432,2.5964,2.6049,2.5909,2.6159,2.5707,2.4805,0.0,2.342,2.2258,0.0,0.0,0.0,0.0,0.0,1.9029,1.8554,1.9104,2.0116,2.0868,2.2335,2.3992,2.529,2.6862,2.8638,3.0791,3.2136,3.3165,3.4524,3.4988,3.4973,3.4119,3.3505,3.2787,3.152,3.0555,2.985,2.9621,2.9535,2.9888,3.117,3.2777,3.4167,3.5091,3.638,3.6897,3.6113,3.5881,3.5534,3.4969,3.4762,3.4866,3.5214,3.4834,3.4751,3.5157,3.5323,3.529,3.4869,3.4136,3.3626,3.3413,3.2804,3.2414,3.2279,3.1692,3.1263,3.09,3.056,3.0623,3.1026,3.1294,3.1889,3.2649,3.3061,3.3556,3.4037,3.4189,3.4314,3.4413,3.409,3.3777,3.332,0.0,0.0,0.0,0.0,0.0,0.0,0.0,0.0,0.0,0.0,0.0,0.0,0.0,0.0,0.0,0.0,0.0,0.0,0.0,0.0,0.0,0.0,0.0,0.0,0.0,0.0,0.0,0.0,0.0,0.0,2.278,2.271,2.2828,2.306,2.3453,2.3567,2.3457,2.3615,0.0,0.0,0.0,0.0,0.0,0.0,0.0,0.0,0.0,0.0,0.0,2.0735,2.1303,2.1963,2.3226,2.4648,2.6153,2.7406,2.9272,3.1212,3.2699,3.3929,3.4943,3.5478,3.5239,3.4607,3.3624,3.238,3.1177,3.0137,2.9049,2.838,2.8446,2.8646,2.9336,3.1057,3.2916,3.464,3.5952,3.7143,3.7733,3.7367,3.7243,3.7003,3.6621,3.6518,3.6629,3.7207,3.6144,3.5673,3.6122,3.6286,3.62,3.573,3.5145,3.4509,3.3921,3.3384,3.3235,3.3326,3.2909,3.2488,3.2087,3.2067,3.2063,3.2064,3.25,3.3061,3.3658,3.4279,3.4805,3.5251,3.5599,3.5672,3.5515,3.539,3.5018,3.4445,0.0,0.0,0.0,0.0,0.0,0.0,0.0,0.0,0.0,0.0,0.0,0.0,0.0,0.0,0.0,0.0,0.0,0.0,0.0,0.0,0.0,0.0,0.0,0.0,0.0,0.0,0.0,0.0,0.0,0.0,0.0,0.0,0.0,0.0,0.0,0.0,0.0,0.0,0.0,0.0,0.0,0.0,0.0,0.0,0.0,0.0,0.0,0.0,0.0,0.0,2.3814,2.3853,2.5753,2.7162,2.8378,2.9581,3.1625,3.3598,3.4054,3.5482,3.6668,3.5916,3.4943,3.3882,3.2954,3.0917,2.9096,2.8624,2.7357,2.6606,2.7289,2.7709,2.8715,3.1063,3.3013,3.4853,3.6647,3.7732,3.8454,3.8579,3.8517,3.8486,3.8665,3.8461,3.8533,3.9028,3.7569,3.6838,3.737,3.7394,3.7263,3.6865,3.642,3.5746,3.4765,3.4322,3.4286,3.4751,3.4485,3.4163,3.386,3.4065,3.3864,3.3376,3.4075,3.4497,3.4721,3.5721,3.6282,3.6545,3.7226,3.7202,3.6714,3.6632,3.628,3.5724,0.0,0.0,0.0,0.0,0.0,0.0,0.0,0.0,0.0,0.0,1.8166,1.8515,0.0,0.0,0.0,0.0,0.0,0.0,0.0,0.0,0.0,0.0,0.0,0.0,0.0,1.9581,1.962,1.962,1.962,0.0,0.0,0.0,0.0,0.0,0.0,0.0,0.0,0.0,0.0,0.0,0.0,0.0,0.0,0.0,0.0,0.0,0.0,0.0,0.0,0.0,2.4996,2.5661,2.8052,2.9496,3.0711,3.2659,3.3814,3.4823,3.6216,3.6864,3.6956,3.6378,3.5617,3.4292,3.1636,2.9628,2.7885,2.6348,2.5018,2.4546,2.5738,2.616,2.7247,3.0153,3.2144,3.4053,3.6133,3.7844,3.8977,3.9254,3.9772,4.0084,4.0083,4.0007,4.0134,4.0516,4.0211,3.9675,3.8847,3.9028,3.8726,3.7767,3.7463,3.7161,3.67,3.6649,3.6616,3.6611,3.6125,3.5887,3.5831,3.5583,3.5279,3.4959,3.5755,3.6019,3.5999,3.6699,3.7111,3.7308,3.7458,3.7431,3.7268,3.6795,3.6524,3.6361,0.0,0.0,0.0,0.0,0.0,0.0,0.0,1.804,1.8264,1.8229,1.8471,1.8631,1.8543,1.8785,1.9068,0.0,0.0,0.0,0.0,0.0,0.0,0.0,0.0,0.0,0.0,1.9556,1.9501,1.9501,0.0,1.9409,1.9409,1.9391,1.9372,1.9354,1.9648,1.9618,0.0,0.0,0.0,0.0,0.0,0.0,0.0,0.0,0.0,0.0,0.0,0.0,0.0,0.0,2.4986,2.5779,2.8912,3.0417,3.1371,3.3138,3.4414,3.5473,3.6507,3.6988,3.7012,3.6194,3.4945,3.3238,3.0622,0.0,0.0,2.5235,2.4044,2.3714,2.5037,2.5882,2.7162,2.9523,3.1938,3.4167,3.6004,3.7989,3.9494,4.0298,4.0824,4.1198,4.1246,4.1295,4.1345,4.1521,4.1647,4.1322,4.0313,4.0287,4.0033,3.955,3.8994,3.8541,3.8219,3.7939,3.7788,3.7684,3.7397,3.7201,3.7048,3.7025,3.6734,3.6332,3.6796,3.6983,3.6953,3.7574,3.786,3.7973,3.8342,3.826,3.7919,3.7663,3.7148,3.6551,0.0,0.0,0.0,0.0,0.0,0.0,0.0,1.8437,1.8899,1.8839,1.8961,1.8971,1.8775,1.8522,1.8606,0.0,0.0,0.0,0.0,0.0,0.0,0.0,0.0,0.0,0.0,0.0,0.0,1.972,1.9611,0.0,0.0,0.0,0.0,0.0,1.9483,1.9453,1.9453,1.9453,0.0,0.0,0.0,1.9446,0.0,0.0,0.0,0.0,0.0,0.0,0.0,0.0,2.4313,2.5249,2.8435,3.0124,3.1266,3.2883,3.434,3.5597,3.6345,3.6877,3.6949,3.6007,3.4264,3.2258,2.9945,2.7531,2.5427,2.4392,2.3366,2.307,2.4367,2.5478,2.6864,2.879,3.1395,3.3695,3.5319,3.7454,3.9394,4.0635,4.1351,0.0,4.2213,4.2289,4.2289,4.2289,4.2484,4.2289,4.1571,4.1348,4.1248,4.1172,4.053,3.9959,3.9451,3.9081,3.874,3.844,3.844,3.8291,3.806,3.8263,3.8027,3.7488,3.7768,3.7783,3.7729,3.8369,3.8613,3.864,3.9102,3.902,3.8586,3.8477,3.7718,3.6768,0.0,0.0,0.0,0.0,0.0,0.0,0.0,1.8437,1.891,1.8899,1.9461,1.963,1.8966,1.8173,1.7723,0.0,0.0,0.0,0.0,0.0,0.0,0.0,0.0,0.0,0.0,0.0,0.0,2.0063,2.0045,0.0,0.0,0.0,0.0,0.0,0.0,1.9672,1.9672,1.9672,0.0,0.0,0.0,0.0,0.0,0.0,0.0,0.0,0.0,0.0,2.1016,0.0,0.0,2.4501,2.588,2.8094,3.0606,3.2753,0.0,0.0,3.6701,3.7167,3.7069,3.6481,3.4601,3.2264,2.9884,0.0,2.4715,2.3419,2.2288,2.1903,2.3147,2.3906,2.5099,2.7488,2.9469,3.1368,3.3132,3.5656,3.7833,3.9311,0.0,0.0,4.2722,4.2825,4.2825,4.2825,4.2852,4.2728,4.2413,4.2364,4.2239,4.1993,4.1914,4.1453,4.0569,4.0515,4.0064,3.9203,3.9203,3.9176,3.9166,3.9166,3.8868,3.8326,3.8912,3.883,3.8369,3.8966,3.921,3.921,3.9292,3.9264,3.9156,3.8613,3.7973,3.7323,0.0,0.0,0.0,0.0,0.0,0.0,1.7861,1.8914,1.9673,1.9675,2.0356,2.056,1.9777,1.8981,1.8302,1.7749,0.0,0.0,0.0,0.0,0.0,0.0,0.0,0.0,0.0,0.0,1.992,1.9788,2.0124,0.0,0.0,0.0,0.0,0.0,0.0,1.9762,1.9732,1.9288,0.0,0.0,0.0,0.0,0.0,0.0,0.0,0.0,0.0,0.0,1.9991,2.0909,2.1423,0.0,2.396,2.5312,0.0,0.0,3.2471,3.3548,3.5722,3.6472,3.6474,3.5719,3.4142,3.2148,2.9434,0.0,2.4789,2.342,2.2202,2.1765,2.2984,2.3689,2.4773,2.6806,2.8682,3.0473,3.23,3.4708,3.6887,3.8542,3.9934,4.1179,4.2249,4.2358,4.2493,4.2846,4.29,4.2852,4.2755,4.2755,4.2679,4.2582,4.2582,4.2064,4.097,4.0923,4.0394,3.9292,3.9292,3.9292,3.9292,3.9292,3.9183,3.8966,3.921,3.9156,3.8966,3.921,3.9292,3.9292,3.9292,3.9292,3.9237,3.864,3.8,3.7404,0.0,0.0,0.0,0.0,0.0,1.7916,1.7916,1.904,1.9938,2.0179,2.067,2.0841,2.026,1.9542,1.8779,1.7918,1.7805,0.0,0.0,0.0,0.0,0.0,0.0,0.0,0.0,0.0,1.9876,1.9767,2.0333,2.0479,0.0,0.0,2.0168,2.0093,0.0,0.0,0.0,0.0,0.0,0.0,0.0,0.0,0.0,0.0,0.0,0.0,0.0,0.0,0.0,0.0,0.0,0.0,0.0,0.0,0.0,0.0,3.0713,3.1975,3.4466,3.5468,3.5607,3.4791,3.3405,3.1565,0.0,0.0,2.4681,2.3526,2.2301,2.1814,2.2984,2.3554,2.4475,2.6481,2.803,2.9577,3.1395,3.3702,3.5832,3.7663,3.9102,4.0458,4.1869,4.2168,4.2439,4.2846,4.29,4.29,4.29,4.29,4.29,4.29,4.29,4.2331,4.1137,4.111,4.0513,3.9292,3.9292,3.9292,3.9292,3.9292,3.9292,3.9292,3.9292,3.9292,3.9292,3.9292,3.9292,3.9292,3.9292,3.9292,3.9237,3.864,3.8,3.7404,0.0,0.0,0.0,0.0,0.0,0.0,1.7994,1.8643,1.9371,2.0089,2.0201,2.0223,2.0191,1.9542,1.8813,1.8062,1.7994,0.0,0.0,0.0,0.0,0.0,0.0,0.0,0.0,0.0,2.0329,2.0195,2.0781,2.099,2.0794,2.0595,2.0426,2.0272,0.0,0.0,0.0,0.0,0.0,0.0,0.0,0.0,0.0,0.0,0.0,0.0,0.0,0.0,0.0,0.0,0.0,0.0,0.0,0.0,0.0,0.0,2.909,3.0671,3.3212,3.4266,3.45,3.4017,3.2372,3.0405,2.8783,2.6296,2.4149,2.3626,2.2476,2.1937,2.3011,2.3228,2.4014,2.64,2.7325,0.0,3.0174,3.2444,3.4585,3.6415,3.8206,4.0024,4.1815,4.2548,4.2873,4.29,4.29,4.29,4.29,4.29,4.29,4.29,4.29,4.2331,4.1137,4.111,4.0513,3.9292,3.9292,3.9292,3.9292,3.9292,3.9292,3.9292,3.9292,3.9292,3.9292,3.9292,3.9292,3.9292,3.9292,3.9292,3.9237,3.864,3.8,3.7404,0.0,0.0,0.0,0.0,0.0,0.0,0.0,1.8687,1.9281,1.9556,2.0025,2.0129,1.9659,1.9384,1.8937,1.8216,1.8037,0.0,0.0,0.0,0.0,0.0,0.0,0.0,0.0,0.0,1.9432,1.9847,2.0355,2.0777,2.1087,2.0861,2.0712,2.0575,2.0405,2.0285,0.0,0.0,0.0,0.0,0.0,0.0,0.0,0.0,0.0,0.0,0.0,0.0,0.0,0.0,0.0,0.0,0.0,0.0,0.0,2.3456,0.0,0.0,3.0362,3.1667,3.2149,3.1694,3.0767,2.9469,2.7428,2.5656,2.4145,2.3151,2.2324,2.197,2.2718,2.3137,2.3986,2.6005,2.6761,2.7868,3.0093,3.1748,3.3539,3.5737,3.8695,4.0784,4.1354,4.2304,4.29,4.29,4.29,4.29,4.29,4.29,4.29,4.29,4.2493,4.1896,4.1137,4.0703,4.0078,3.9292,3.9292,3.9292,3.9292,3.9292,3.9292,3.9292,3.9292,3.9292,3.9292,3.9292,3.9292,3.9292,3.9292,3.9292,3.9237,3.864,3.8,3.7404,0.0,0.0,0.0,0.0,0.0,0.0,0.0,1.8536,1.8925,1.9258,1.9464,1.9499,1.9338,1.9062,1.8717,1.8235,1.8136,0.0,0.0,0.0,0.0,0.0,0.0,0.0,0.0,1.8761,1.9429,1.9861,2.0661,2.1187,2.1401,2.1261,2.1087,2.0859,2.076,2.0643,0.0,0.0,0.0,0.0,0.0,0.0,1.9726,0.0,0.0,0.0,0.0,0.0,0.0,0.0,0.0,0.0,0.0,0.0,0.0,0.0,2.2819,2.4797,0.0,2.8778,2.9206,2.9255,2.8623,0.0,2.6245,2.4963,2.3824,2.302,2.2328,2.209,2.2898,2.3291,2.4147,2.6234,2.6996,2.8193,3.0597,3.219,3.4159,3.6989,3.9632,4.133,4.1575,4.2378,4.29,4.29,4.29,4.29,4.29,4.2683,4.2548,4.2548,4.2195,4.1598,4.0784,4.0377,3.9888,3.9292,3.9292,3.9292,3.9292,3.9292,3.9292,3.9292,3.9292,3.9292,0.0,3.9292,3.9292,3.9292,3.9292,3.9292,3.9237,3.864,3.8136,3.7702,0.0,0.0,0.0,0.0,0.0,0.0,0.0,1.82,1.8441,1.9131,1.8614,1.8476,1.9165,1.8614,1.82,1.82,0.0,0.0,0.0,0.0,0.0,0.0,0.0,0.0,0.0,1.9347,2.0059,2.0127,2.1421,2.196,2.1827,2.1753,2.151,2.1135,2.1215,2.1023,2.0569,1.9045,1.8716,1.9062,1.8243,1.8674,0.0,0.0,0.0,0.0,0.0,0.0,0.0,0.0,0.0,0.0,0.0,0.0,0.0,0.0,0.0,0.0,0.0,2.5786,2.596,2.6802,2.6117,2.5208,2.5175,2.4188,0.0,2.309,2.2548,2.24,2.3389,2.367,2.4527,2.6877,2.7815,2.9085,3.1461,3.3541,3.6085,3.9526,4.0821,4.1671,4.2348,4.2712,4.2922,4.2922,4.2922,4.2922,4.2922,4.2378,4.2025,4.1998,4.1944,4.1373,4.0187,4.016,3.9834,3.9292,3.9292,3.9292,3.9292,3.9292,3.9292,3.9292,3.9292,3.9292,3.9292,3.9292,3.9292,3.9292,3.9292,3.9292,3.9237,3.8695,3.845,3.8233,0.0,0.0,0.0,0.0,0.0,0.0,0.0,0.0,0.0,0.0,1.8304,1.8269,1.8441,1.8304,1.82,0.0,0.0,0.0,0.0,0.0,0.0,0.0,0.0,0.0,1.8158,1.8973,1.9692,2.025,2.1092,2.1671,2.2041,2.1897,2.1753,2.1541,2.148,2.1031,2.0378,1.9825,1.9546,1.9451,1.9086,1.9382,0.0,0.0,0.0,0.0,1.9726,1.9708,0.0,0.0,0.0,0.0,0.0,0.0,0.0,0.0,1.9449,1.9952,2.1722,0.0,2.4361,2.4915,2.4829,2.4515,0.0,2.3688,2.3293,2.2837,2.289,2.3054,2.3339,2.4371,2.5549,2.6577,2.7958,2.9582,3.1544,3.4609,3.7316,3.9112,4.0752,4.1948,4.2656,4.3141,4.3423,4.3423,4.3423,4.3423,4.3423,4.2873,4.2351,4.1856,4.1388,4.0822,4.0187,3.9726,3.9427,3.9292,3.9292,3.9292,3.9292,3.9292,3.9292,3.9292,3.9292,3.9292,3.9292,3.9292,3.9292,3.9292,3.9292,3.9292,3.9292,3.9156,3.8803,3.8315,0.0,0.0,0.0,0.0,0.0,0.0,0.0,0.0,0.0,0.0,0.0,0.0,0.0,0.0,0.0,0.0,0.0,0.0,0.0,0.0,0.0,0.0,0.0,1.8373,1.8717,1.9384,2.0118,2.0897,2.1944,2.2556,2.2776,2.3032,2.2865,2.237,2.1855,2.1402,2.0934,2.0429,2.0251,2.0289,1.9687,0.0,0.0,0.0,0.0,0.0,1.9851,1.9797,0.0,1.9556,1.9465,1.9391,0.0,0.0,0.0,0.0,1.9101,1.9391,2.064,2.1526,2.2329,2.3448,2.3511,2.3305,2.3247,2.32,2.3091,2.2747,2.3083,2.3587,2.4156,2.5246,2.6496,2.7963,2.9389,3.1299,3.4186,3.6582,3.8699,4.051,4.1463,4.2361,4.3249,4.3515,4.3586,4.3586,4.3586,4.3476,4.318,4.2601,4.204,4.1404,4.0797,4.036,4.0138,3.9765,3.9601,3.9601,3.9601,3.9601,3.9601,3.9601,3.9601,3.9601,3.9601,3.9601,3.9601,3.9601,3.9601,3.9601,3.9601,3.9601,3.9601,3.9601,3.941,3.9054,0.0,0.0,0.0,0.0,0.0,0.0,0.0,0.0,0.0,0.0,0.0,0.0,0.0,0.0,0.0,0.0,0.0,0.0,0.0,0.0,0.0,0.0,0.0,1.8648,1.9303,2.013,2.0958,2.1763,2.3129,2.3818,2.3827,2.4368,2.4132,2.3179,2.2278,2.1871,2.1809,2.1004,2.091,2.1197,2.0242,0.0,0.0,0.0,0.0,0.0,0.0,0.0,0.0,1.9702,1.9556,1.9446,1.9325,0.0,0.0,0.0,0.0,0.0,2.064,2.064,2.0698,2.2591,2.2736,2.2556,2.3084,0.0,0.0,2.3121,2.3574,2.4279,2.5366,2.6336,2.7682,2.9884,3.1468,3.3677,3.731,3.8508,3.9915,4.2237,4.2379,4.2775,4.405,4.3946,4.3851,4.3851,4.374,4.349,4.2944,4.225,4.1657,4.113,4.0546,4.0213,4.0213,4.0083,3.9996,3.9996,3.9996,3.9996,3.9996,3.9996,3.9996,3.9996,3.9996,0.0,3.9996,3.9996,3.9996,3.9996,3.9996,3.9996,3.9996,3.9996,3.9996,3.9913,0.0,0.0,0.0,0.0,0.0,0.0,0.0,0.0,0.0,0.0,0.0,0.0,0.0,0.0,0.0,0.0,0.0,0.0,0.0,0.0,0.0,0.0,1.9131,1.9189,1.9303,2.0682,2.1785,2.2543,2.3371,2.4121,2.4702,2.4682,2.4222,2.3346,2.2574,2.218,2.2109,2.1855,2.1694,2.1587,2.1195,0.0,0.0,0.0,0.0,0.0,0.0,0.0,0.0,1.9856,1.9714,1.9617,1.9362,0.0,0.0,0.0,0.0,0.0,2.064,2.093,2.1336,2.3252,2.4041,2.4389,2.4505,2.451,0.0,0.0,2.5362,2.6124,2.6297,2.8111,2.9827,3.0771,3.3602,3.607,3.725,3.8702,4.0266,4.1892,4.2499,4.3336,4.4766,4.4879,4.4879,4.4879,4.4396,4.4055,4.397,4.2861,4.2164,4.2122,4.1497,4.1185,4.1185,4.0386,3.9996,3.9996,3.9996,3.9996,3.9996,3.9996,3.9996,3.9996,3.9996,3.9996,3.9996,3.9996,3.9996,3.9996,3.9996,3.9996,3.9996,3.9996,3.9996,3.9913,0.0,0.0,0.0,0.0,0.0,0.0,0.0,0.0,0.0,0.0,0.0,0.0,0.0,0.0,0.0,0.0,0.0,0.0,0.0,0.0,0.0,1.9303,2.0096,2.0544,2.0544,2.1234,2.2164,2.3302,2.406,2.4838,2.5532,2.5,2.4285,2.3376,2.2632,2.2265,2.2257,2.2152,2.1988,2.1797,0.0,0.0,0.0,0.0,0.0,0.0,0.0,0.0,0.0,0.0,2.0015,1.9887,1.9624,0.0,0.0,0.0,0.0,0.0,2.088,2.1465,2.2168,2.413,2.4451,2.4389,2.4737,2.5085,2.5342,2.5371,2.6335,2.7382,2.8047,2.9406,3.1135,3.3398,3.5669,3.7653,3.8848,3.9991,4.1171,4.2551,4.3234,4.3861,4.4567,4.4624,4.4481,4.4093,4.3808,4.3494,4.3195,4.2624,4.2124,4.1824,4.1539,4.1224,4.0881,4.0774,4.073,4.073,4.073,4.073,4.073,4.073,4.073,4.073,0.0,4.073,4.073,4.073,4.073,4.073,4.073,4.073,4.073,4.073,4.073,4.0646,0.0,0.0,0.0,0.0,0.0,0.0,0.0,0.0,0.0,0.0,0.0,0.0,0.0,0.0,0.0,0.0,0.0,0.0,0.0,0.0,1.9476,1.982,2.0958,2.1591,2.1591,2.1936,2.275,2.4095,2.4867,2.5527,2.6048,2.4985,2.41,2.3376,2.2632,2.2313,2.2313,2.2257,2.2123,2.1911,0.0,0.0,0.0,0.0,0.0,0.0,0.0,0.0,0.0,0.0,0.0,0.0,0.0,0.0,0.0,1.9527,1.9472,1.9749,2.1129,2.181,2.2646,2.4769,2.4851,2.4578,2.5338,2.6036,2.653,2.6649,2.7695,2.8884,2.9871,3.0974,3.2771,3.5985,3.7526,3.8859,4.0376,4.1037,4.1838,4.2997,4.357,4.3957,4.4145,4.4145,4.3945,4.3442,4.3241,4.2955,4.2467,4.2324,4.1952,4.1363,4.1334,4.1019,4.0359,4.0847,4.1108,4.1167,4.131,4.1396,4.1396,4.1396,4.1396,4.1396,4.1396,4.1396,4.1396,4.1396,4.1396,4.1396,4.1396,4.1438,4.148,4.1522,4.1535,4.1478,0.0,0.0,0.0,0.0,0.0,0.0,0.0,0.0,0.0,0.0,0.0,0.0,0.0,0.0,0.0,0.0,0.0,0.0,0.0,0.0,1.9924,2.1371,2.1544,2.1591,2.1591,2.2957,2.406,2.4902,2.5661,2.5998,2.586,2.4334,2.3532,2.3376,2.2632,2.2313,2.2313,2.2279,2.2194,2.1984,2.1911,0.0,0.0,0.0,0.0,0.0,0.0,0.0,0.0,0.0,0.0,0.0,0.0,0.0,1.9952,1.9803,1.9714,1.9971,2.1316,2.1705,2.2362,2.491,2.5721,2.6159,2.7386,2.8094,2.8623,2.9204,3.0335,3.1234,3.135,3.3383,3.5712,3.7738,3.8967,3.9945,4.0653,4.1121,4.1737,4.2639,4.2797,4.3142,4.3965,4.4023,4.3994,4.3936,4.3385,4.3008,4.295,4.2428,4.1819,4.1152,4.1123,4.0804,4.0137,4.0166,4.0314,4.0481,4.111,4.1396,4.1396,4.1396,4.1396,4.1396,4.1396,4.1396,4.1396,4.1396,4.1396,4.1396,4.1396,4.1493,4.1702,4.1881,4.1964,4.1935,0.0,0.0,0.0,0.0,0.0,0.0,0.0,0.0,0.0,0.0,0.0,0.0,0.0,0.0,0.0,0.0,0.0,0.0,0.0,0.0,2.0992,2.1578,2.2026,2.2268,2.2268,2.2819,2.3474,2.4267,2.4996,2.503,2.4403,2.3779,2.3212,2.2699,2.2415,2.2313,2.2313,2.2271,2.2166,2.1998,2.1926,2.1823,0.0,0.0,0.0,0.0,0.0,0.0,0.0,0.0,2.1087,2.0942,2.0713,2.0561,2.0423,2.0206,2.0154,2.0408,2.1709,2.2056,2.2696,2.5354,2.6378,2.7125,2.8465,2.9836,3.1013,3.1659,3.2679,3.3576,3.3852,3.5357,3.707,3.858,3.946,4.0376,4.1447,4.2058,4.252,4.2865,4.3241,4.3458,4.3398,4.3369,4.3224,4.2847,4.2179,4.1802,4.1802,4.1192,4.0728,4.0495,4.0466,4.0176,3.9538,3.9915,3.9952,3.9679,4.0314,4.0602,4.0602,4.0602,4.0833,4.1208,4.1208,4.1439,4.1843,4.1843,4.1897,4.2063,4.2281,4.2415,4.2537,4.2739,4.278,4.278,0.0,0.0,0.0,0.0,0.0,0.0,0.0,0.0,0.0,0.0,0.0,0.0,0.0,0.0,0.0,0.0,0.0,0.0,2.0716,2.1302,2.1682,2.1936,2.244,2.2716,2.2716,2.2689,2.302,2.3777,2.4242,2.412,2.3493,2.3226,2.2844,2.2313,2.2313,2.2299,2.2285,2.2228,2.2123,2.1969,2.1911,2.1838,0.0,0.0,0.0,0.0,0.0,0.0,0.0,0.0,2.1387,2.1262,2.1087,2.0909,2.0728,2.0578,2.0527,2.0757,2.2047,2.2554,2.337,2.609,2.7511,2.8756,3.0582,3.1868,3.2943,3.4046,3.5067,3.5864,3.6126,3.7083,3.8185,3.9469,4.0198,4.0975,4.2041,4.2565,4.2785,4.2702,4.3108,4.3224,4.276,4.2528,4.2237,4.1802,4.1163,4.0786,4.0786,4.035,4.0002,3.9828,3.9828,3.9509,3.8899,3.9305,3.9305,3.8899,3.9305,3.9712,4.0089,4.0089,4.0466,4.1105,4.1105,4.1482,4.2092,4.2175,4.2234,4.2423,4.3041,4.3219,4.3148,4.3554,4.3533,4.3352,0.0,0.0,0.0,0.0,0.0,0.0,0.0,0.0,0.0,0.0,0.0,0.0,0.0,0.0,0.0,0.0,0.0,0.0,2.1544,2.1613,2.1936,2.2681,2.2716,2.2716,2.2716,2.2649,2.2952,2.3707,2.3565,2.3493,2.3459,2.266,2.2313,2.2313,2.2313,2.2271,2.22,2.22,2.208,2.1897,2.1897,2.1838,2.1812,0.0,0.0,0.0,0.0,0.0,0.0,0.0,2.1572,2.1402,2.1324,2.1135,2.0877,2.0827,2.0776,2.0976,2.2248,2.3086,2.4271,2.7016,2.9166,3.1331,3.4087,3.4269,3.4424,3.6451,3.7593,3.8169,3.7955,3.842,3.9276,4.0604,4.1303,4.1871,4.2345,4.2392,4.231,4.2133,4.2092,4.2092,4.2063,4.1482,4.1076,4.1076,4.0466,4.0089,4.0089,4.0089,3.9799,3.9218,3.9189,3.887,3.8202,3.8202,3.8202,3.8202,3.8202,3.887,4.0089,4.0089,4.0437,4.1076,4.1076,4.1453,4.2133,4.231,4.2345,4.2402,4.346,4.3617,4.3288,4.4257,4.411,4.3519,0.0,0.0,0.0,0.0,0.0,0.0,0.0,0.0,0.0,0.0,0.0,0.0,0.0,0.0,0.0,0.0,0.0,0.0,2.2337,2.2371,2.2474,2.2681,2.2716,2.2689,2.2636,2.2528,2.2562,2.2801,2.2759,2.2703,2.266,2.2395,2.2598,2.3038,2.2516,2.2555,2.2921,2.2324,2.2017,2.1882,2.1871,2.1827,2.1812,0.0,0.0,0.0,0.0,0.0,0.0,0.0,0.0,0.0,2.1528,2.1356,2.1167,2.1087,2.1038,2.1259,2.2554,2.3348,2.4489,2.729,2.9501,3.1746,3.4537,3.6165,3.7789,4.0196,4.077,4.0667,4.0004,4.0307,4.0763,4.1173,4.1769,4.2346,4.2761,4.2809,4.2552,4.1869,4.184,4.1554,4.0956,4.0723,4.0567,4.0408,3.9828,3.9479,3.9479,3.9015,3.8667,3.8492,3.8606,3.8593,3.8389,3.8538,3.8612,3.8612,3.8612,3.8668,3.8754,3.8754,3.9208,3.9974,3.9974,4.0695,4.188,4.2327,4.2299,4.2108,4.2842,4.3039,4.2957,4.3392,4.3402,4.3247,0.0,0.0,0.0,0.0,0.0,0.0,0.0,0.0,0.0,0.0,0.0,0.0,0.0,0.0,0.0,0.0,0.0,0.0,0.0,2.2716,2.2716,2.2716,2.2655,2.2623,2.2528,2.2432,2.2377,2.2349,2.2349,2.2321,2.2313,2.2598,2.297,2.3376,2.2907,2.2916,2.3212,2.2333,2.1911,2.1871,2.1827,2.1812,2.1812,0.0,0.0,0.0,0.0,0.0,0.0,0.0,0.0,0.0,2.1604,2.1449,2.1277,2.1231,2.1327,2.1725,2.2724,2.4062,2.5787,2.8284,3.0907,3.3751,3.7101,3.8999,4.0442,4.1837,4.2462,4.2469,4.1614,4.193,4.2182,4.1873,4.2417,4.2826,4.2715,4.2599,4.2333,4.1713,4.1566,4.1302,4.0694,4.043,4.0206,4.0013,3.939,3.9011,3.9011,3.8397,3.8047,3.8047,3.7996,3.7922,3.7922,3.8404,3.8631,3.8631,3.8934,3.8907,3.8686,3.8501,3.8889,3.9761,4.0178,4.0863,4.1837,4.2334,4.2352,4.2063,4.274,4.2922,4.2806,4.3196,4.3169,4.2918,0.0,0.0,0.0,0.0,0.0,0.0,0.0,0.0,0.0,0.0,0.0,0.0,0.0,0.0,0.0,0.0,0.0,0.0,0.0,0.0,2.2716,2.2703,2.2636,2.2528,2.2391,2.2391,2.2349,2.2313,2.2313,2.2313,2.2313,2.3038,2.3444,2.3477,2.3369,2.3294,2.3252,2.2293,2.1838,2.1812,2.1812,2.1812,2.1812,2.1812,0.0,0.0,0.0,0.0,0.0,0.0,0.0,0.0,2.162,2.1481,2.1293,2.1247,2.1649,2.2254,2.2869,2.5013,2.7611,2.9698,3.2961,3.669,4.0609,4.1992,4.2354,4.2039,4.2962,4.3609,4.2747,4.3142,4.3322,4.2582,4.3039,4.3174,4.2377,4.2138,4.1923,4.1677,4.143,4.1145,4.0896,4.0293,3.9832,3.9646,3.9055,3.8729,3.8729,3.8102,3.7807,3.7807,3.7421,3.7228,3.7228,3.8033,3.8437,3.8437,3.9133,3.9439,3.9469,3.906,3.9306,4.0182,4.1182,4.1684,4.1815,4.2272,4.2293,4.2084,4.2918,4.2968,4.2663,4.3295,4.3137,4.2633,0.0,0.0,0.0,0.0,0.0,0.0,0.0,0.0,0.0,0.0,0.0,0.0,0.0,0.0,0.0,0.0,0.0,0.0,0.0,0.0,2.2689,2.2636,2.2515,2.2432,2.2391,2.2335,2.2293,2.2313,2.2313,2.2313,2.2313,2.3038,2.3729,2.4237,2.3572,2.3563,2.3972,2.2542,2.1838,2.1812,2.1812,2.1812,2.1812,2.1812,2.1812,0.0,0.0,0.0,0.0,0.0,0.0,0.0,2.1663,2.1541,2.1387,2.1371,2.1779,2.2387,2.2939,2.5079,2.7666,2.969,3.4036,3.8365,4.0356,4.1745,4.2784,4.3217,4.3392,4.3286,4.2563,4.286,4.2972,4.2323,4.2723,4.3122,4.2926,4.286,4.2607,4.1983,4.1357,4.0659,3.9825,3.912,3.8618,3.8245,3.8125,3.8034,3.8034,3.7884,3.7824,3.7824,3.801,3.8116,3.8116,3.8567,3.8791,3.8791,3.9504,3.9877,3.9843,3.9602,3.9757,4.0228,4.1143,4.1357,4.1106,4.1872,4.1894,4.1507,4.1834,4.1903,4.1841,4.1999,4.2067,4.2071,0.0,0.0,0.0,0.0,0.0,0.0,0.0,0.0,0.0,0.0,0.0,0.0,0.0,0.0,0.0,0.0,0.0,0.0,0.0,0.0,0.0,2.2515,2.2432,2.2377,2.2349,2.2307,2.2313,2.2313,2.2665,2.2835,2.2835,2.3579,2.4338,2.5,2.4148,2.3985,2.4173,2.2563,2.1842,2.1812,2.1812,2.1812,2.1812,2.1812,2.1812,2.1812,2.1812,0.0,0.0,0.0,0.0,0.0,0.0,0.0,2.148,2.1433,2.1859,2.2456,2.3045,2.5169,2.81,3.1779,3.5616,3.8871,4.0357,4.153,4.2417,4.2867,4.3266,4.3441,4.3197,4.3349,4.3315,4.2724,4.2913,4.2911,4.2248,4.2055,4.1736,4.0981,4.0505,3.9966,3.9363,3.8989,3.8642,3.8348,3.8348,3.8348,3.8348,3.8041,3.7856,3.7856,3.7838,3.7841,3.7841,3.8404,3.8654,3.8654,3.9407,3.9785,3.988,4.0285,4.0393,4.0254,4.127,4.1346,4.0884,4.1742,4.1936,4.1687,4.1785,4.1851,4.1851,4.1851,4.1883,4.2012,0.0,0.0,0.0,0.0,0.0,0.0,0.0,0.0,0.0,0.0,0.0,0.0,0.0,0.0,0.0,0.0,0.0,0.0,0.0,0.0,0.0,2.2405,2.2377,2.2349,2.2313,2.2313,2.2313,2.2313,2.3038,2.3477,2.3628,2.4338,2.5,2.5542,2.4673,2.4273,2.4141,2.2518,2.1812,2.1812,2.1812,2.1812,2.1812,2.1812,2.1812,2.1812,2.1812,2.1812,2.1812,2.1812,0.0,0.0,0.0,0.0,2.1604,2.148,2.1923,2.2539,2.3149,2.5387,2.8776,3.3778,3.6595,3.8522,4.0102,4.1024,4.1565,4.1694,4.2646,4.3461,4.3631,4.3665,4.3476,4.2941,4.2813,4.2397,4.1149,4.0831,4.0545,3.9939,3.9687,3.95,3.9282,3.9187,3.8999,3.8842,3.8811,3.8811,3.8811,3.8278,3.7996,3.7996,3.7643,3.7447,3.7447,3.8136,3.8481,3.8481,3.9212,3.9687,3.9938,4.0832,4.0861,4.0228,4.115,4.1215,4.0737,4.1566,4.1949,4.1949,4.2077,4.2109,4.2109,4.2109,4.2109,4.2142,0.0,0.0,0.0,0.0,0.0,0.0,0.0,0.0,0.0,0.0,0.0,0.0,0.0,0.0,0.0,0.0,0.0,0.0,2.2716,0.0,0.0,2.2391,2.2335,2.2293,2.2313,2.2313,2.2313,2.2313,2.3038,2.3729,2.4372,2.5101,2.5459,2.5461,2.4657,2.4226,2.4014,2.2473,2.1812,2.1812,2.1812,2.1812,2.1812,2.1812,2.1812,2.1812,2.1812,2.1812,2.1812,2.1812,2.1797,0.0,0.0,0.0,2.1663,2.1663,2.2065,2.2622,2.3218,2.613,2.9751,3.2829,3.5114,3.7099,3.864,3.9561,4.0101,4.0256,4.1374,4.2333,4.2333,4.2365,4.2141,4.1501,4.1405,4.1149,4.0501,4.0494,4.0552,4.054,4.0134,3.9776,3.9635,3.908,3.8606,3.8466,3.8466,3.8466,3.8466,3.837,3.8338,3.8338,3.8379,3.8399,3.8399,3.8637,3.8758,3.8758,3.9475,4.0192,4.0812,4.0978,4.0682,4.0066,4.0193,4.0224,4.016,4.0926,4.1245,4.1309,4.1885,4.2109,4.2109,4.2109,4.2206,4.2397,0.0,0.0,0.0,0.0,0.0,0.0,0.0,0.0,0.0,0.0,0.0,0.0,0.0,0.0,0.0,2.2716,2.2716,2.2689,2.2609,2.2501,2.2405,2.2335,2.2341,2.2313,2.2313,2.2313,2.2313,2.2313,2.3444,2.4406,2.5135,2.6269,2.6522,2.6118,2.5698,2.5213,2.4613,2.307,2.2442,2.2361,2.1978,2.1812,2.1812,2.1812,2.1812,2.1812,2.1812,2.1812,2.1812,2.1812,2.1812,2.1812,2.1812,0.0,0.0,0.0,2.1832,2.2182,2.3086,2.5465,2.8221,3.0529,3.2964,3.5185,3.6805,3.8307,3.9423,3.9753,4.0619,4.1266,4.1113,4.1144,4.114,4.091,4.0968,4.0832,4.0174,4.0134,4.0029,3.9691,3.942,3.9252,3.9229,3.8902,3.8711,3.8628,3.8628,3.8628,3.8628,3.8628,3.8628,3.8628,3.865,3.8706,3.8706,3.8761,3.8788,3.8788,3.9116,3.9444,3.9743,3.9743,3.983,3.9959,4.038,4.0348,4.0024,4.1126,4.161,4.1644,4.2388,4.268,4.268,4.268,4.2711,4.2805,0.0,0.0,0.0,0.0,0.0,0.0,0.0,0.0,0.0,0.0,0.0,0.0,0.0,0.0,0.0,0.0,2.2668,2.2636,2.2487,2.2432,2.2363,2.2293,2.2313,2.2313,2.2313,2.2313,2.2313,2.2313,2.3797,2.4763,2.5324,2.696,2.7279,2.6503,2.6485,2.6081,2.5345,2.3817,2.3056,2.2857,2.2294,2.1978,2.1812,2.1812,2.1812,2.1812,2.1812,2.1812,2.1812,2.1812,2.1812,2.1812,2.1812,2.1812,0.0,0.0,0.0,2.2034,2.2828,2.4429,2.6298,2.8169,3.0568,3.2895,3.4561,3.6493,3.8091,3.8516,3.9316,3.9816,3.9674,4.0156,4.0599,4.0518,4.0635,4.0463,3.9738,3.9635,3.9467,3.8942,3.8903,3.8931,3.8931,3.8931,3.8931,3.8931,3.8931,3.8931,3.8931,3.8931,3.8931,3.8931,3.8931,3.8931,3.8931,3.8931,3.8931,3.8931,3.8931,3.8931,3.8931,3.8931,3.9226,3.9752,4.0258,4.0132,3.9706,4.0951,4.1573,4.1835,4.2556,4.2949,4.3113,4.3113,4.3113,4.3113,0.0,0.0,0.0,0.0,0.0,0.0,0.0,0.0,0.0,0.0,0.0,0.0,2.2786,2.2721,2.2716,2.2716,2.2649,2.2555,2.2405,2.2391,2.2363,2.2293,2.2313,0.0,2.2313,2.2313,2.2313,2.2313,2.3797,2.4495,2.4503,2.669,2.7208,2.6329,2.6329,2.6259,2.6071,2.458,2.3553,2.2891,2.2857,2.2427,2.1812,2.1812,2.1812,2.1812,2.1812,2.1812,2.1812,2.1812,2.1812,2.1812,2.1812,2.1812,2.1812,0.0,0.0,0.0,2.2459,2.3407,2.4746,2.6122,2.8051,3.0023,3.1662,3.368,3.5271,3.5551,3.671,3.7709,3.7817,3.9551,4.0729,4.0038,3.9968,3.9706,3.8952,3.8964,3.9045,3.9013,3.9148,3.9255,3.9255,3.9255,3.9255,3.9255,3.9255,3.9255,3.9255,3.9255,3.9255,3.9255,3.9255,3.9255,3.9255,3.9255,3.9255,3.9255,3.9255,3.9255,3.9255,3.9255,3.9288,3.9295,3.9057,3.8887,3.8919,3.9673,4.0426,4.1114,4.1802,4.249,4.3113,4.3113,4.3113,4.3143,0.0,0.0,0.0,0.0,0.0,0.0,0.0,0.0,0.0,0.0,0.0,0.0,0.0,2.2786,2.2768,2.2681,2.2609,2.2501,2.2405,2.2349,2.2341,2.2313,2.2313,2.2313,2.2313,2.2313,2.2313,2.2313,2.3722,2.4669,2.5142,2.6737,2.7566,2.7692,2.7211,2.6724,2.6119,2.5143,2.4547,2.4282,2.3785,2.3454,2.3222,2.3222,2.3222,2.3222,2.3222,2.2891,2.2493,2.2493,2.2195,2.1812,2.1812,2.1812,2.1797,2.1753,2.1875,2.2012,2.1903,2.2541,2.3418,2.4335,2.6083,2.7879,2.8931,3.1144,3.3039,3.3395,3.4946,3.6364,3.6569,3.8321,3.9621,3.9385,3.9435,3.9418,3.9154,3.9148,3.9175,3.9175,3.9288,3.9315,3.9315,3.9315,3.9315,3.9315,3.8858,3.8791,3.9282,3.8858,3.8791,3.9282,3.9315,3.9315,3.9315,3.9315,3.9315,3.9315,3.9315,3.9315,3.9315,3.9315,3.9315,3.9282,3.9175,3.9121,3.9187,3.9913,4.0375,4.0739,4.1865,4.2492,4.2789,4.3251,4.3416,4.3449,0.0,0.0,0.0,0.0,0.0,0.0,0.0,0.0,0.0,0.0,0.0,0.0,0.0,0.0,2.2799,2.2689,2.2569,2.246,2.2363,2.2307,2.2313,2.2313,2.2313,2.2313,2.2313,2.2313,2.2299,2.2285,2.3441,2.4236,2.4692,2.5764,2.6561,2.6957,2.6458,2.6356,2.6535,2.5773,2.5342,2.5077,2.458,2.4216,2.4017,2.4017,2.4017,2.4017,2.4017,2.3686,2.3255,2.3255,2.2924,2.2526,2.2526,2.2376,2.2096,2.1819,2.1708,2.1678,2.165,2.1948,2.2425,2.3096,2.446,2.5835,2.6568,2.8713,3.0616,3.0926,3.2896,3.4643,3.4835,3.6398,3.7774,3.8269,3.8474,3.8586,3.8586,3.8586,3.8586,3.8586,3.8586,3.8586,3.8586,3.8586,3.8586,3.8586,3.8129,3.803,3.8553,3.8096,3.8063,3.8526,3.8586,3.8586,3.8586,3.8818,3.8924,3.8924,3.9183,3.9315,3.9315,3.9315,3.9315,3.9315,3.9315,3.9315,3.9348,3.9846,4.0177,4.0542,4.1674,4.2274,4.2572,4.3333,4.3598,4.3598,0.0,0.0,0.0,0.0,0.0,0.0,0.0,0.0,0.0,2.3528,0.0,0.0,0.0,0.0,0.0,2.2718,2.2624,2.2528,2.2341,2.2327,2.2327,2.2327,2.2293,2.2293,2.2293,2.2313,2.2285,2.22,2.2921,2.3182,2.3015,2.3731,2.4049,2.4017,2.4017,2.5194,2.7149,2.6468,2.5773,2.5143,2.5143,2.4713,2.4116,2.4116,2.4116,2.4116,2.4116,2.4116,2.405,2.405,2.405,2.4017,2.4017,2.352,2.2791,2.2077,0.0,0.0,0.0,0.0,0.0,2.2408,2.3129,2.3882,2.4568,2.64,2.7958,2.8063,3.0375,3.243,3.2564,3.3779,3.5247,3.6704,3.7003,3.7069,3.7069,3.7102,3.7102,3.7102,3.7102,3.7102,3.7102,3.7102,3.7102,3.7102,3.7102,3.7102,3.7102,3.7102,3.7102,3.7102,3.7102,3.7102,3.7102,3.7831,3.8169,3.8228,3.8924,3.9282,3.9315,3.9315,3.9315,3.9315,3.9315,3.9315,3.9315,3.9315,3.9713,4.0442,4.1143,4.1844,4.2539,4.33,4.3598,4.3598,0.0,0.0,0.0,0.0,0.0,0.0,2.3742,2.3747,2.375,0.0,0.0,0.0,2.4229,2.4574,2.4721,2.4517,2.4434,2.4095,2.3439,2.3272,2.2991,2.248,2.2391,2.2363,2.2363,2.2285,2.2228,2.22,2.2802,2.3061,2.3015,2.3717,2.4,2.4017,2.4017,2.4348,2.4911,2.5276,2.559,2.5887,2.5887,2.6104,2.6387,2.6387,2.6718,2.7182,2.7182,2.6501,2.559,2.559,2.4878,2.4017,2.4017,2.3851,2.3669,2.3533,0.0,0.0,2.2763,0.0,0.0,0.0,0.0,0.0,2.3522,2.4641,2.579,2.5933,2.7778,2.9407,2.9549,3.0838,3.2176,3.3106,3.4963,3.6307,3.6307,3.6771,3.7102,3.7102,3.7102,3.7102,3.7102,3.7102,3.7102,0.0,3.6605,3.6539,3.7069,3.7102,3.7102,3.7102,3.7102,3.7102,3.7102,3.7301,3.7665,3.8202,3.8427,3.8758,3.9315,3.9315,3.9315,3.9315,3.9315,3.9315,3.9315,3.9315,3.9415,3.9713,4.0945,4.1513,4.1844,4.3135,4.3598,4.3598,0.0,0.0,0.0,0.0,0.0,2.4366,2.4345,2.4639,2.4835,0.0,0.0,0.0,2.5647,2.5932,2.602,2.5862,2.5429,2.4906,2.4378,2.4245,2.3996,2.3549,2.3171,2.2993,2.2993,2.2519,2.242,2.2695,2.2981,2.3243,2.3465,2.3518,2.3552,2.352,2.3222,2.3421,2.4017,2.4448,2.5077,2.5755,2.6086,2.6634,2.7282,2.7282,2.7746,2.8409,2.8409,2.7845,2.7131,2.7131,2.6336,2.5293,2.4646,2.4481,2.4464,2.4246,0.0,0.0,0.0,0.0,0.0,0.0,0.0,0.0,2.3316,2.3993,2.4713,2.4363,2.576,2.7053,2.709,2.8381,2.9607,3.0008,3.2005,3.3795,3.4625,3.5124,3.54,3.5352,3.5352,3.5328,3.528,3.5545,3.5768,3.5817,3.5684,3.5817,3.6248,3.6199,3.6199,3.6248,3.6281,3.6273,3.6355,3.6654,3.702,3.7453,3.8051,3.8609,3.9009,3.9335,3.9468,3.9468,3.9468,3.9468,3.9468,3.9468,3.9388,3.9415,4.0547,4.0978,4.1177,4.2605,4.3135,4.3168,0.0,0.0,2.4022,2.4095,2.4704,2.5193,2.5212,2.5891,2.6413,0.0,2.6417,2.6778,2.7505,2.742,2.725,2.7026,2.6156,2.552,2.5275,2.5204,2.5126,2.5057,2.4364,2.3943,2.3943,2.3095,2.2969,2.3555,2.3467,2.3667,2.413,2.3479,2.3132,2.3006,0.0,0.0,2.4017,2.41,2.4514,2.5176,2.5887,2.67,2.7415,2.7415,2.7912,2.8641,2.8641,2.8575,2.8508,2.8442,2.7931,2.7087,2.5757,2.5362,2.5247,2.4725,2.4586,0.0,0.0,0.0,0.0,0.0,2.4857,0.0,2.3955,2.4164,2.4275,2.3433,2.4283,2.5177,2.5112,2.6336,2.7415,2.7617,2.8801,3.0384,3.2399,3.2746,3.277,3.2695,3.2695,3.2651,3.2608,3.3205,3.3682,3.3884,3.4518,3.4885,3.4885,3.4768,3.4778,3.5018,3.5018,3.5098,3.5337,3.5984,3.6353,3.6453,3.776,3.8464,3.8656,3.9293,3.9688,3.9755,3.9755,3.9755,3.9755,3.9755,3.9573,3.9435,4.0165,4.0437,4.0602,4.1934,4.2497,4.263,0.0,0.0,2.4044,2.4697,2.4915,2.5241,2.5871,2.6668,2.7164,2.7152,2.8224,2.9278,3.0002,3.0012,2.9676,0.0,2.8563,2.7783,2.6479,2.6318,2.6009,2.5413,2.5101,2.4913,2.4913,2.452,2.4408,2.453,2.4365,2.4295,2.4337,2.4184,2.4023,2.3849,2.3826,2.3863,2.405,2.4697,2.5012,2.5176,2.5887,2.6998,2.8177,2.8177,2.8986,3.0092,3.0092,2.9715,2.9118,2.8575,2.8025,2.7487,2.7078,2.6667,2.632,2.6319,2.5975,0.0,0.0,0.0,0.0,2.5887,2.5887,0.0,2.5715,2.476,2.383,2.363,2.3784,2.3949,2.3949,2.4728,2.5763,2.7008,2.7518,2.8391,3.0335,3.1106,3.1436,3.1314,3.1294,3.1487,3.2005,3.2205,3.2548,3.3302,3.3503,3.357,3.357,3.3461,3.3707,3.4432,3.4466,3.4813,3.5532,3.5667,3.6038,3.6635,3.6915,3.7691,3.8839,3.8974,3.9404,4.0037,4.0037,4.0037,4.0037,4.0037,3.9858,3.9692,4.0435,4.0702,4.0836,4.1704,4.2406,4.2907,2.3847,2.4142,2.452,2.4918,2.6005,2.6934,2.7333,2.8431,2.9192,2.9192,3.0577,3.1693,3.2061,3.1995,3.1598,0.0,0.0,0.0,0.0,2.7818,2.7458,2.6641,2.6107,2.5862,2.5862,2.5279,2.5129,2.5508,2.5373,2.5441,2.5689,2.5331,2.5002,2.4777,2.452,2.4506,2.473,2.5163,2.5748,2.6363,2.6655,2.7415,2.8442,2.8832,2.9663,3.0593,3.0688,3.0442,3.0062,2.9362,2.892,2.8613,2.8211,2.7969,2.7894,2.8032,2.7961,2.7833,2.7927,2.794,2.794,2.8021,2.7743,0.0,0.0,2.5941,2.4857,2.4012,2.3833,2.3674,2.3241,2.3818,2.4583,2.5375,2.5897,2.6523,2.7466,2.9159,3.0091,2.9588,2.9822,3.0171,3.0412,3.0796,3.155,3.2849,3.2971,3.3121,3.3431,3.3334,3.3503,3.3994,3.441,3.4891,3.5373,3.577,3.6146,3.65,3.6876,3.7661,3.8777,3.9129,3.9734,4.051,4.051,4.051,4.051,4.051,4.0436,4.0322,4.0417,4.0422,4.0523,4.1298,4.1802,4.2139,2.4013,2.4556,2.5099,2.5425,2.7188,2.8636,2.8817,3.0206,3.1329,3.1604,3.2915,3.3804,3.3804,3.3697,3.3224,3.229,0.0,0.0,2.9399,2.9319,2.8961,2.8237,2.7581,2.7151,2.6997,2.6202,2.6025,2.6462,2.6387,2.6611,2.7055,2.647,2.6036,2.5795,2.5433,2.5505,2.5933,2.6151,2.6894,2.79,2.787,2.8191,2.8752,2.9415,3.0102,3.079,3.0898,3.1012,3.0931,3.032,3.0017,2.984,2.9274,2.915,2.9211,2.9403,2.9609,2.976,2.9842,2.9875,2.9875,3.0115,2.9467,2.8712,0.0,0.0,0.0,2.4795,2.4385,2.401,2.3167,2.354,2.3983,2.3983,2.4559,2.5018,0.0,2.7145,0.0,2.7618,2.8032,2.8408,2.8423,2.924,3.037,3.177,3.2029,3.2402,3.3111,3.3091,3.3194,3.3556,3.4274,3.4843,3.5241,3.5863,3.6208,3.6381,3.6982,3.7672,3.8454,3.9053,3.9848,4.0734,4.0734,4.0827,4.0965,4.0965,4.0965,4.0918,4.0461,4.0263,4.0331,4.0917,4.1223,4.146,2.4846,2.4954,2.5461,2.6862,2.7948,2.8853,2.9567,3.1039,3.2531,3.3831,3.4727,3.5254,3.5254,3.5172,3.4549,3.3028,3.2699,3.1927,3.0376,3.0254,3.0173,3.0011,2.9878,2.9444,2.8725,2.8483,2.8056,2.7432,2.7372,2.733,2.7357,2.7288,2.7125,2.6934,2.7631,2.7891,2.7827,2.863,2.8972,2.8983,2.961,2.9762,2.9646,2.983,3.032,3.0978,3.1196,3.137,3.1485,3.123,3.081,3.0411,3.027,2.9881,2.9489,2.9692,2.9808,2.9908,3.004,3.0056,3.0232,3.088,2.9967,2.9055,2.9686,0.0,2.6514,2.6325,0.0,2.5006,2.427,0.0,0.0,2.4234,2.4353,2.4388,2.4388,2.5238,2.5771,2.5472,2.5512,2.5779,2.6277,2.7767,2.878,2.8969,2.9592,3.0318,3.1095,3.0989,3.1627,3.3102,3.326,3.401,3.5461,3.5566,3.5948,3.6643,3.6748,3.7165,3.7874,3.7978,3.8812,4.0202,4.0202,4.0572,4.1163,4.1163,4.1163,4.114,4.0918,4.0799,4.0834,4.0903,4.1326,4.1921,2.5726,2.6065,0.0,2.726,2.883,3.0084,3.0405,3.2119,3.3805,3.4891,3.5722,3.6192,3.6192,3.6519,3.6109,3.4517,3.4736,3.403,3.1856,3.1733,0.0,3.0219,3.0152,2.9996,2.9628,2.9581,2.9409,2.9043,2.9012,2.8965,2.885,2.885,2.877,2.8642,2.9017,2.9106,2.8939,2.9368,2.9748,3.0054,3.0363,3.0701,3.0946,3.0836,3.1079,3.15,3.1542,3.1635,3.1691,3.1617,3.1429,3.1281,3.1264,3.1147,3.1046,3.1167,3.127,3.1372,3.1406,3.1423,3.1528,3.1809,3.0756,2.9702,3.0018,2.8614,2.7104,2.6669,0.0,0.0,0.0,0.0,0.0,0.0,2.3922,2.3593,2.3593,0.0,2.4222,2.4597,0.0,0.0,2.5559,2.6214,2.6849,2.7347,2.8095,2.8831,2.9619,3.0488,3.1255,3.1899,3.2842,3.3875,3.5012,3.5467,3.6062,3.6886,3.6886,3.7271,3.7985,3.7985,3.8559,3.9643,4.0119,4.0504,4.0841,4.1238,4.1413,4.1413,4.1335,4.1221,4.1071,4.1071,4.1255,4.1533,2.7162,0.0,0.0,2.8021,2.9699,3.1165,3.173,3.3584,3.5189,3.6015,3.6967,3.7595,3.7595,3.8007,3.7738,3.638,3.6506,3.5794,3.3757,3.3403,3.2682,3.1423,3.1142,3.0931,3.072,3.051,3.0299,3.0124,3.0124,3.0056,2.9957,2.9957,2.9892,2.9828,3.0068,3.0105,2.9987,3.0333,3.0716,3.1132,3.1132,3.1443,3.1892,3.1673,3.1728,3.191,3.191,3.1928,3.1964,3.1928,3.191,3.1928,3.1966,3.2037,3.2161,3.2232,3.2319,3.2406,3.2406,3.2406,3.2406,3.2406,3.1247,3.0159,3.0369,2.9,2.7596,2.7315,2.7069,0.0,0.0,0.0,0.0,0.0,0.0,2.3089,0.0,2.3089,2.33,2.3887,2.4397,0.0,0.0,2.4896,2.5295,2.5897,2.6858,2.7707,2.8452,2.9811,3.0723,3.1128,3.2266,3.3477,3.4706,3.5249,3.5987,3.6989,3.6989,3.7271,3.7812,3.7812,3.8234,3.902,3.9814,4.0291,4.0573,4.1288,4.1604,4.1604,4.1604,4.1493,4.13,4.13,4.13,4.13,2.9588,2.8579,2.7985,2.9535,3.041,3.1657,3.3836,3.5479,3.6701,3.7506,3.8899,3.9789,3.9789,3.9763,3.942,3.8567,3.7726,3.6887,3.5962,3.5151,3.4692,3.4566,3.3792,3.3055,3.2335,3.1563,3.0826,3.0124,3.0124,3.0124,3.0072,3.0072,3.0072,3.0108,3.0826,3.1142,3.1195,3.1967,3.2266,3.2161,3.2161,3.2161,3.2179,3.1966,3.202,3.2196,3.2196,3.2267,3.2371,3.2232,3.2196,3.2196,3.2196,3.2214,3.2232,3.2336,3.2406,3.2406,3.2406,3.2406,3.2406,3.2406,3.1247,3.0299,3.1001,2.9351,2.7912,2.8684,2.8228,0.0,0.0,0.0,0.0,0.0,0.0,0.0,0.0,2.3089,2.3125,2.3125,2.316,2.316,0.0,2.3874,2.4344,2.4379,2.577,2.6949,2.7701,2.8509,2.9667,3.1142,3.1247,3.2388,3.4706,3.4741,3.5514,3.6989,3.6989,3.7025,3.7025,3.7025,3.7426,3.8199,3.9006,3.9779,4.0573,4.1288,4.1604,4.1604,4.1604,4.1604,4.1582,4.1582,4.1582,4.1582,0.0,0.0,3.0247,3.0641,3.1242,3.2472,3.4706,3.629,3.7703,3.9006,3.998,4.0775,4.1309,4.1739,4.1655,4.0861,4.0501,3.9767,3.8415,3.7055,3.6047,3.546,3.4688,3.4196,3.3915,3.3125,3.2581,3.2353,3.1879,3.1633,3.1633,3.1633,3.1633,3.1633,3.1879,3.1984,3.2019,3.2265,3.2388,3.2319,3.2319,3.2319,3.2319,3.2249,3.2267,3.2319,3.2319,3.2371,3.2406,3.2371,3.2319,3.2319,3.2319,3.2319,3.2319,3.2388,3.2406,3.2406,3.2406,3.2406,3.2406,3.2406,3.1598,3.0896,3.1142,3.0194,2.9386,2.9632,0.0,0.0,0.0,0.0,0.0,0.0,0.0,0.0,0.0,2.3453,2.3089,2.3089,2.3089,2.3089,2.3089,2.3348,2.3523,2.3523,2.4927,2.591,2.6156,2.7912,2.9386,3.044,3.0931,3.2335,3.4706,3.4706,3.5479,3.6989,3.6989,3.6989,3.6989,3.6989,3.713,3.7391,3.8199,3.8971,3.9779,4.0551,4.1148,4.1604,4.1604,4.1604,4.1604,4.1604,4.1604,4.1604,3.2078,3.2268,3.2231,3.1707,3.2413,3.3713,3.5892,3.7524,3.9149,4.0931,4.1985,4.2882,4.3663,4.4076,4.3951,4.3174,4.2798,4.2062,4.0764,3.918,3.8068,3.7496,3.6197,3.5514,3.5514,3.446,3.3915,3.3932,3.316,3.2792,3.2792,3.2511,3.2406,3.2406,3.2406,3.2406,3.2406,3.2406,3.2406,3.2406,3.2687,3.2792,3.2809,3.3108,3.2862,3.2441,3.2722,3.2616,3.2406,3.2406,3.2406,3.2406,3.2406,3.2406,3.2406,3.2406,3.2406,3.2406,3.2406,3.2406,3.2406,3.2406,3.1809,3.1282,3.1563,3.0826,3.0159,3.044,0.0,0.0,0.0,0.0,0.0,0.0,0.0,0.0,0.0,2.4085,2.3721,2.316,2.3089,2.3089,2.3089,2.3089,2.3089,2.3089,2.4541,2.5419,2.5419,2.735,2.8965,3.0088,3.0545,3.2055,3.4653,3.4706,3.5479,3.6989,3.6989,3.6989,3.6989,3.6989,3.6989,3.706,3.8093,3.881,3.9371,4.0446,4.1183,4.1604,4.1604,4.1604,4.1604,4.1604,4.1604,4.1604,3.2906,3.3673,3.3917,3.3075,3.396,3.5471,3.7506,3.9171,4.1066,4.3358,4.4854,4.5973,4.6825,4.666,4.6198,4.5482,4.4554,4.3711,4.2973,4.1429,4.0537,4.0537,3.8359,3.7095,3.706,3.5584,3.4793,3.4758,3.3897,3.3511,3.3477,3.2757,3.2406,0.0,3.2406,3.2406,3.2406,3.2406,3.2406,3.2476,3.316,3.3441,3.3546,3.4337,3.3705,3.2511,3.3231,3.302,3.2406,3.2406,3.2406,3.2406,3.2406,3.2406,3.2406,3.2406,3.2406,3.2406,3.2406,3.2406,3.2406,3.2406,3.1809,3.1458,3.223,3.1282,3.0404,0.0,0.0,0.0,0.0,0.0,0.0,0.0,0.0,0.0,0.0,0.0,2.4857,2.3405,2.323,2.3195,2.3125,2.3089,2.3125,2.316,2.4541,2.5419,0.0,2.6894,2.8438,3.0053,3.0159,3.1633,3.4653,3.4741,3.5514,3.6989,3.6989,3.6989,3.6989,3.6989,3.6989,3.7095,3.8585,3.9266,3.9406,4.0937,4.1569,4.1604,4.1604,4.1604,4.1604,4.1604,4.1604,4.1604,3.5014,3.6062,3.6997,3.7285,3.7351,3.7848,3.9337,4.0876,4.291,4.5735,4.6221,4.6861,4.8232,4.8161,4.7729,4.692,4.6098,4.5302,4.4553,4.2517,4.1323,4.1323,3.9638,3.8444,3.7812,3.6865,3.6127,3.5511,3.4178,3.3511,3.3477,3.2757,3.2406,0.0,3.2406,3.2406,3.2406,3.2406,3.2406,3.2406,3.2616,3.2687,3.2757,3.3529,3.3231,3.2511,3.3231,3.302,3.2406,3.2406,3.2406,3.2406,3.2406,3.2406,3.2406,3.2406,3.2406,3.2406,3.2406,3.2406,3.2406,3.2406,3.223,3.216,3.2335,3.209,3.1844,3.2055,0.0,0.0,0.0,0.0,0.0,0.0,0.0,0.0,0.0,0.0,0.0,2.4857,2.4862,2.4417,2.3242,2.3089,2.3348,2.3957,2.4857,2.5665,2.6248,2.7174,2.8438,3.0053,3.0615,3.2125,3.4706,3.5249,3.6022,3.6989,3.6989,3.6989,3.6989,3.6989,3.6989,3.706,3.7988,3.876,3.9392,4.0375,4.1113,4.1604,4.1604,4.1604,4.1604,4.1604,4.1604,4.1604,3.6792,3.8027,3.937,4.0422,4.062,4.0808,4.1342,4.2976,4.4991,4.7357,4.8104,4.8876,5.0087,5.0064,4.9619,4.8731,4.7929,4.7128,4.6339,4.4447,4.3187,4.2847,4.1393,4.0212,3.9373,3.8263,3.7447,3.6965,3.5452,3.4535,3.4182,3.381,0.0,0.0,3.3052,3.3018,3.2967,3.2932,3.2897,3.2915,3.3599,3.388,0.0,3.4741,3.4547,3.395,3.4353,3.3581,3.2441,3.2757,3.2897,3.288,3.288,3.288,3.2809,3.2476,3.2406,3.2406,3.2406,3.2406,3.2406,3.2406,3.2406,3.2406,3.2406,3.2406,3.2406,3.2406,3.1739,3.1072,0.0,0.0,0.0,0.0,0.0,0.0,0.0,0.0,0.0,0.0,2.587,2.5588,2.4363,2.3927,2.3879,2.4325,2.5037,2.5797,2.6563,2.7631,2.8789,3.0053,3.1177,3.2687,3.4706,3.5776,3.6549,3.6989,3.7341,3.7306,3.7025,3.7341,3.7461,3.7532,3.8655,3.9392,3.9884,4.0656,4.1218,4.1604,4.1604,4.1604,4.1604,4.1604,4.1604,4.1604,3.8677,4.0034,4.1464,4.2953,4.38,4.421,4.409,4.5457,4.7096,4.8681,4.997,5.1084,5.1848,5.1797,5.1351,5.0467,4.9624,4.8792,4.795,4.6493,4.5352,4.4654,4.3272,4.2078,4.1227,3.9624,3.8712,3.858,3.7075,3.6007,3.5313,0.0,0.0,0.0,3.4086,3.3984,3.3829,3.3688,3.367,3.3757,3.5125,3.5652,3.5741,3.6427,3.6268,3.5652,3.5652,3.4372,3.2792,3.3442,3.367,3.3652,3.3652,3.3652,3.3546,3.2897,3.2687,3.2687,3.2687,3.2616,3.2546,3.2546,3.2476,3.2406,3.2423,3.2423,3.2423,3.2405,3.1878,3.1351,3.1262,0.0,0.0,0.0,0.0,0.0,0.0,0.0,0.0,0.0,0.0,0.0,2.5971,2.5139,2.4663,2.4706,2.5315,2.5979,2.6718,0.0,2.9281,3.0072,3.1703,3.3248,3.4706,3.6322,3.713,3.7185,3.7938,3.7958,3.74,3.8013,3.833,3.84,3.9898,4.0567,4.0615,4.1332,4.1648,4.1648,4.1648,4.1648,4.167,4.167,4.1692,4.1692,4.1967,4.31,4.4213,4.5715,4.7053,4.829,4.9491,4.8513,4.84,5.0516,5.0945,5.1308,5.2078,5.203,5.1634,5.0844,5.0067,4.9241,4.8429,4.6873,4.5961,4.5817,4.433,4.3165,4.2338,4.0754,3.9587,3.8887,3.7379,3.6553,3.641,3.5777,3.5332,0.0,3.5094,3.4905,3.4587,3.4532,3.4477,3.4512,3.4758,3.4898,3.4898,3.5057,3.5004,3.4898,3.4898,3.4618,3.4302,3.4442,3.4477,3.4477,3.4477,3.4477,3.4442,3.4337,3.4302,3.4302,3.4302,3.381,3.3301,3.3318,3.2827,3.2423,3.2473,3.249,3.2507,3.2539,3.245,3.2167,3.1566,0.0,0.0,0.0,0.0,0.0,0.0,0.0,0.0,0.0,0.0,2.7867,2.7038,2.6048,2.5689,2.6259,2.6421,2.6803,0.0,0.0,2.9281,0.0,3.2195,3.3758,0.0,3.6829,3.7978,3.8078,3.8889,3.9287,3.9325,3.9447,3.9483,3.9554,4.0496,4.0825,4.0813,4.1605,4.1923,4.1923,4.1923,4.1952,4.2002,4.2002,4.21,4.2142,4.4191,4.5461,4.6652,4.7794,4.9213,5.0711,5.227,5.1945,5.1846,5.2799,5.3207,5.3403,5.3344,5.3276,5.2904,5.2073,5.1274,5.0417,4.9554,4.8421,4.7425,4.6553,4.5467,4.4468,4.3594,4.1597,4.0381,3.9947,3.8403,3.7439,3.7003,3.7103,3.6858,3.6315,3.6,3.5509,3.4942,3.5165,3.5285,3.532,3.5706,3.5901,3.5901,3.5901,3.5901,3.5901,3.5901,3.5901,3.583,3.5425,3.5285,3.5285,3.5285,3.5285,3.5214,3.4793,3.4706,3.4706,3.4761,3.448,3.4181,3.4306,3.4058,3.3828,3.393,3.3661,3.3375,3.3424,3.3136,3.2759,3.2402,3.178,0.0,0.0,0.0,0.0,0.0,0.0,2.9205,0.0,0.0,0.0,0.0,2.7507,2.7128,2.6934,2.6921,2.716,0.0,0.0,2.9777,0.0,0.0,0.0,3.5525,0.0,3.9089,3.9167,4.0044,4.0265,3.9971,4.0402,4.062,4.0672,4.1419,4.168,4.1655,4.2021,4.2157,4.2178,4.2205,4.221,4.2272,4.2313,4.2409,4.2501,4.6487,4.7859,4.9193,5.0106,5.1571,5.3068,5.4447,5.53,5.5529,5.4807,5.5279,5.5352,5.4543,5.447,5.4096,5.3182,5.2375,5.1527,5.0602,4.9915,4.8818,4.7314,4.6416,4.5626,4.4893,4.2509,4.1156,0.0,0.0,3.8423,3.7668,3.8389,3.8261,3.7421,3.6945,3.6292,3.5563,3.5962,3.6114,3.6185,3.6802,3.7029,3.7009,3.7009,3.7009,3.6989,3.6989,3.6989,3.6919,3.6268,3.6057,3.6057,3.6057,3.6057,3.5952,3.5355,3.5198,3.5235,3.5292,3.5241,3.519,3.5349,3.5311,3.5203,3.534,3.4957,3.4555,3.4571,3.397,3.346,3.346,3.29,0.0,0.0,0.0,0.0,0.0,0.0,3.0332,0.0,0.0,0.0,2.8979,2.8833,2.8445,2.7799,2.7518,2.7562,2.7968,0.0,0.0,0.0,3.3448,3.5473,3.6096,0.0,4.0009,4.0102,4.113,4.1315,4.0796,4.1502,4.1793,4.181,4.2344,4.2537,4.2478,4.2434,4.243,4.245,4.2514,4.2537,4.2577,4.2691,4.2785,4.2893,4.9903,5.0938,5.2032,5.3559,5.5152,5.65,5.7303,5.8106,5.7911,5.5997,5.5824,5.5565,5.4753,5.4679,5.4347,5.3514,5.2702,5.1927,5.1096,5.0267,4.9436,4.8458,4.7,4.6133,4.6059,4.3677,4.2036,0.0,0.0,3.9527,3.8752,3.8826,3.8676,3.8291,3.7911,3.7632,3.7344,3.7229,3.717,3.717,3.7241,3.7184,3.7071,3.7071,3.7068,3.6989,3.6989,3.6989,3.6989,3.6919,3.6884,3.6884,3.6884,3.6884,3.6884,3.6814,3.6837,3.6879,3.7029,3.6646,3.6292,3.6325,3.5907,3.5503,3.562,3.5679,3.567,3.5711,3.5154,3.4652,3.4652,3.4053,3.3547,0.0,0.0,0.0,0.0,0.0,3.1432,3.136,0.0,0.0,3.0171,2.9554,2.9347,2.9855,2.8902,2.8268,2.8259,0.0,0.0,3.0549,3.3693,3.5426,3.5584,3.8654,4.0255,4.0401,4.1975,4.2794,4.2887,4.3068,4.3104,4.3104,4.3105,4.3013,4.2844,4.2844,4.2844,4.2844,4.292,4.3013,4.3124,4.3214,4.3303,4.3648,5.1984,5.3245,5.4504,5.567,5.7208,5.8334,5.8577,5.9306,5.934,5.7928,5.7739,5.7421,5.6523,5.6003,5.5369,5.4494,5.3678,5.2678,5.138,5.0972,5.0194,4.8859,4.771,4.6857,4.6376,4.4448,4.3039,0.0,0.0,4.0592,3.9814,4.0296,4.0095,3.9239,3.8405,3.7915,3.7775,3.7613,3.7522,3.7466,3.7466,3.7373,3.7203,3.711,3.7068,3.6989,3.6989,3.6989,3.6989,3.7048,3.7029,3.6989,3.6989,3.7029,3.7068,3.7068,3.7148,3.7336,3.7503,3.7435,3.7394,3.7597,3.7475,3.7337,3.7416,3.7144,3.6875,3.6905,3.6317,3.5823,3.5823,3.5174,3.4673,3.4673,0.0,0.0,0.0,0.0,0.0,3.2354,0.0,3.1145,3.1087,3.0803,3.0729,3.1015,3.0015,2.9569,2.9895,0.0,0.0,3.2256,0.0,3.6499,3.8085,3.9865,4.1264,4.2247,4.2957,4.3374,4.3443,4.3566,4.3583,4.3495,4.3461,4.3374,4.325,4.325,4.325,4.325,4.3339,4.3409,4.3517,4.4098,4.4334,4.4626,5.4125,5.5385,5.6606,5.745,5.8952,5.9947,5.9646,6.0284,6.0395,5.9251,5.9082,5.8612,5.7392,5.6739,5.5955,5.476,5.4128,5.3125,5.1528,5.1416,5.0636,4.8964,4.8147,4.733,4.6513,4.5101,4.3875,4.2797,4.224,4.1534,4.0754,4.1297,4.111,4.0257,3.9365,3.8877,3.8758,3.8635,3.8546,3.8456,3.8259,3.8025,3.7787,3.7444,3.7279,3.7164,3.7164,3.7164,3.7184,3.7241,3.7241,3.7203,3.7145,3.7164,3.7222,3.726,3.7392,3.7577,3.7757,3.7948,3.8185,3.8433,3.8559,3.8615,3.8661,3.8332,3.7999,3.8028,3.7456,3.6906,3.6906,3.6239,3.5721,3.5721,0.0,0.0,0.0,3.3857,0.0,3.3302,3.256,3.2055,3.2031,3.1797,3.176,3.1994,3.1335,3.098,3.1131,3.1892,0.0,0.0,0.0,0.0,3.9496,4.0625,4.1871,4.3215,4.3537,4.3681,4.3681,4.38,4.38,4.3681,4.3681,4.3667,4.3583,4.3583,4.3583,4.3637,4.3905,4.405,4.414,4.5073,4.544,4.5662,5.6662,5.7525,5.8314,5.914,6.0642,6.1506,6.0717,6.128,6.1168,5.9515,5.929,5.8578,5.6628,5.6403,5.5694,5.398,5.3831,5.3125,5.1528,5.1416,5.0636,4.8964,4.8147,4.733,4.6513,4.5695,4.4469,4.2797,0.0,4.2352,4.1571,4.1519,4.1406,4.1292,4.1054,4.0889,4.0752,4.0702,4.0616,4.0491,3.978,3.9333,3.8996,3.8186,3.7775,3.7577,3.7577,3.7577,3.7577,3.7595,3.7649,3.7667,3.7466,3.7411,3.7429,3.7558,3.7757,3.7916,3.7984,3.8234,3.8544,3.8658,3.881,3.8892,3.8892,3.8935,3.9007,3.9069,3.8451,3.7894,3.7894,3.7225,3.6668,3.6668,0.0,0.0,0.0,3.4736,0.0,3.4179,3.3473,3.299,3.299,3.2258,3.2147,3.2915,3.2894,3.2465,3.1544,3.2206,3.3015,3.3952,3.5547,0.0,3.8892,4.048,4.1736,4.2601,4.3495,4.3897,4.3897,4.3976,4.3976,4.3897,4.3897,4.3886,4.3788,4.3788,4.3788,4.3878,4.4753,4.5082,4.5193,4.6145,4.6475,4.6587,5.7676,5.8389,5.9178,6.0041,6.0642,6.0905,6.0642,6.083,6.0567,5.944,5.884,5.7978,5.6743,5.6613,5.6127,5.4932,5.4298,5.3552,5.2489,5.1874,5.1054,4.9972,4.9152,4.8348,4.7527,4.669,4.5721,4.4639,4.408,4.3692,4.3334,4.2069,4.177,4.2199,4.1456,4.1103,4.1071,4.1038,4.1026,4.0926,4.0653,4.0409,4.0092,3.9138,3.9014,3.921,3.8133,3.8098,3.8492,3.8077,3.7983,3.8068,3.8201,3.8068,3.7897,3.7983,3.8152,3.83,3.838,3.8569,3.8788,3.8862,3.9007,3.912,3.912,3.9133,3.9147,3.9151,3.8965,3.8779,3.8779,3.8109,3.7588,3.7588,3.6892,0.0,3.6309,0.0,3.5083,3.5083,3.4327,3.3807,3.3807,3.3584,3.3547,3.3807,3.3795,3.3635,3.329,3.4004,3.4853,0.0,3.7322,0.0,4.0718,4.1794,4.2721,4.3537,4.3828,4.3976,4.3976,4.3971,4.4008,4.3976,4.3976,4.3961,4.3945,4.3945,4.4278,4.4835,4.5127,4.5588,4.6145,4.7016,4.733,4.7441,5.8539,5.8952,5.9553,6.0454,6.0604,6.0604,6.0604,6.0604,6.0304,5.9403,5.8614,5.7752,5.6872,5.6497,5.5919,5.4931,5.439,5.3773,5.295,5.2074,5.1252,5.043,4.9625,4.8803,4.8018,4.7143,4.6321,4.5499,4.4692,4.4274,4.4199,4.3051,4.2767,4.3182,4.2522,4.22,4.22,4.22,4.2189,4.2108,4.176,4.1515,4.1221,4.03,4.0197,4.0399,3.9419,3.94,3.9761,3.9438,3.9353,3.9486,3.9672,3.9611,3.9323,3.8658,3.8569,3.8691,3.8737,3.8869,3.9021,3.9064,3.9175,3.9269,3.9269,3.9269,3.9269,3.9269,3.9269,3.9269,3.9269,3.8859,3.851,3.8447,3.7737,3.719,3.7164,0.0,3.5937,0.0,0.0,3.5144,3.5144,3.5144,3.5144,3.5144,3.5144,3.5132,3.5094,3.5279,3.6057,3.7506,3.8507,4.0006,4.2017,4.2537,4.3206,4.3986,4.3986,4.4172,4.4469,4.4135,4.4358,4.4915,4.4618,4.4655,4.4952,4.4952,4.5249,4.5769,4.6067,4.6513,4.7033,4.785,4.8147,4.8221,5.929,5.929,5.9553,6.0379,6.0529,6.0529,6.0529,6.0529,6.0229,5.9403,5.8539,5.7751,5.6962,5.6061,5.5165,5.4202,5.4127,5.379,5.3043,5.2166,5.1381,5.0634,4.9791,4.8968,4.8183,4.7271,4.6374,4.5514,4.4692,4.4289,4.4214,4.4199,4.4153,4.4039,4.3945,4.3913,4.3913,4.3913,4.3849,4.3747,4.3066,4.267,4.2415,4.1604,4.1298,4.127,4.1256,4.1251,4.1304,4.1323,4.14,4.1512,4.1601,4.1673,4.139,3.9622,3.9141,3.9198,3.9198,3.9282,3.9378,3.9378,3.9482,3.9586,3.9586,3.9586,3.9573,3.9573,3.9548,3.9511,3.9511,3.9423,3.9373,3.9242,3.8596,3.8048,3.7981,3.7312,3.6779,3.6779,3.6718,3.6718,3.6718,3.6718,3.6718,3.6718,3.6718,3.6742,3.6866,3.616,3.6779,3.9045,3.9268,4.0457,4.276,4.2872,4.328,4.4098,4.4098,4.4544,4.5361,4.4544,4.5026,4.6475,4.5695,4.5807,4.6513,4.6513,4.6513,4.6661,4.7404,4.7738,4.7887,4.863,4.889,4.889,5.929,5.929,5.9365,5.9553,5.9591,5.9591,5.9591,5.9591,5.9515,5.9328,5.8051,5.7112,5.6925,5.5573,5.4579,5.434,5.434,5.4228,5.4057,5.327,5.2744,5.2557,5.1131,5.0268,5.0043,4.8618,4.7102,4.564,4.4809,4.4354,4.434,4.4318,4.4274,4.4222,4.4169,4.4138,4.4123,4.4023,4.3976,4.3923,4.3691,4.3585,4.3463,4.2601,4.2627,4.3017,4.1872,4.1829,4.2252,4.1757,4.1673,4.1759,4.1815,4.1884,4.1836,4.1274,4.1134,4.1148,4.1148,4.1176,4.1189,4.1189,4.1244,4.1298,4.1389,4.1325,4.1298,4.1298,4.0811,4.04,4.04,3.9875,3.9488,3.9425,3.9147,3.8918,3.8904,3.8157,3.7634,0.0,3.7089,3.6718,3.6718,3.6718,3.6718,0.0,0.0,3.7225,3.8451,3.8339,3.8488,3.9082,4.094,4.2203,4.2797,4.3392,4.4135,4.4989,4.4989,4.5435,4.6215,4.5992,4.6104,4.6475,4.629,4.6327,4.6513,4.6513,4.6847,4.7441,4.7627,4.8073,4.863,4.8816,4.889,4.889,5.929,5.9628,5.9891,5.9891,6.0191,6.0304,5.9966,5.9891,5.9741,5.9365,5.8239,5.73,5.6925,5.5723,5.4822,5.4446,5.4409,5.4409,5.4409,5.3675,5.3036,5.2606,5.1383,5.0504,5.0166,4.8852,4.7387,4.5697,4.5218,4.48,4.4397,4.4354,4.431,4.4318,4.4274,4.4244,4.4244,4.4162,4.4147,4.4131,4.4101,4.4055,4.3971,4.3494,4.359,4.3886,4.3051,4.3074,4.3416,4.3085,4.2992,4.3034,4.3076,4.3103,4.3117,4.3048,4.2473,4.1911,4.1911,4.1911,4.1911,4.1911,4.1938,4.1965,4.1991,4.1978,4.1951,4.1951,4.1576,4.129,4.129,4.0652,4.0077,4.0051,3.9636,3.9296,3.9229,3.8779,3.8492,3.8451,3.8414,3.839,3.839,3.8711,3.8934,3.8934,3.8934,3.9305,4.0197,4.0606,4.0791,4.0791,4.2092,4.2983,4.3355,4.4172,4.4841,4.5287,4.5658,4.6252,4.7033,4.6661,4.6884,4.759,4.7218,4.7256,4.759,4.759,4.785,4.8259,4.8259,4.8519,4.889,4.889,4.889,4.8964,5.9666,6.0266,6.0792,6.0792,6.1355,6.1581,6.0905,6.068,6.0342,5.9591,5.8689,5.7863,5.715,5.6324,5.548,5.4634,5.4597,5.4521,5.4409,5.377,5.3074,5.2306,5.1367,5.0541,4.9865,4.8776,4.7425,4.5885,4.5772,4.5256,4.4411,4.4411,4.4368,4.4348,4.4333,4.4333,4.4296,4.4281,4.4318,4.4318,4.4318,4.4274,4.4214,4.4214,4.4214,4.4229,4.4304,4.434,4.4411,4.4468,4.4482,4.4482,4.4482,4.4482,4.4482,4.4482,4.3506,4.238,4.238,4.238,4.238,4.238,4.238,4.238,4.238,4.238,4.238,4.238,4.2267,4.2192,4.2192,4.1529,4.094,4.0901,4.0201,3.9662,3.9591,0.0,3.9412,3.9468,4.0123,4.0583,4.0583,4.12,4.1609,4.1609,4.1609,4.1646,4.1757,4.2537,4.302,4.3169,4.3169,4.354,4.4358,4.5101,4.5547,4.5658,4.6364,4.7107,4.785,4.7181,4.7627,4.8853,4.8184,4.8259,4.889,4.889,4.889,4.889,4.889,4.889,4.8927,4.9039,4.9076,4.9224,6.1393,6.1506,6.1618,6.1618,6.1731,6.1768,6.1618,6.1055,6.0567,6.0417,5.9065,5.8033,5.7938,5.7187,5.6361,5.548,5.5405,5.5122,5.4446,5.4296,5.4146,5.4033,5.2531,5.1668,5.1518,4.934,4.7725,4.6824,4.6073,4.5284,4.4468,4.4468,4.4468,4.4491,4.4397,4.4383,4.4368,4.431,4.4318,4.4318,4.4318,4.4266,4.4304,4.4304,4.4304,4.4304,4.4354,4.4383,4.4411,4.4468,4.4482,4.4482,4.4482,4.4482,4.4482,4.4482,4.4332,4.4106,4.4106,4.4106,4.4106,4.4106,4.4106,4.4106,4.4106,4.4106,4.4106,4.4106,4.3557,4.3106,4.3106,4.2393,4.1817,4.1804,4.1089,4.0723,4.1301,0.0,4.0542,4.114,4.1311,4.1423,4.1423,4.1534,4.1609,4.1609,4.1609,4.1906,4.2575,4.3392,4.4135,4.4878,4.4915,4.5287,4.6104,4.6252,4.6661,4.733,4.7441,4.7924,4.8704,4.8593,4.8667,4.889,4.8779,4.8779,4.889,4.889,4.889,4.889,4.889,4.889,4.9002,4.967,4.9968,5.0116,6.1806,6.2181,6.2482,6.2482,6.2857,6.3008,6.2557,6.2181,6.1618,6.0717,5.9929,5.9102,5.8183,5.7788,5.7225,5.6361,5.6286,5.5948,5.5122,5.4634,5.4221,5.377,5.2569,5.148,5.0616,4.949,4.8476,4.765,4.6824,4.596,4.5134,4.4707,4.4482,4.4482,4.4454,4.444,4.444,4.4411,4.4397,4.4397,4.4397,4.4368,4.434,4.434,4.434,4.4354,4.4383,4.4411,4.4454,4.4482,4.4482,4.4482,4.4482,4.4482,4.4482,4.4482,4.4482,4.4482,4.4482,4.4482,4.4482,4.4482,4.4482,4.4482,4.4482,4.4482,4.4482,4.4482,4.4195,4.397,4.397,4.3257,4.2693,4.2693,4.1954,4.1475,4.1777,4.146,4.1292,4.1549,4.198,4.224,4.224,4.2649,4.2872,4.2872,4.3318,4.3763,4.4135,4.4915,4.5547,4.5918,4.5955,4.6104,4.6513,4.6921,4.733,4.7701,4.8147,4.8556,4.889,4.889,4.889,4.889,4.889,4.889,4.889,4.889,4.889,4.8927,4.9373,4.9559,4.967,5.0488,5.0822,5.0971,6.2369,6.2932,6.3383,6.3383,6.3871,6.4096,6.3458,6.3233,6.2632,6.1355,6.083,6.0116,5.884,5.8483,5.8051,5.7263,5.7187,5.6737,5.5668,5.503,5.4334,5.3524,5.2644,5.1442,4.9828,4.979,4.9265,4.8176,4.7575,4.6824,4.5998,4.5359,4.5082,4.5082,4.4857,4.4782,4.4782,4.4594,4.4482,4.4482,4.4482,4.4454,4.4411,4.4411,4.4411,4.4411,4.4411,4.4454,4.4482,4.4482,4.4482,4.4482,4.4482,4.4482,4.4482,4.4482,4.4482,4.4482,4.4482,4.4482,4.4482,4.4482,4.4482,4.4482,4.4482,4.4482,4.4482,4.4482,4.4482,4.4482,4.4482,4.4008,4.3595,4.3595,4.2868,4.2313,4.2375,4.2184,4.2164,4.2441,4.302,4.3466,4.3652,4.4209,4.4581,4.4581,4.5212,4.5584,4.5584,4.6327,4.6847,4.7033,4.6884,4.6884,4.707,4.7664,4.8073,4.8259,4.8704,4.9002,4.9187,4.9002,4.889,4.889,4.889,4.9002,4.9187,4.9187,4.9299,4.9559,5.0153,5.0413,5.0525,5.1342,5.1676,5.1788,6.4096,6.4192,6.4209,6.4209,6.4247,6.4284,6.4209,6.3571,6.3045,6.2932,6.1581,6.0567,6.0454,5.9703,5.8877,5.807,5.7995,5.732,5.5706,5.5555,5.5142,5.4334,5.3562,5.2322,5.067,5.0632,4.9828,4.8176,4.8138,4.7687,4.6899,4.6847,4.6824,4.6786,4.596,4.5622,4.5547,4.482,4.4482,4.4482,4.4482,4.4482,4.4482,4.4482,4.4482,4.4482,4.4482,4.4482,4.4482,4.4482,4.4482,4.4482,4.4482,4.4482,4.4482,4.4482,4.4482,4.4482,4.4482,4.4482,4.4482,4.4482,4.4482,4.4482,4.4482,4.4482,4.4482,4.4482,4.4482,4.4482,4.4482,4.4444,4.4407,4.4407,4.3676,4.3357,4.402,4.3371,4.3356,4.4857,4.5064,4.5398,4.6141,4.629,4.6327,4.6327,4.6364,4.6401,4.6401,4.7181,4.7961,4.8704,4.7999,4.7961,4.8704,4.8779,4.9187,4.993,4.9224,4.9299,5.0005,4.9262,4.889,4.889,4.889,4.9336,5.0005,5.0005,5.0488,5.1231,5.1268,5.1305,5.1416,5.2197,5.2531,5.2642,6.4284,6.4284,6.4284,6.4284,6.4284,6.4284,6.4284,6.4021,6.3683,6.3158,6.2557,6.1956,6.1393,6.1055,6.0529,5.9741,5.9666,5.8952,5.7245,5.6699,5.5573,5.3733,5.3374,5.266,5.148,5.0954,5.0407,4.9768,4.8701,4.8025,4.7725,4.7237,4.7012,4.7012,4.6636,4.6223,4.566,4.5359,4.4946,4.4482,4.4482,4.4482,4.4482,4.4482,4.4482,4.4482,4.4482,4.4482,4.4482,4.4482,4.4482,4.4594,4.5097,4.5247,4.5359,4.5871,4.6073,4.6073,4.6073,4.566,4.5247,4.5247,4.566,4.6073,4.6073,4.6073,4.6073,4.6073,4.6073,4.6073,4.6073,4.6073,4.6073,4.6073,4.57,4.5514,4.5738,4.546,4.5419,4.5972,4.603,4.6141,4.6475,4.6513,4.6513,4.6513,4.6958,4.7256,4.7256,4.7999,4.8593,4.889,4.9076,4.9336,4.9633,4.9707,5.0116,5.0896,5.0599,5.0599,5.0896,5.0599,5.045,5.045,5.045,5.0636,5.0896,5.0896,5.1119,5.1454,5.1936,5.2159,5.2234,5.3051,5.3348,5.3385,6.4284,6.4284,6.4284,6.4284,6.4284,6.4284,6.4284,6.4284,6.4096,6.3533,6.327,6.2857,6.2257,6.1956,6.1581,6.1017,6.0755,6.0004,5.8577,5.7225,5.561,5.3675,5.3599,5.317,5.2344,5.1759,5.1346,5.1067,4.994,4.9227,4.8964,4.8401,4.8025,4.7763,4.75,4.7049,4.6486,4.6223,4.581,4.527,4.527,4.527,4.527,4.527,4.527,4.527,4.527,4.527,4.527,4.527,4.527,4.5383,4.5923,4.611,4.6223,4.6824,4.7012,4.7012,4.7012,4.6749,4.6411,4.6186,4.6561,4.7012,4.7012,4.7012,4.7012,4.7012,4.7012,4.7012,4.7012,4.6982,4.693,4.693,4.6802,4.671,4.6701,4.6621,4.6652,4.6863,4.6884,4.6995,4.7218,4.7256,4.7256,4.7256,4.7999,4.8556,4.8853,4.9373,4.9707,4.9707,5.0228,5.0636,5.0896,5.0673,5.0971,5.1788,5.1528,5.1528,5.1788,5.1528,5.1416,5.1416,5.1416,5.1528,5.1788,5.1788,5.1936,5.2197,5.2754,5.2977,5.3051,5.3608,5.3794,5.3794,6.4284,6.4284,6.4284,6.4284,6.4284,6.4284,6.4284,6.4284,6.4284,6.4284,6.3608,6.312,6.312,6.2332,6.1806,6.1806,6.1055,6.0229,5.9365,5.7,5.5255,5.4446,5.4409,5.4033,5.3224,5.3186,5.2773,5.1931,5.1893,5.148,5.0707,5.0707,5.0278,4.949,4.8626,4.8213,4.8138,4.735,4.7012,4.7012,4.7012,4.7012,4.7012,4.7012,4.7012,4.7012,4.7012,4.7012,4.7012,4.7012,4.7012,4.7012,4.7012,4.6997,4.7012,4.7012,4.7012,4.7049,4.7049,4.7612,4.8025,4.7199,4.7012,4.7012,4.7012,4.7012,4.7012,4.7049,4.7049,4.7034,4.7034,4.6937,4.684,4.684,4.6716,4.6643,4.6643,4.6562,4.681,4.7627,4.7701,4.8036,4.8816,4.8927,4.8927,4.8927,4.967,5.0488,5.1342,5.1416,5.1416,5.1416,5.1416,5.1788,5.2605,5.1825,5.1825,5.2605,5.1788,5.1825,5.2568,5.1788,5.1416,5.1416,5.1416,5.1862,5.2605,5.2605,5.3088,5.3794,5.3794,5.3794,5.3794,5.3794,5.3794,5.3794,6.4284,6.4284,6.4284,6.4284,6.4284,6.4284,6.4284,6.4284,6.4284,6.4284,6.4096,6.3946,6.3946,6.3721,6.3308,6.2745,6.1919,6.0604,5.8614,5.777,5.6719,5.5293,5.4709,5.4296,5.4033,5.3487,5.3074,5.2811,5.2193,5.178,5.1555,5.1555,5.1405,5.1142,5.0316,4.964,4.9039,4.8213,4.7537,4.7012,4.7012,4.7012,4.7012,4.7012,4.7012,4.7012,4.7012,4.7012,4.7012,4.7012,4.7012,4.7087,4.765,4.8205,4.8609,4.8609,4.8974,4.9391,4.9391,4.9973,5.0118,4.8295,4.8288,4.8739,4.8739,4.8693,4.8759,4.9358,4.9423,4.9562,5.0123,5.0218,5.0164,5.0164,4.9616,4.9213,4.9213,4.8607,4.8259,4.8519,4.9039,4.9485,4.9707,5.0302,5.0636,5.0636,5.0896,5.1119,5.1379,5.1416,5.1416,5.1416,5.1936,5.2345,5.2605,5.2345,5.2642,5.346,5.32,5.32,5.3423,5.32,5.3088,5.3088,5.3088,5.3237,5.346,5.346,5.3571,5.3794,5.3794,5.3794,5.3794,5.3794,5.3794,5.3794,6.4359,6.4547,6.4772,6.4772,6.4772,6.4772,6.4772,6.451,6.4284,6.4284,6.4284,6.4284,6.4284,6.4284,6.4096,6.3608,6.2482,6.1017,5.9215,5.8464,5.7657,5.6644,5.5836,5.5085,5.4409,5.3921,5.3658,5.3658,5.3132,5.2719,5.2419,5.2419,5.2231,5.1893,5.1405,5.0901,5.0327,4.9518,4.8849,4.8331,4.8331,4.8331,4.8368,4.8706,4.8818,4.8781,4.8443,4.8571,4.8865,4.8527,4.864,4.8977,4.9396,4.9835,5.0214,5.0214,5.0538,5.0878,5.0878,5.1252,5.1269,4.9888,4.9942,5.0317,5.0317,5.0284,5.0364,5.0833,5.0912,5.1028,5.1513,5.1591,5.1556,5.1556,5.1113,5.0745,5.0745,5.0263,4.9893,4.9893,5.0339,5.0599,5.0599,5.1082,5.1528,5.1862,5.1862,5.2011,5.2345,5.2345,5.2345,5.2345,5.2828,5.3088,5.3088,5.3088,5.3311,5.3794,5.3794,5.3794,5.3794,5.3794,5.3794,5.3794,5.3794,5.3794,5.3794,5.3794,5.3794,5.3794,5.3794,5.3794,5.3794,5.3794,5.3794,5.3794,6.466,6.511,6.5636,6.5636,6.5636,6.5598,6.5523,6.4885,6.4359,6.4304,6.4284,6.4284,6.4284,6.4284,6.4284,6.4284,6.282,6.1543,6.068,5.9178,5.8276,5.8108,5.7413,5.6249,5.4672,5.4559,5.4521,5.4521,5.4446,5.4033,5.3299,5.3299,5.2869,5.2118,5.2027,5.194,5.1857,5.1033,5.0609,5.0505,5.0505,5.0505,5.0579,5.1327,5.1588,5.1513,5.0766,5.1078,5.1653,5.0958,5.1183,5.1765,5.1643,5.1608,5.1608,5.1608,5.1645,5.1703,5.1703,5.174,5.1815,5.1815,5.1815,5.174,5.1608,5.1608,5.1608,5.1683,5.1665,5.1703,5.1777,5.1745,5.1711,5.1711,5.1582,5.1528,5.1528,5.1454,5.1416,5.1416,5.1454,5.1528,5.1528,5.1565,5.1936,5.2642,5.2717,5.3051,5.3757,5.3794,5.3794,5.3794,5.3868,5.3905,5.3905,5.3905,5.3868,5.3794,5.3794,5.3794,5.3794,5.3794,5.3794,5.3794,5.3794,5.3794,5.3831,5.3868,5.3905,5.3905,5.398,5.4017,5.4017,5.4017,5.4017,5.4017,6.6295,6.6408,6.652,6.652,6.652,6.6274,6.5598,6.5336,6.4998,6.4359,6.4284,6.4284,6.4284,6.4284,6.4284,6.4284,6.3383,6.2181,6.0717,6.0266,5.9478,5.8145,5.7938,5.7375,5.6361,5.5685,5.533,5.533,5.4709,5.4296,5.4146,5.4146,5.4033,5.3846,5.3103,5.2752,5.2698,5.1752,5.1381,5.1327,5.1327,5.1327,5.1364,5.1551,5.1588,5.1588,5.1401,5.1476,5.1605,5.1418,5.1493,5.1643,5.1625,5.1556,5.1541,5.1541,5.1934,5.2363,5.2363,5.2847,5.333,5.333,5.333,5.3033,5.1852,5.1556,5.169,5.2323,5.2418,5.2586,5.3219,5.3312,5.3293,5.3293,5.2772,5.2345,5.2345,5.1788,5.1416,5.1416,5.1974,5.2345,5.2345,5.2902,5.3348,5.3534,5.3534,5.3608,5.3794,5.3794,5.3794,5.3794,5.4426,5.476,5.476,5.476,5.4426,5.3794,5.3794,5.3794,5.3794,5.3794,5.3794,5.3794,5.3794,5.3794,5.3868,5.45,5.476,5.4834,5.5503,5.5763,5.5763,5.5763,5.5763,5.5763,6.6896,6.7121,6.7363,6.7363,6.7363,6.7213,6.6762,6.6011,6.5336,6.4923,6.4547,6.4284,6.4284,6.4284,6.4284,6.4284,6.3571,6.2557,6.1243,6.083,6.0041,5.8727,5.8689,5.8464,5.8051,5.7225,5.6606,5.6211,5.5385,5.4972,5.4972,5.4545,5.434,5.434,5.3766,5.3509,5.3418,5.2506,5.2135,5.2082,5.2082,5.2082,5.2119,5.2492,5.2641,5.2603,5.2231,5.2117,5.219,5.2601,5.275,5.275,5.2659,5.2641,5.2586,5.2586,5.2865,5.3162,5.3162,5.3497,5.3794,5.3794,5.3794,5.359,5.2846,5.2623,5.2698,5.3144,5.3181,5.3311,5.372,5.3794,5.3794,5.3794,5.346,5.3162,5.3162,5.2828,5.2531,5.2531,5.294,5.3311,5.372,5.4128,5.4537,5.4946,5.4983,5.4983,5.4983,5.4983,5.4983,5.4983,5.5391,5.5614,5.5614,5.5614,5.5429,5.4983,5.4203,5.3794,5.3794,5.3794,5.3794,5.3794,5.3794,5.4017,5.4426,5.4834,5.5243,5.5689,5.6134,5.632,5.632,5.632,5.632,5.632,6.7326,6.7739,6.8227,6.8227,6.8227,6.8152,6.8039,6.6838,6.5899,6.5749,6.4998,6.451,6.451,6.4359,6.4284,6.4284,6.3683,6.2932,6.2069,6.1393,6.0567,5.9553,5.9515,5.944,5.929,5.8652,5.7901,5.7112,5.6231,5.5726,5.5575,5.4813,5.4403,5.4235,5.4146,5.4074,5.3944,5.3181,5.2865,5.2828,5.2828,5.2828,5.2865,5.3571,5.3794,5.372,5.3051,5.2847,5.2995,5.374,5.3963,5.3944,5.385,5.3905,5.4017,5.4017,5.4128,5.424,5.424,5.424,5.424,5.424,5.424,5.424,5.424,5.4017,5.3794,5.3794,5.3905,5.4017,5.4017,5.4128,5.424,5.424,5.424,5.424,5.424,5.4091,5.4054,5.4203,5.424,5.45,5.5169,5.5243,5.554,5.6246,5.632,5.632,5.632,5.632,5.632,5.632,5.6432,5.6506,5.6506,5.6506,5.6506,5.6506,5.4946,5.424,5.424,5.424,5.424,5.424,5.424,5.4611,5.5243,5.5391,5.5874,5.6506,5.6655,5.6729,5.6729,5.6729,5.6729,5.6729,6.8881,6.8956,6.9031,6.9031,6.9031,6.8806,6.8114,6.7814,6.7401,6.6746,6.5861,6.5336,6.5336,6.4697,6.4284,6.4284,6.4209,6.3796,6.297,6.282,6.2069,6.0492,6.0417,6.0079,5.9328,5.9178,5.8727,5.792,5.7022,5.6199,5.5487,5.5285,5.4781,5.4109,5.4055,5.4,5.3982,5.3739,5.3645,5.3645,5.3645,5.3645,5.3645,5.3757,5.3794,5.3794,5.3683,5.3645,5.3664,5.3776,5.3813,5.3813,5.3794,5.4277,5.4834,5.4834,5.5391,5.5949,5.5949,5.5949,5.5949,5.5949,5.5949,5.5949,5.5949,5.4834,5.3794,5.3794,5.4351,5.4834,5.4834,5.5466,5.5949,5.5949,5.5949,5.5949,5.5949,5.5317,5.5131,5.5874,5.5949,5.5986,5.6097,5.6134,5.6172,5.6283,5.632,5.632,5.632,5.632,5.632,5.632,5.6989,5.736,5.736,5.736,5.736,5.7323,5.6395,5.5949,5.5949,5.5949,5.5949,5.5949,5.5949,5.6023,5.6172,5.6878,5.7249,5.7398,5.8103,5.8401,5.8401,5.8401,5.8401,5.8401,6.9181,6.9181,6.9181,6.9181,6.9181,6.9069,6.8715,6.8302,6.7851,6.7513,6.6312,6.5523,6.5523,6.4772,6.4284,6.4284,6.4284,6.3946,6.3158,6.312,6.2557,6.1318,6.128,6.0867,6.0041,5.9947,5.9496,5.8709,5.781,5.7155,5.6762,5.6182,5.551,5.4727,5.4615,5.4297,5.3888,5.385,5.3794,5.3794,5.3794,5.3794,5.3794,5.3794,5.3794,5.3794,5.3794,5.3794,5.3868,5.4314,5.4463,5.4574,5.5057,5.5429,5.5726,5.5726,5.5986,5.632,5.632,5.632,5.632,5.632,5.632,5.632,5.632,5.5726,5.5206,5.5206,5.5466,5.5726,5.5726,5.606,5.632,5.632,5.632,5.632,5.632,5.5986,5.5874,5.6246,5.632,5.6469,5.6952,5.6989,5.7175,5.7621,5.7658,5.7658,5.7658,5.7658,5.7658,5.7658,5.793,5.8037,5.8037,5.8011,5.7989,5.7989,5.7656,5.7052,5.632,5.632,5.632,5.632,5.632,5.658,5.6989,5.736,5.7769,5.8215,5.8549,5.8698,5.8698,5.8698,5.8698,5.8698]}]]